     2              OBSERVATION DATA    GPS                 RINEX VERSION / TYPE
teqc 1999Jul19 19991123 03:16:52UTC                         PGM / RUN BY / DATE
                                                            COMMENT
Original Marker Name: D143                                  COMMENT
Campaign Name: HPGN 1991                                    COMMENT
4-Character Station Name: D143                              COMMENT
6-Character Antenna Code: TRMSST                            COMMENT
Vertical Measurement Point: TGP                             COMMENT
Vertical Offset to Rinex Ref. Point: 0.0629                 COMMENT
Radial Measurement Point: OGP                               COMMENT
Radial Offset to Rinex Ref. Point: 0.2413                   COMMENT
Antenna Height from Field Measurement: 1.4920 m             COMMENT
                                                            COMMENT
Original XYZ: -2471128.1880 -4239834.7482 4062693.0939      COMMENT
New XYZ position is based on association with SCEC monument COMMENT
E1O5R5V5+0011. Position of that monument is believed to be  COMMENT
valid to within 1 m horizontally; vertical accuracy         COMMENT
should be no worse than 3-times this value.                 COMMENT
                                                            COMMENT
Revised Rinex header created by UCSD GPS archive for        COMMENT
GSAC on 10-Mar-2000 (2000:070) 17:35:25 GMT                 COMMENT
For assistance contact dagnew@ucsd.edu or hjohnson@ucsd.edu COMMENT
                                                            COMMENT
D143                                                        MARKER NAME
D143                                                        MARKER NUMBER
-Unknown- CALIF DEPT TRANSPORTATION                         OBSERVER / AGENCY
486 TRIMBLE 4000 SST NP 4.30 / SP 4.20                      REC # / TYPE / VERS
17 TR 4000SST L1/L2 GEO                                     ANT # / TYPE
 -2471131.5437 -4239838.9039  4062693.4531                  APPROX POSITION XYZ
        1.4095        0.0000        0.0000                  ANTENNA: DELTA H/E/N
     1     1     0                                          WAVELENGTH FACT L1/2
     5    C1    L1    L2    S1    S2                        # / TYPES OF OBSERV
     0                                                      INTERVAL
  1991     5    23    17    39   15.000000                  TIME OF FIRST OBS
  1991     5    23    23    43   60.000000                  TIME OF LAST OBS
                                                            END OF HEADER
 91  5 23 17 39 15.0000000  0  3G18G11G19
  20743290.398          -0.19918        -0.46932        29.000           2.375
  24522263.977          -0.27516        -0.32931        12.500           0.438
  20787164.734          -0.90817        -0.00832        23.000           1.688
 91  5 23 17 39 30.0000000  0  3G18G11G19
  20744596.289        6860.071 8      5345.18822        28.750           2.406
  24512245.508      -52644.545 6    -41021.78721        12.500           0.469
  20783933.672      -16995.821 7    -13242.79022        21.500           1.625
 91  5 23 17 39 45.0000000  0  3G18G11G19
  20745920.172       13822.009 8     10770.06622        28.500           2.281
  24502236.836     -105232.997 6    -81999.75821        12.500           0.406
  20780706.734      -33937.834 7    -26444.35422        23.000           1.625
 91  5 23 17 40  0.0000000  0  3G18G11G19
  20747266.172       20892.043 8     16279.17822        29.000           2.375
  24492243.227     -157758.842 6   -122928.93421        12.750           0.406
  20777495.414      -50820.626 7    -39599.77422        22.000           1.563
 91  5 23 17 40 15.0000000  0  3G18G11G19
  20748632.516       28070.332 8     21872.62922        29.250           2.281
  24482259.305     -210221.642 6   -163808.99221        12.750           0.375
  20774292.633      -67644.118 7    -52708.98922        23.000           1.531
 91  5 23 17 40 30.0000000  0  3G18G11G19
  20750018.922       35356.088 8     27549.81022        29.250           2.375
  24472287.945     -262621.572 6   -204640.04921        13.000           0.344
  20771103.953      -84408.930 7    -65772.47722        22.250           1.625
 91  5 23 17 40 45.0000000  0  3G18G11G19
  20751427.336       42754.136 8     33314.50522        29.250           2.406
  24462330.148     -314953.562 6   -245418.17721        12.750           0.344
  20767923.602     -101110.363 7    -78786.57922        22.500           1.656
 91  5 23 17 41  0.0000000  0  3G18G11G19
  20752857.664       50273.066 8     39173.40122        29.250           2.375
  24452386.336     -367208.489 6   -286136.26321        12.750           0.313
  20764761.453     -117739.907 7    -91744.67322        22.250           1.500
 91  5 23 17 41 15.0000000  0  4G18G 2G11G19
  20754311.609       57915.590 8     45128.60222        28.750           2.313
  24588258.445          -0.31415                         8.500
  24442457.875     -419382.916 6   -326791.59921        12.500           0.406
  20761609.336     -134294.548 7   -104644.39522        23.000           1.656
 91  5 23 17 41 30.0000000  0  4G18G 2G11G19
  20755787.258       65671.050 8     51171.81022        29.000           2.375
  24576209.867      -63317.453 5                         8.250
  24432543.156     -471487.255 6   -367392.33621        12.250           0.438
  20758475.578     -150785.227 7   -117494.28322        21.000           1.594
 91  5 23 17 41 45.0000000  0  4G18G 2G11G19
  20757284.992       73538.477 8     57302.25222        28.750           2.344
  24564166.898     -126604.721 5                         8.000
  24422639.172     -523522.206 5   -407938.99021        11.500           0.344
  20755345.211     -167212.977 7   -130295.13822        22.750           1.594
 91  5 23 17 42  0.0000000  0  4G18G 2G11G19
  20758803.359       81517.529 8     63519.67322        29.250           2.344
  24552128.227     -189862.044 5                         8.000
  24412749.953     -575487.562 5   -448431.42321        11.250           0.375
  20752232.125     -183578.050 7   -143047.14822        22.500           1.500
 91  5 23 17 42 15.0000000  0  4G18G 2G11G19
  20760343.109       89610.289 8     69825.69922        29.250           2.375
  24540096.055     -253086.992 5                         8.000
  24402876.367     -627380.655 5   -488867.54921        11.250           0.406
  20749128.852     -199878.166 7   -155748.55322        22.500           1.594
 91  5 23 17 42 30.0000000  0  4G18G 2G11G19
  20761903.406       97812.203 8     76216.79322        29.000           2.438
  24528068.922     -316284.271 5        -0.24531         8.250           0.313
  24393014.023     -679205.623 5   -529250.57921        11.000           0.375
  20746041.078     -216117.959 7   -168402.94922        21.750           1.594
 91  5 23 17 42 45.0000000  0  4G18G 2G11G19
  20763487.469      106132.628 8     82700.23022        28.750           2.344
  24516051.531     -379443.990 5    -49215.55521         8.250           0.281
  24383165.875     -730952.542 5   -569572.80721        11.000           0.313
  20742961.406     -232287.955 7   -181002.94222        22.750           1.625
 91  5 23 17 43  0.0000000  0  4G18G 2G11G19
  20765097.641      114595.476 8     89294.65622        28.750           2.313
  24504045.258     -442542.139 5    -98382.89121         8.500           0.344
  24373339.742     -782597.145 5   -609815.29921        11.250           0.344
  20739903.805     -248364.412 7   -193530.04822        22.000           1.531
 91  5 23 17 43 15.0000000  0  4G18G 2G11G19
  20766738.234      123214.987 8     96011.14922        29.000           2.469
  24492052.125     -505564.335 5   -147491.02821         8.250           0.188
  24363534.891     -834124.775 5   -649966.64021        11.250           0.219
  20736863.461     -264332.941 7   -205973.04821        22.750           1.438
 91  5 23 17 43 30.0000000  0  5G18G 2G16G11G19
  20768407.516      131989.013 8    102848.04022        29.000           2.313
  24480074.250     -568512.303 5   -196541.33121         8.750           0.281
  24393776.469          -0.92714                         6.500
  24353750.703     -885537.249 5   -690028.23421        11.000           0.406
  20733847.023     -280195.818 7   -218333.72322        21.750           1.531
 91  5 23 17 43 45.0000000  0  5G18G 2G16G11G19
  20770106.609      140915.557 8    109803.76922        29.000           2.406
  24468110.672     -631387.638 5   -245535.04221         8.500           0.250
  24385012.492      -46044.784 4                         6.500
  24343989.492     -936835.940 5   -730001.18921        11.000           0.375
  20730846.234     -295954.847 7   -230613.48222        22.500           1.688
 91  5 23 17 44  0.0000000  0  5G18G 2G16G11G19
  20771831.461      149978.664 8    116865.90822        28.750           2.375
  24456155.219     -694206.234 5   -294484.53821         8.750           0.313
  24376276.078      -91955.306 4                         7.250
  24334246.492     -988036.509 5   -769897.66121        11.000           0.375
  20727868.266     -311626.212 7   -242824.93322        20.750           1.688
 91  5 23 17 44 15.0000000  0  5G18G 2G16G11G19
  20773577.977      159160.040 8    124020.20222        28.500           2.406
  24444208.633     -756986.040 5   -343403.79921         9.000           0.344
  24367560.258     -137750.440 5                         7.500
  24324518.164    -1039156.653 5   -809731.48621        10.750           0.313
  20724894.883     -327228.206 7   -254982.32822        22.500           1.625
 91  5 23 17 44 30.0000000  0  5G18G 2G16G11G19
  20775345.523      168447.685 8    131257.30422        28.250           2.469
  24432267.164     -819738.857 5   -392302.04221         9.000           0.344
  24358866.266     -183441.842 5        -0.41131         7.750           0.344
  24314804.703    -1090207.966 5   -849511.66921        11.250           0.281
  20721939.063     -342772.687 7   -267094.90322        21.500           1.625
 91  5 23 17 44 45.0000000  0  5G18G 2G16G11G19
  20777131.039      177830.991 8    138568.95422        28.250           2.406
  24420328.594     -882475.095 5   -441187.37121         9.000           0.281
  24350190.008     -229040.043 5    -35531.49521         8.500           0.375
  24305098.914    -1141200.634 5   -889246.16321        11.000           0.250
  20718988.766     -358270.229 7   -279170.90622        22.500           1.563
 91  5 23 17 45  0.0000000  0  5G18G 2G16G11G19
  20778936.289      187313.219 8    145957.68122        29.000           2.313
  24408394.711     -945191.108 5   -490056.93821         9.000           0.313
  24341526.539     -274541.008 5    -70986.76821         8.500           0.219
  24295407.273    -1192130.857 5   -928931.99221        11.250           0.281
  20716050.500     -373717.536 7   -291207.76322        21.000           1.688
 91  5 23 17 45 15.0000000  0  5G18G 2G16G11G19
  20780758.484      196888.368 8    153418.81222        28.750           2.250
  24396461.594    -1007892.870 5   -538915.40021         9.000           0.438
  24332891.344     -319950.805 5   -106371.05621         9.250           0.250
  24285724.414    -1243004.330 5   -968573.60421        11.000           0.219
  20713117.406     -389120.626 7   -303210.16422        22.250           1.625
 91  5 23 17 45 30.0000000  0  5G18G 2G16G11G19
  20782599.820      206568.229 8    160961.55022        28.750           2.281
  24384534.859    -1070568.110 5   -587753.18921         9.000           0.281
  24324268.922     -365257.066 5   -141674.63921         9.500           0.313
  24276058.461    -1293808.497 5  -1008161.20121        11.250           0.188
  20710198.766     -404467.611 7   -315168.84722        21.250           1.531
 91  5 23 17 45 45.0000000  0  5G18G 2G16G11G19
  20784460.328      216346.837 8    168581.22122        28.250           2.313
  24372613.992    -1133222.843 5   -636575.00621         9.250           0.344
  24315664.391     -410465.588 5   -176902.04821         9.500           0.219
  24266403.703    -1344549.150 5  -1047699.32821        11.750           0.188
  20707285.703     -419764.627 7   -327088.59722        22.250           1.594
 91  5 23 17 46  0.0000000  0  5G18G 2G16G11G19
  20786340.367      226226.561 8    176279.69022        28.000           2.313
  24360695.297    -1195854.334 5   -685378.70521         9.500           0.313
  24307080.242     -455573.817 5   -212051.30421        10.000           0.188
  24256760.047    -1395223.368 5  -1087185.67021        11.750           0.188
  20704388.891     -435009.296 7   -338967.55022        20.500           1.500
 91  5 23 17 46 15.0000000  0  5G18G 2G16G11G19
  20788238.297      236200.618 7    184051.66822        27.750           2.469
  24348779.313    -1258468.853 5   -734169.18521         9.500           0.375
  24298514.914     -500588.010 5   -247127.29921        10.250           0.156
  24247129.445    -1445837.435 6  -1126625.14521        12.000           0.188
  20701493.039     -450207.965 7   -350810.66322        22.000           1.531
 91  5 23 17 46 30.0000000  0  5G18G 2G16G11G19
  20790156.859      246281.009 8    191906.51522        28.000           2.469
  24336869.594    -1321054.417 5   -782937.10721         9.750           0.281
  24289968.117     -545496.142 5   -282120.66321        10.250           0.219
  24237510.484    -1496379.143 6  -1166008.23521        12.250           0.281
  20698612.688     -465349.134 7   -362608.97222        21.250           1.563
 91  5 23 17 46 45.0000000  0  5G18G 2G16G11G19
  20792094.555      256461.986 8    199839.74022        28.000           2.375
  24324965.438    -1383616.514 5   -831686.75121        10.000           0.313
  24281441.930     -590303.469 5   -317035.45921        10.250           0.281
  24227906.297    -1546853.433 6  -1205338.78821        12.500           0.250
  20695740.602     -480438.130 7   -374366.63022        21.750           1.531
 91  5 23 17 47  0.0000000  0  5G18G 2G16G11G19
  20794049.172      266733.197 8    207843.27222        28.250           2.375
  24313061.984    -1446165.282 5   -880425.99721         9.750           0.281
  24272935.688     -635020.090 5   -351879.58921        10.500           0.125
  24218312.172    -1597270.439 6  -1244624.69621        12.750           0.156
  20692878.977     -495485.456 7   -386091.82022        21.000           1.594
 91  5 23 17 47 15.0000000  0  5G18G 2G16G11G19
  20796021.227      277100.073 7    215921.34322        27.750           2.469
  24301163.438    -1508695.267 5   -929150.62421        10.000           0.281
  24264444.195     -679640.507 5   -386648.72521        10.500           0.281
  24208730.164    -1647624.427 6  -1283861.51921        12.750           0.219
  20690021.156     -510485.955 7   -397780.51922        21.500           1.531
 91  5 23 17 47 30.0000000  0  5G18G 2G16G11G19
  20798013.203      287564.512 8    224075.43222        28.000           2.313
  24289269.641    -1571203.913 5   -977858.59321        10.000           0.250
  24255970.641     -724162.083 5   -421340.87221        10.500           0.313
  24199160.766    -1697912.806 6  -1323047.19621        13.000           0.313
  20687179.039     -525437.258 7   -409430.89321        20.750           1.469
 91  5 23 17 47 45.0000000  0  5G18G 2G16G11G19
  20800020.914      298115.872 8    232297.25422        28.000           2.438
  24277375.430    -1633701.484 5  -1026557.95921         9.750           0.344
  24247515.383     -768594.904 5   -455963.86521        10.250           0.250
  24189602.078    -1748145.440 6  -1362189.44721        13.250           0.250
  20684339.516     -540349.879 7   -421051.12122        21.500           1.531
 91  5 23 17 48  0.0000000  0  5G18G 2G16G11G19
  20802046.695      308759.482 8    240590.95422        28.250           2.406
  24265485.359    -1696182.748 5  -1075244.60721         9.750           0.281
  24239076.484     -812933.785 5   -490513.64221         9.750           0.250
  24180054.273    -1798316.852 6  -1401283.98521        13.500           0.375
  20681513.094     -555218.712 7   -432637.22622        20.000           1.594
 91  5 23 17 48 15.0000000  0  5G18G 2G16G11G19
  20804092.195      319506.652 8    248965.35322        28.250           2.406
  24253599.313    -1758635.993 5  -1123909.43621         9.500           0.281
  24230660.234     -857166.976 5   -524981.04221         9.500           0.344
  24170520.984    -1848415.347 6  -1440321.72721        13.750           0.344
  20678691.430     -570032.397 7   -444180.36222        21.000           1.719
 91  5 23 17 48 30.0000000  0  5G18G 2G16G11G19
  20806154.484      330348.409 7    257413.45522        27.750           2.406
  24241719.133    -1821069.781 5  -1172559.09321         9.500           0.250
  24222261.664     -901302.835 5   -559372.61921         9.000           0.375
  24160999.555    -1898449.208 6  -1479309.06921        13.750           0.313
  20675882.680     -584799.655 7   -455687.32522        20.750           1.531
 91  5 23 17 48 45.0000000  0  5G18G 2G16G11G19
  20808235.891      341287.209 7    265937.17822        27.250           2.344
  24229841.695    -1883481.500 5  -1221191.55621         9.500           0.250
  24213880.086     -945339.051 5   -593686.54021         9.000           0.438
  24151492.055    -1948415.697 6  -1518243.92521        14.750           0.344
  20673080.492     -599518.387 7   -467156.46721        21.500           1.375
 91  5 23 17 49  0.0000000  0  5G18G 2G16G11G19
  20810338.469      352330.765 8    274542.53622        28.000           2.188
  24217971.086    -1945863.262 5  -1269800.66421         9.250           0.375
  24205520.000     -989267.599 5   -627916.58021         9.750           0.281
  24141997.430    -1998306.721 6  -1557119.99721        14.000           0.406
  20670292.219     -614180.788 7   -478581.71722        20.250           1.563
 91  5 23 17 49 15.0000000  0  5G18G 2G16G11G19
  20812459.555      363481.108 8    283231.11222        28.250           2.250
  24206106.742    -2008212.809 5  -1318384.68821         9.500           0.281
  24197186.414    -1033086.208 5   -662060.92421         9.250           0.281
  24132518.828    -2048119.698 6  -1595935.23821        14.250           0.438
  20667510.813     -628784.617 7   -489961.32922        20.750           1.563
 91  5 23 17 49 30.0000000  0  5G18G 2G16G11G19
  20814601.203      374734.634 8    292000.08222        28.750           2.219
  24194249.664    -2070533.564 5  -1366946.25921         9.750           0.344
  24188866.719    -1076798.007 5   -696122.06621         9.000           0.375
  24123053.188    -2097857.854 6  -1634692.19021        14.000           0.375
  20664742.984     -643333.680 6   -501298.27122        19.750           1.563
 91  5 23 17 49 45.0000000  0  5G18G 2G16G11G19
  20816763.867      386100.504 8    300856.59122        28.750           2.313
  24182396.680    -2132815.873 5  -1415477.87821         9.500           0.281
  24180568.547    -1120393.470 5   -730092.57221         8.750           0.375
  24113604.523    -2147511.305 6  -1673383.12221        14.250           0.375
  20661986.289     -657818.425 7   -512585.09822        20.500           1.594
 91  5 23 17 50  0.0000000  0  5G18G 2G16G11G19
  20818947.156      397572.827 8    309796.04722        28.250           2.219
  24170551.156    -2195065.511 5  -1463984.04521         9.500           0.344
  24172295.398    -1163878.268 5   -763976.79821         9.000           0.406
  24104171.680    -2197085.532 6  -1712012.33221        14.500           0.344
  20659242.797     -672244.935 6   -523826.53621        19.750           1.438
 91  5 23 17 50 15.0000000  0  5G18G 2G16G11G19
  20821151.172      409154.421 8    318820.64922        28.250           2.406
  24158711.242    -2257279.386 5  -1512462.33521         9.750           0.281
  24164043.445    -1207249.072 5   -797772.24621         8.750           0.406
  24094753.594    -2246577.265 6  -1750577.25521        14.750           0.375
  20656506.820     -686610.163 7   -535020.22822        20.500           1.500
 91  5 23 17 50 30.0000000  0  5G18G 2G16G11G19
  20823375.797      420844.588 8    327929.85922        28.750           2.281
  24146879.133    -2319458.133 5  -1560913.26021         9.500           0.344
  24155811.977    -1250506.330 5   -831479.17621         8.750           0.375
  24085351.273    -2295986.862 6  -1789078.17421        14.750           0.375
  20653788.703     -700914.830 6   -546166.72422        19.500           1.500
 91  5 23 17 50 45.0000000  0  5G18G 2G16G11G19
  20825620.727      432640.940 8    337121.81422        29.000           2.375
  24135053.586    -2381603.687 5  -1609338.31921         9.750           0.281
  24147600.141    -1293652.160 5   -865099.28521         9.000           0.406
  24075963.492    -2345316.125 6  -1827516.50421        14.250           0.313
  20651074.211     -715161.282 7   -557267.84822        20.500           1.563
 91  5 23 17 51  0.0000000  0  5G18G 2G16G11G19
  20827884.813      444538.446 8    346392.59122        29.250           2.344
  24123232.836    -2443720.859 5  -1657741.25421        10.000           0.313
  24139410.148    -1336691.694 5   -898636.59121         9.000           0.313
  24066590.539    -2394569.747 6  -1865895.89021        14.000           0.406
  20648377.148     -729354.665 6   -568327.62022        18.750           1.625
 91  5 23 17 51 15.0000000  0  5G18G 2G16G11G19
  20830167.531      456537.039 8    355742.13622        28.750           2.406
  24111417.852    -2505809.112 5  -1706121.68421        10.250           0.281
  24131240.234    -1379624.271 5   -932090.52421         9.250           0.375
  24057232.656    -2443747.142 6  -1904215.88321        13.750           0.406
  20645682.336     -743494.630 7   -579345.76322        20.250           1.531
 91  5 23 17 51 30.0000000  0  5G18G 2G16G11G19
  20832469.648      468630.964 8    365165.96222        29.000           2.375
  24099605.422    -2567874.140 5  -1754483.97721        10.250           0.281
  24123091.219    -1422455.266 5   -965465.32421        10.000           0.438
  24047888.016    -2492853.775 6  -1942480.72721        13.750           0.563
  20643000.828     -757587.316 7   -590327.06522        20.000           1.531
 91  5 23 17 51 45.0000000  0  5G18G 2G16G11G19
  20834789.102      480825.281 8    374668.02322        28.500           2.344
  24087801.898    -2629910.820 5  -1802824.21321        10.250           0.344
  24114957.070    -1465179.602 5   -998757.01621         9.750           0.281
  24038557.906    -2541884.158 6  -1980686.16921        14.000           0.438
  20640329.055     -771627.614 7   -601267.55722        20.250           1.563
 91  5 23 17 52  0.0000000  0  5G18G 2G16G11G19
  20837129.016      493118.460 8    384247.12522        28.750           2.313
  24076002.422    -2691920.231 5  -1851143.19921        10.750           0.313
  24106848.969    -1507798.281 5  -1031966.36421        10.000           0.313
  24029241.648    -2590839.186 6  -2018832.88121        14.000           0.531
  20637670.273     -785616.860 6   -612168.27322        19.000           1.625
 91  5 23 17 52 15.0000000  0  5G18G 2G16G11G19
  20839488.438      505517.673 8    393908.84222        28.500           2.344
  24064207.102    -2753895.220 5  -1899435.35021        10.500           0.344
  24098761.125    -1550303.902 5  -1065087.62621        10.250           0.219
  24019942.438    -2639711.418 6  -2056915.08621        13.750           0.563
  20635016.414     -799547.981 7   -623023.69422        20.500           1.531
 91  5 23 17 52 30.0000000  0  5G18G 2G16G11G19
  20841869.750      518029.019 8    403657.92522        28.500           2.375
  24052423.438    -2815829.233 5  -1947695.59121        10.500           0.406
  24090694.484    -1592690.214 5  -1098115.93921        10.500           0.344
  24010658.414    -2688494.171 6  -2094927.56621        13.500           0.469
  20632378.945     -813414.702 6   -633828.93622        19.750           1.531
 91  5 23 17 52 45.0000000  0  5G18G 2G16G11G19
  20844269.172      530637.940 8    413483.04322        28.750           2.344
  24040642.273    -2877736.527 5  -1995934.99521        10.750           0.344
  24082650.945    -1634971.216 5  -1131062.17021        10.750           0.313
  24001388.961    -2737201.461 6  -2132881.24121        13.000           0.469
  20629748.500     -827231.550 7   -644595.31422        20.500           1.563
 91  5 23 17 53  0.0000000  0  5G18G 2G16G11G19
  20846688.742      543353.650 8    423391.37322        28.750           2.375
  24028869.313    -2939607.540 5  -2044146.13921        10.750           0.469
  24074623.172    -1677137.337 5  -1163918.86421        10.500           0.250
  23992136.820    -2785823.656 6  -2170768.60321        12.750           0.500
  20627131.125     -840989.238 7   -655315.59221        20.000           1.469
 91  5 23 17 53 15.0000000  0  5G18G 2G16G11G19
  20849128.391      556172.957 8    433380.42322        28.750           2.344
  24017102.789    -3001445.241 5  -2092331.31621        10.500           0.344
  24066622.703    -1719191.650 5  -1196688.47021        10.500           0.281
  23982899.891    -2834363.395 6  -2208591.72521        12.750           0.531
  20624522.039     -854690.814 7   -665992.14922        20.500           1.531
 91  5 23 17 53 30.0000000  0  5G18G 2G16G11G19
  20851585.766      569089.396 8    443445.16222        28.750           2.344
  24005338.406    -3063255.689 5  -2140495.26321        10.500           0.344
  24058639.586    -1761140.066 5  -1229375.54421        10.500           0.281
  23973678.555    -2882826.714 6  -2246355.29321        13.000           0.531
  20621926.438     -868342.621 7   -676629.92922        20.250           1.500
 91  5 23 17 53 45.0000000  0  5G18G 2G16G11G19
  20854064.359      582112.136 8    453592.73022        28.750           2.281
  23993582.070    -3125029.563 5  -2188630.70221        10.500           0.438
  24050680.680    -1802973.258 5  -1261972.83321        10.500           0.219
  23964472.688    -2931203.956 6  -2284051.80021        13.000           0.563
  20619338.414     -881935.683 7   -687221.93222        20.250           1.500
 91  5 23 17 54  0.0000000  0  5G18G 2G16G11G19
  20856562.055      595238.625 8    463821.15022        29.000           2.313
  23981835.984    -3186769.262 5  -2236739.51921        10.750           0.469
  24042743.219    -1844693.632 5  -1294482.23021        10.750           0.281
  23955282.734    -2979497.267 6  -2321682.89321        12.750           0.438
  20616765.898     -895472.410 6   -697770.04322        18.750           1.500
 91  5 23 17 54 15.0000000  0  5G18G 2G16G11G19
  20859079.063      608466.100 8    474128.25722        29.000           2.344
  23970094.375    -3248477.224 5  -2284823.61121        11.000           0.375
  24034822.477    -1886303.458 5  -1326905.47221        10.250           0.219
  23946107.586    -3027709.024 6  -2359250.44521        12.500           0.563
  20614196.398     -908955.415 7   -708276.29222        20.000           1.531
 91  5 23 17 54 30.0000000  0  5G18G 2G16G11G19
  20861615.164      621790.732 8    484511.07022        29.000           2.438
  23958355.430    -3310157.138 5  -2332885.84221        11.000           0.469
  24026926.547    -1927806.353 5  -1359245.40621        10.250           0.188
  23936947.805    -3075842.641 6  -2396757.10821        12.250           0.469
  20611639.945     -922388.655 6   -718743.75621        19.750           1.469
 91  5 23 17 54 45.0000000  0  5G18G 2G16G11G19
  20864170.758      635222.738 8    494977.55722        29.000           2.344
  23946624.984    -3371798.283 5  -2380917.86421        10.750           0.500
  24019048.539    -1969191.938 5  -1391493.89721         9.750           0.250
  23927805.047    -3123887.258 6  -2434194.42421        12.500           0.500
  20609095.094     -935761.721 7   -729164.32922        20.000           1.531
 91  5 23 17 55  0.0000000  0  5G18G 2G16G11G19
  20866747.695      648763.459 8    505528.75722        28.750           2.313
  23934903.289    -3433399.389 5  -2428918.69021        11.000           0.531
  24011197.180    -2010458.721 5  -1423649.81721        10.000           0.250
  23918680.141    -3171841.240 6  -2471561.11421        12.500           0.469
  20606564.680     -949073.298 6   -739536.99521        19.250           1.469
 91  5 23 17 55 15.0000000  0  5G18G 2G16G11G19
  20869345.125      662413.065 8    516164.79922        28.750           2.406
  23923187.969    -3494959.952 5  -2476887.90821        11.000           0.438
  24003366.609    -2051605.914 5  -1455712.56821         9.750           0.250
  23909573.086    -3219703.893 6  -2508856.65221        13.000           0.438
  20604040.883     -962323.280 7   -749861.66121        20.000           1.438
 91  5 23 17 55 30.0000000  0  5G18G 2G16G11G19
  20871963.594      676173.275 8    526887.01922        28.500           2.375
  23911482.984    -3556477.823 5  -2524823.88021        11.000           0.500
  23995556.820    -2092631.317 5  -1487680.39921         9.750           0.219
  23900482.594    -3267472.924 6  -2546079.22121        13.250           0.500
  20601533.344     -975509.676 6   -760136.77821        19.500           1.406
 91  5 23 17 55 45.0000000  0  5G18G 2G16G11G19
  20874603.453      690046.219 8    537697.08722        28.500           2.344
  23899784.898    -3617950.415 5  -2572724.55821        10.750           0.500
  23987776.148    -2133532.386 5  -1519551.36421        10.250           0.375
  23891410.656    -3315145.579 6  -2583226.69121        13.250           0.531
  20599034.844     -988630.097 7   -770360.47721        20.000           1.438
 91  5 23 17 56  0.0000000  0  5G18G 2G16G11G19
  20877264.367      704025.380 8    548589.91322        28.750           2.469
  23888091.852    -3679384.033 5  -2620594.86121        10.750           0.500
  23980016.086    -2174315.561 5  -1551330.47621        10.250           0.156
  23882355.531    -3362727.963 6  -2620303.83421        13.500           0.531
  20596550.992    -1001691.305 6   -780538.04221        19.000           1.438
 91  5 23 17 56 15.0000000  0  5G18G 2G16G11G19
  20879944.922      718114.917 8    559568.75622        28.250           2.375
  23876411.578    -3740774.301 5  -2668431.39621        10.750           0.531
  23972277.625    -2214976.569 5  -1583014.36921        10.500           0.313
  23873319.367    -3410215.587 6  -2657307.13421        13.750           0.563
  20594075.172    -1014689.255 7   -790666.31621        20.000           1.406
 91  5 23 17 56 30.0000000  0  5G18G 2G16G11G19
  20882648.695      732323.031 8    570640.00922        28.500           2.438
  23864737.898    -3802112.559 5  -2716227.40421        10.750           0.469
  23964566.469    -2255506.698 5  -1614596.27821        10.500           0.250
  23864302.883    -3457599.563 6  -2694229.68321        14.000           0.469
  20591620.188    -1027615.326 6   -800738.58521        18.500           1.406
 91  5 23 17 56 45.0000000  0  5G18G 2G16G11G19
  20885374.617      746647.923 8    581802.25122        28.250           2.406
  23853075.906    -3863400.659 5  -2763984.32521        11.000           0.594
  23956877.766    -2295907.125 5  -1646077.11521        10.500           0.281
  23855305.758    -3504881.353 6  -2731072.58921        14.250           0.469
  20589169.734    -1040471.240 7   -810756.19521        20.000           1.438
 91  5 23 17 57  0.0000000  0  5G18G 2G16G11G19
  20888122.070      761086.532 7    593053.11022        27.750           2.281
  23841424.000    -3924641.467 5  -2811704.38421        11.250           0.500
  23949215.625    -2336181.214 5  -1677459.52621        11.000           0.344
  23846325.727    -3552063.769 6  -2767838.08121        14.250           0.469
  20586738.578    -1053260.169 6   -820721.59222        19.250           1.500
 91  5 23 17 57 15.0000000  0  5G18G 2G16G11G19
  20890891.250      775638.660 7    604392.42322        27.750           2.375
  23829779.156    -3985834.764 5  -2859387.44221        11.500           0.469
  23941572.445    -2376328.744 5  -1708743.33521        11.000           0.281
  23837367.313    -3599146.408 6  -2804525.81221        14.250           0.406
  20584315.898    -1065982.128 7   -830634.81421        20.000           1.375
 91  5 23 17 57 30.0000000  0  5G18G 2G16G11G19
  20893680.203      790297.302 7    615814.73922        27.750           2.406
  23818141.844    -4046987.113 5  -2907038.58621        11.500           0.500
  23933960.000    -2416356.079 5  -1739933.45621        11.500           0.281
  23828424.484    -3646135.621 6  -2841140.75021        14.000           0.438
  20581908.797    -1078644.059 6   -840501.25321        19.000           1.438
 91  5 23 17 57 45.0000000  0  5G18G 2G16G11G19
  20896491.031      805063.339 7    627320.74022        27.750           2.344
  23806512.266    -4108097.395 5  -2954656.95121        11.500           0.594
  23926362.828    -2456262.075 5  -1771029.02721        11.250           0.219
  23819501.922    -3693030.075 6  -2877681.84221        14.250           0.563
  20579507.484    -1091244.960 6   -850320.12521        19.750           1.375
 91  5 23 17 58  0.0000000  0  5G18G 2G16G11G19
  20899321.203      819938.014 7    638911.39122        27.500           2.281
  23794891.117    -4169164.336 5  -3002241.53921        11.500           0.406
  23918792.789    -2496045.267 5  -1802028.91421        11.250           0.250
  23810596.164    -3739828.277 6  -2914147.94421        14.250           0.438
  20577124.219    -1103783.738 6   -860090.60221        19.250           1.438
 91  5 23 17 58 15.0000000  0  5G18G 2G16G11G19
  20902173.414      834924.515 7    650589.18222        27.500           2.344
  23783280.516    -4230184.464 5  -3049789.65621        11.500           0.469
  23911246.117    -2535702.229 5  -1832930.45221        11.000           0.250
  23801709.820    -3786526.523 6  -2950536.14421        14.000           0.469
  20574748.516    -1116256.938 6   -869809.97521        19.750           1.438
 91  5 23 17 58 30.0000000  0  5G18G 2G16G11G19
  20905046.063      850023.123 7    662354.32222        27.500           2.344
  23771677.453    -4291157.022 5  -3097300.69721        11.500           0.406
  23903723.289    -2575232.218 5  -1863733.02221        10.750           0.219
  23792842.570    -3833123.937 6  -2986845.79621        14.250           0.531
  20572391.516    -1128664.232 6   -879477.99221        18.500           1.344
 91  5 23 17 58 45.0000000  0  5G18G 2G16G11G19
  20907939.805      865231.631 7    674205.08722        27.250           2.344
  23760082.711    -4352083.732 5  -3144776.02821        11.500           0.594
  23896226.531    -2614637.060 5  -1894438.09321        11.000           0.281
  23783994.625    -3879622.125 6  -3023078.11721        14.500           0.375
  20570038.164    -1141007.509 7   -889096.12821        20.000           1.375
 91  5 23 17 59  0.0000000  0  5G18G 2G16G11G19
  20910854.398      880544.841 7    686137.44122        27.250           2.438
  23748496.914    -4412969.839 5  -3192219.71721        11.500           0.469
  23888749.203    -2653921.878 5  -1925049.65021        10.750           0.250
  23775162.289    -3926025.951 6  -3059236.93021        14.500           0.531
  20567702.086    -1153292.108 6   -898668.54721        19.500           1.375
 91  5 23 17 59 15.0000000  0  5G18G 2G16G11G19
  20913788.750      895966.008 7    698153.92422        27.500           2.344
  23736917.836    -4473811.802 5  -3239628.99921        11.500           0.406
  23881297.117    -2693083.255 5  -1955565.02321        10.250           0.250
  23766351.234    -3972331.819 6  -3095319.37821        14.500           0.375
  20565374.336    -1165514.946 7   -908192.85021        20.000           1.469
 91  5 23 17 59 30.0000000  0  5G18G 2G16G11G19
  20916742.344      911484.937 7    710246.57222        27.750           2.344
  23725347.102    -4534619.816 5  -3287011.83721        11.750           0.500
  23873867.977    -2732130.993 5  -1985991.81121        10.500           0.250
  23757556.633    -4018549.533 6  -3131333.16321        14.750           0.469
  20563061.672    -1177686.302 6   -917677.03021        19.250           1.438
 91  5 23 17 59 45.0000000  0  5G18G 2G16G11G19
  20919713.914      927101.886 7    722415.59922        27.000           2.438
  23713781.250    -4595393.047 5  -3334367.55621        11.750           0.406
  23866456.820    -2771064.421 5  -2016329.54321        10.000           0.313
  23748778.867    -4064678.084 6  -3167277.45521        14.750           0.438
  20560753.492    -1189805.476 7   -927120.55521        20.000           1.406
 91  5 23 18  0  0.0000000  0  5G18G 2G16G11G19
  20922704.859      942818.634 7    734662.38822        27.000           2.375
  23702224.008    -4656129.384 6  -3381694.55021        12.000           0.531
  23859072.273    -2809881.823 5  -2046576.85621        10.000           0.250
  23740017.531    -4110715.280 6  -3203150.58421        14.750           0.438
  20558459.063    -1201870.637 6   -936521.99821        19.500           1.375
 91  5 23 18  0 15.0000000  0  5G18G 2G16G11G19
  20925715.703      958643.973 7    746993.79422        27.000           2.375
  23690673.797    -4716819.648 6  -3428985.63121        12.000           0.531
  23851708.008    -2848573.501 5  -2076726.23621         9.750           0.313
  23731277.109    -4156651.734 6  -3238945.19621        15.250           0.531
  20556174.398    -1213872.610 6   -945874.20221        19.500           1.438
 91  5 23 18  0 30.0000000  0  5G18G 2G16G11G19
  20928746.820      974570.368 7    759403.96422        26.750           2.406
  23679133.617    -4777470.881 6  -3476246.30321        12.000           0.500
  23844368.734    -2887146.689 5  -2106783.26321         9.250           0.125
  23722553.484    -4202494.374 6  -3274666.69821        15.500           0.531
  20553903.023    -1225818.915 6   -955183.02321        19.000           1.438
 91  5 23 18  0 45.0000000  0  5G18G 2G16G11G19
  20931797.609      990599.698 7    771894.35122        26.500           2.375
  23667600.633    -4838081.108 6  -3523475.01921        12.000           0.469
  23837051.336    -2925599.306 5  -2136746.33121         9.250           0.281
  23713848.742    -4248241.052 6  -3310313.44021        15.500           0.469
  20551638.617    -1237707.894 6   -964447.17521        19.500           1.344
 91  5 23 18  1  0.0000000  0  5G18G 2G16G11G19
  20934867.383     1006735.442 7    784467.65422        26.750           2.375
  23656075.633    -4898646.624 6  -3570668.88721        12.250           0.500
  23829757.805    -2963927.769 5  -2166612.64821         9.750           0.281
  23705162.039    -4293887.843 6  -3345882.32921        15.500           0.563
  20549388.758    -1249535.822 6   -973663.75521        19.500           1.344
 91  5 23 18  1 15.0000000  0  5G18G 2G16G11G19
  20937957.719     1022972.997 7    797120.28722        26.750           2.344
  23644559.352    -4959171.908 6  -3617831.42221        12.000           0.469
  23822485.656    -3002136.478 5  -2196385.65821        10.000           0.281
  23696492.250    -4339439.005 6  -3381376.73021        15.500           0.469
  20547148.797    -1261307.203 6   -982836.26421        19.500           1.438
 91  5 23 18  1 30.0000000  0  5G18G 2G16G11G19
  20941066.430     1039313.178 7    809852.88323        26.500           2.500
  23633048.695    -5019655.842 6  -3664961.71421        12.250           0.500
  23815236.859    -3040224.184 5  -2226064.38721        10.250           0.281
  23687843.586    -4384893.273 6  -3416795.60721        15.750           0.531
  20544919.625    -1273021.362 6   -991964.17922        19.500           1.500
 91  5 23 18  1 45.0000000  0  5G18G 2G16G11G19
  20944195.320     1055751.270 7    822661.77222        26.250           2.313
  23621544.609    -5080102.728 6  -3712063.12721        12.500           0.563
  23808014.734    -3078195.147 5  -2255652.14421        10.750           0.375
  23679212.445    -4430254.737 6  -3452142.17221        15.750           0.469
  20542699.766    -1284682.787 6  -1001051.00721        19.500           1.344
 91  5 23 18  2  0.0000000  0  5G18G 2G16G11G19
  20947342.164     1072289.521 7    835548.70522        26.250           2.250
  23610050.477    -5140509.941 6  -3759133.65521        12.500           0.375
  23800811.578    -3116046.693 5  -2285146.85621        11.000           0.250
  23670597.422    -4475520.422 6  -3487414.11521        15.750           0.563
  20540490.891    -1296288.995 6  -1010094.80421        19.500           1.313
 91  5 23 18  2 15.0000000  0  5G18G 2G16G11G19
  20950508.953     1088930.920 7    848516.01822        26.250           2.250
  23598563.195    -5200874.624 6  -3806171.02521        12.750           0.563
  23793630.344    -3153775.882 5  -2314546.20421        11.250           0.250
  23662003.070    -4520687.311 6  -3522609.07521        15.500           0.563
  20538293.719    -1307837.171 6  -1019093.37421        19.500           1.313
 91  5 23 18  2 30.0000000  0  5G18G 2G16G11G19
  20953694.953     1105674.115 7    861562.64522        26.250           2.281
  23587084.359    -5261197.592 6  -3853175.90421        12.750           0.438
  23786474.398    -3191383.962 5  -2343851.21721        11.500           0.313
  23653426.180    -4565756.077 6  -3557727.57021        15.750           0.563
  20536107.242    -1319328.668 6  -1028047.79121        19.500           1.406
 91  5 23 18  2 45.0000000  0  5G18G 2G16G11G19
  20956902.305     1122528.404 7    874695.83722        26.000           2.250
  23575613.711    -5321469.209 6  -3900140.74121        12.500           0.469
  23779341.875    -3228861.049 5  -2373054.14221        11.250           0.281
  23644871.188    -4610716.933 6  -3592761.97721        15.500           0.563
  20533932.945    -1330753.921 6  -1036950.57321        19.250           1.406
 91  5 23 18  3  0.0000000  0  5G18G 2G16G11G19
  20960130.867     1139495.022 7    887916.56622        26.250           2.375
  23564153.805    -5381687.917 6  -3947064.38021        12.500           0.500
  23772235.555    -3266205.567 5  -2402153.75421        11.750           0.344
  23636335.672    -4655568.257 6  -3627711.04921        15.750           0.438
  20531772.992    -1342111.694 6  -1045800.78221        19.000           1.344
 91  5 23 18  3 15.0000000  0  5G18G 2G16G11G19
  20963381.055     1156574.235 7    901225.02922        26.000           2.375
  23552705.398    -5441853.321 6  -3993946.48821        12.750           0.594
  23765155.094    -3303417.066 5  -2431149.72421        11.750           0.281
  23627821.273    -4700309.337 6  -3662574.20821        15.750           0.625
  20529623.430    -1353401.574 6  -1054598.08321        19.500           1.375
 91  5 23 18  3 30.0000000  0  5G18G 2G16G11G19
  20966654.172     1173775.972 7    914628.96422        26.000           2.313
  23541268.648    -5501954.964 6  -4040778.90221        12.750           0.500
  23758101.891    -3340485.144 6  -2460033.94821        12.000           0.281
  23619331.219    -4744929.555 6  -3697343.18421        16.000           0.563
  20527493.086    -1364613.198 6  -1063334.41621        18.250           1.313
 91  5 23 18  3 45.0000000  0  5G18G 2G16G11G19
  20969950.391     1191094.909 7    928124.22722        26.250           2.250
  23529841.609    -5561997.863 6  -4087565.54621        12.750           0.625
  23751074.094    -3377414.746 5  -2488810.25521        11.750           0.375
  23610862.445    -4789433.758 6  -3732021.76921        16.000           0.500
  20525370.039    -1375751.879 6  -1072013.90421        19.250           1.250
 91  5 23 18  4  0.0000000  0  5G18G 2G16G11G19
  20973267.406     1208524.947 7    941706.06122        26.250           2.250
  23518427.109    -5621987.826 6  -4134310.93721        13.000           0.656
  23744072.078    -3414211.921 5  -2517483.37621        11.500           0.313
  23602414.664    -4833827.628 6  -3766614.37221        16.000           0.500
  20523262.750    -1386823.712 6  -1080641.31421        19.750           1.406
 91  5 23 18  4 15.0000000  0  5G18G 2G16G11G19
  20976604.961     1226065.514 7    955374.01322        26.000           2.125
  23507021.594    -5681925.362 6  -4181015.46721        13.250           0.625
  23737094.828    -3450876.892 5  -2546053.46921        11.500           0.250
  23593988.273    -4878111.385 6  -3801121.17721        16.250           0.500
  20521169.148    -1397829.446 6  -1089217.22221        19.500           1.344
 91  5 23 18  4 30.0000000  0  5G18G 2G16G11G19
  20979964.813     1243721.370 7    969131.80422        26.500           2.281
  23495627.711    -5741805.276 6  -4227675.09721        13.250           0.563
  23730142.742    -3487404.597 5  -2574516.62421        11.000           0.344
  23585582.664    -4922279.633 6  -3835537.98021        16.250           0.469
  20519090.703    -1408763.916 6  -1097737.60721        19.000           1.375
 91  5 23 18  4 45.0000000  0  5G18G 2G16G11G19
  20983344.867     1261484.687 7    982973.32922        26.500           2.250
  23484242.828    -5801635.207 6  -4274295.77521        13.500           0.625
  23723218.375    -3523802.364 5  -2602878.51321        10.750           0.375
  23577198.320    -4966339.818 6  -3869870.56121        15.750           0.531
  20517020.422    -1419634.947 6  -1106208.55121        19.750           1.406
 91  5 23 18  5  0.0000000  0  5G18G 2G16G11G19
  20986743.641     1279346.264 7    996891.42522        26.750           2.250
  23472864.547    -5861423.891 6  -4320884.32321        13.500           0.594
  23716314.602    -3560078.873 5  -2631145.91021        10.750           0.313
  23568832.063    -5010300.552 6  -3904125.66221        15.750           0.469
  20514963.117    -1430451.645 6  -1114637.14521        19.750           1.438
 91  5 23 18  5 15.0000000  0  5G18G 2G16G11G19
  20990160.656     1297300.242 7   1010881.52222        26.750           2.281
  23461493.680    -5921176.853 6  -4367445.01821        13.500           0.500
  23709432.406    -3596240.003 5  -2659323.39921        10.250           0.219
  23560484.859    -5054167.230 6  -3938307.47421        15.750           0.563
  20512912.117    -1441219.668 6  -1123027.81021        19.750           1.438
 91  5 23 18  5 30.0000000  0  5G18G 2G16G11G19
  20993596.844     1315354.715 7   1024949.93122        26.500           2.281
  23450132.203    -5980885.986 6  -4413971.56621        13.500           0.531
  23702575.945    -3632277.710 5  -2687404.73821        10.500           0.281
  23552157.313    -5097931.456 6  -3972409.44321        16.000           0.563
  20510873.086    -1451931.105 7  -1131374.37321        20.000           1.313
 91  5 23 18  5 45.0000000  0  5G18G 2G16G11G19
  20997050.992     1333509.044 7   1039096.15022        26.500           2.219
  23438778.039    -6040551.471 6  -4460464.12021        13.500           0.625
  23695740.969    -3668191.961 5  -2715389.84921        10.250           0.313
  23543848.234    -5141593.271 6  -4006431.62721        16.000           0.531
  20508847.094    -1462586.234 6  -1139677.06321        19.750           1.313
 91  5 23 18  6  0.0000000  0  5G18G 2G16G11G19
  21000524.891     1351762.740 7   1053319.79722        26.500           2.250
  23427432.047    -6100173.651 6  -4506922.90821        13.500           0.625
  23688929.922    -3703982.919 5  -2743278.89021        10.500           0.281
  23535560.023    -5185152.627 6  -4040373.96621        15.750           0.563
  20506829.750    -1473185.428 7  -1147936.16321        20.250           1.344
 91  5 23 18  6 15.0000000  0  5G18G 2G16G11G19
  21004018.430     1370124.473 7   1067627.62822        26.500           2.219
  23416095.477    -6159743.481 6  -4553340.91221        13.750           0.656
  23682143.320    -3739641.575 5  -2771064.86521        10.500           0.313
  23527291.563    -5228600.546 6  -4074229.47021        16.000           0.563
  20504825.195    -1483720.076 6  -1156144.96021        19.750           1.375
 91  5 23 18  6 30.0000000  0  5G18G 2G16G11G19
  21007533.945     1388592.823 7   1082018.53722        26.750           2.250
  23404771.695    -6219261.867 6  -4599718.82221        13.750           0.594
  23675383.539    -3775169.308 5  -2798748.79721        11.000           0.375
  23519045.148    -5271937.882 6  -4107998.81021        15.750           0.500
  20502835.023    -1494191.368 6  -1164304.39421        19.000           1.375
 91  5 23 18  6 45.0000000  0  5G18G 2G16G11G19
  21011067.555     1407164.725 7   1096490.13522        26.250           2.250
  23393452.797    -6278731.941 6  -4646059.08421        13.750           0.719
  23668647.125    -3810569.133 5  -2826333.06821        11.250           0.313
  23510818.609    -5315167.348 6  -4141684.08221        15.500           0.563
  20500851.211    -1504602.489 7  -1172416.96421        20.000           1.438
 91  5 23 18  7  0.0000000  0  5G18G 2G16G11G19
  21014620.891     1425839.980 7   1111042.26522        26.000           2.313
  23382145.945    -6338153.219 6  -4692361.32221        14.000           0.750
  23661934.742    -3845840.300 5  -2853817.09121        11.750           0.313
  23502612.023    -5358288.456 6  -4175284.93321        15.750           0.594
  20498879.695    -1514953.250 7  -1180482.48121        20.250           1.375
 91  5 23 18  7 15.0000000  0  5G18G 2G16G11G19
  21018194.125     1444617.150 7   1125673.80622        26.000           2.250
  23370848.391    -6397527.200 6  -4738626.71621        13.750           0.656
  23655247.742    -3880984.293 6  -2881202.00921        12.250           0.219
  23494427.398    -5401302.328 6  -4208802.21621        15.750           0.563
  20496922.898    -1525245.165 6  -1188502.15421        19.750           1.344
 91  5 23 18  7 30.0000000  0  5G18G 2G16G11G19
  21021788.617     1463506.791 7   1140392.99522        26.000           2.344
  23359560.828    -6456842.897 6  -4784846.68121        13.750           0.531
  23648586.609    -3915990.173 6  -2908479.32321        12.500           0.219
  23486264.156    -5444197.865 6  -4242227.29421        15.500           0.594
  20494978.570    -1535467.380 6  -1196467.51621        19.500           1.313
 91  5 23 18  7 45.0000000  0  5G18G 2G16G11G19
  21025403.063     1482499.710 7   1155192.65822        26.000           2.188
  23348282.555    -6516109.231 6  -4831028.18021        13.750           0.625
  23641950.039    -3950867.129 6  -2935656.14521        13.000           0.250
  23478121.945    -5486983.938 6  -4275567.07121        15.500           0.656
  20493043.750    -1545629.065 6  -1204385.73121        19.750           1.406
 91  5 23 18  8  0.0000000  0  5G18G 2G16G11G19
  21029035.625     1501591.521 7   1170069.37922        26.000           2.250
  23337012.914    -6575330.372 6  -4877174.46521        13.750           0.719
  23635336.789    -3985619.058 6  -2962735.55221        12.750           0.375
  23470000.219    -5529664.339 6  -4308824.51621        15.500           0.625
  20491121.719    -1555734.599 6  -1212260.19321        19.750           1.375
 91  5 23 18  8 14.9990000  0  5G18G 2G16G11G19
  21032690.050     1520790.442 7   1185029.55522        26.000           2.281
  23325752.659    -6634492.361 6  -4923274.66721        14.000           0.688
  23628748.597    -4020233.723 6  -2989708.03421        12.750           0.313
  23461900.980    -5572226.224 6  -4341989.60221        15.500           0.594
  20489210.159    -1565773.599 6  -1220082.80621        19.500           1.438
 91  5 23 18  8 29.9990000  0  5G18G 2G16G11G19
  21036363.003     1540093.520 7   1200070.89622        26.000           2.188
  23314504.659    -6693607.879 6  -4969338.65421        13.750           0.594
  23622186.940    -4054720.582 6  -3016580.88421        13.000           0.344
  23453823.144    -5614680.007 6  -4375070.44821        15.750           0.656
  20487312.190    -1575752.363 6  -1227858.48321        19.250           1.313
 91  5 23 18  8 44.9990000  0  5G18G 2G16G11G19
  21040054.448     1559492.753 7   1215187.16322        26.000           2.125
  23303263.831    -6752680.087 6  -5015368.88621        14.000           0.750
  23615647.112    -4089084.169 6  -3043357.70021        12.750           0.344
  23445764.042    -5657029.465 6  -4408070.01521        15.750           0.594
  20485423.440    -1585677.410 6  -1235592.29621        19.500           1.406
 91  5 23 18  8 59.9990000  0  5G18G 2G16G11G19
  21043763.339     1578983.261 7   1230374.55722        26.250           2.250
  23292030.097    -6811713.509 6  -5061368.89521        14.000           0.719
  23609132.261    -4123329.065 6  -3070042.02421        12.750           0.375
  23437724.331    -5699278.967 6  -4440991.68221        15.500           0.719
  20483545.862    -1595553.423 6  -1243287.89221        19.000           1.344
 91  5 23 18  9 14.9990000  0  5G18G 2G16G11G19
  21047489.519     1598566.566 7   1245634.26422        26.000           2.313
  23280804.440    -6870706.230 6  -5107337.20121        14.500           0.813
  23602638.097    -4157453.504 6  -3096632.48221        12.500           0.406
  23429703.230    -5741426.494 6  -4473833.89021        15.250           0.656
  20481674.003    -1605378.714 6  -1250943.96121        19.750           1.344
 91  5 23 18  9 29.9990000  0  5G18G 2G16G11G19
  21051235.237     1618248.410 7   1260970.74622        26.000           2.281
  23269587.526    -6929652.238 6  -5153269.09521        14.500           0.813
  23596168.222    -4191451.473 6  -3123124.38921        12.250           0.438
  23421704.526    -5783465.621 6  -4506591.63021        15.250           0.750
  20479814.230    -1615147.412 7  -1258555.93621        20.000           1.406
 91  5 23 18  9 44.9990000  0  5G18G 2G16G11G19
  21054998.987     1638025.657 7   1276381.56822        26.000           2.188
  23258379.683    -6988554.166 6  -5199166.65121        14.750           0.781
  23589721.323    -4225325.589 6  -3149519.78321        12.000           0.375
  23413723.847    -5825399.119 6  -4539267.05821        15.250           0.625
  20477966.581    -1624862.465 7  -1266126.10321        20.000           1.469
 91  5 23 18  9 59.9990000  0  5G18G 2G16G11G19
  21058781.026     1657899.767 7   1291867.87222        26.000           2.156
  23247179.526    -7047410.549 6  -5245028.70621        14.750           0.719
  23583299.956    -4259074.502 5  -3175817.62721        11.500           0.344
  23405764.237    -5867225.296 6  -4571858.86921        15.250           0.625
  20476128.644    -1634522.591 6  -1273653.47321        19.750           1.344
 91  5 23 18 10 14.9990000  0  5G18G 2G16G11G19
  21062579.323     1677862.638 7   1307423.33522        25.750           2.219
  23235985.456    -7106228.891 6  -5290861.12921        14.750           0.719
  23576899.987    -4292705.871 5  -3202023.87421        11.250           0.344
  23397823.815    -5908951.584 6  -4604372.84021        15.250           0.531
  20474299.315    -1644135.501 7  -1281144.05121        20.000           1.375
 91  5 23 18 10 29.9990000  0  5G18G 2G16G11G19
  21066396.300     1697922.993 7   1323054.76222        26.000           2.219
  23224801.815    -7165000.224 6  -5336656.91421        14.750           0.688
  23570524.480    -4326210.724 5  -3228131.53821        10.750           0.375
  23389905.222    -5950568.815 6  -4636801.83021        15.500           0.688
  20472480.667    -1653692.301 7  -1288590.90721        20.000           1.344
 91  5 23 18 10 44.9990000  0  6G18G 2G16G11G19G 6
  21070231.542     1718071.380 7   1338754.78522        26.000           2.156
  23213625.737    -7223733.593 6  -5382423.12021        14.750           0.719
  23564171.034    -4359598.077 5  -3254147.64221        11.000           0.406
  23382005.198    -5992085.830 6  -4669152.73421        15.500           0.625
  20470671.769    -1663202.258 7  -1296001.25521        20.250           1.344
  24317418.628          -0.52014                         6.250
 91  5 23 18 10 59.9990000  0  6G18G 2G16G11G19G 6
  21074082.440     1738307.976 7   1354523.54022        25.750           2.156
  23202456.433    -7282428.800 6  -5428159.59021        14.500           0.594
  23557839.058    -4392867.545 5  -3280071.90021        11.000           0.313
  23374123.347    -6033502.127 6  -4701425.15821        15.750           0.625
  20468871.737    -1672665.277 6  -1303375.03721        19.500           1.344
  24307765.964      -50724.541 4                         6.500
 91  5 23 18 11 14.9990000  0  6G18G 2G16G11G19G 6
  21077950.003     1758632.695 7   1370360.97122        25.500           2.188
  23191294.362    -7341085.525 6  -5473866.07821        14.500           0.594
  23551530.886    -4426018.759 5  -3305903.98121        11.000           0.313
  23366262.542    -6074817.283 6  -4733618.77321        16.250           0.625
  20467077.636    -1682081.319 7  -1310712.20521        20.500           1.375
  24298116.800     -101440.429 4                         6.750
 91  5 23 18 11 29.9990000  0  6G18G 2G16G11G19G 6
  21081835.730     1779053.158 7   1386273.00622        25.500           2.125
  23180140.651    -7399696.014 6  -5519536.53421        15.000           0.656
  23545247.019    -4459044.031 5  -3331637.97521        11.250           0.438
  23358420.620    -6116023.183 6  -4765727.25021        16.500           0.719
  20465295.878    -1691442.697 7  -1318006.78821        20.500           1.375
  24288469.011     -152140.514 4                         6.750
 91  5 23 18 11 44.9990000  0  6G18G 2G16G11G19G 6
  21085737.675     1799559.339 7   1402251.83322        25.250           2.188
  23168994.026    -7458269.671 6  -5565178.29421        15.000           0.656
  23538985.042    -4491952.550 5  -3357280.93921        11.750           0.375
  23350598.784    -6157129.182 6  -4797757.87621        16.500           0.656
  20463524.222    -1700758.969 7  -1325266.23021        20.500           1.406
  24278824.073     -202834.374 4                         6.750
 91  5 23 18 11 59.9990000  0  6G18G 2G16G11G19G 6
  21089658.792     1820163.678 7   1418307.14322        25.250           1.969
  23157857.706    -7516794.018 6  -5610781.61921        15.250           0.625
  23532747.222    -4524732.240 6  -3382823.56121        12.250           0.344
  23342797.730    -6198122.777 6  -4829700.92421        16.250           0.688
  20461762.456    -1710017.871 7  -1332480.96921        20.750           1.375
  24269180.331     -253509.866 4        -0.27431         6.750           0.375
 91  5 23 18 12 14.9990000  0  6G18G 2G16G11G19G 6
  21093599.026     1840869.026 7   1434441.15822        25.250           2.156
  23146731.542    -7575265.605 6  -5656343.84021        15.500           0.594
  23526535.526    -4557379.799 6  -3408263.20521        12.750           0.438
  23335019.206    -6239000.541 6  -4861553.70421        16.000           0.625
  20460011.308    -1719216.247 7  -1339648.53321        20.500           1.375
  24259539.542     -304163.836 4    -39470.86521         6.500           0.344
 91  5 23 18 12 29.9990000  0  6G18G 2G16G11G19G 6
  21097558.323     1861672.439 7   1450651.58922        25.500           2.063
  23135614.183    -7633687.161 6  -5701867.08121        15.250           0.625
  23520347.175    -4589897.952 6  -3433602.01521        12.750           0.344
  23327260.894    -6279764.830 6  -4893318.07321        16.000           0.781
  20458272.198    -1728356.890 7  -1346771.10721        20.500           1.344
  24249906.089     -354798.987 4    -78926.77721         6.250           0.281
 91  5 23 18 12 44.9990000  0  6G18G 2G16G11G19G 6
  21101536.933     1882582.078 7   1466944.79022        25.500           2.156
  23124506.636    -7692050.471 6  -5747344.94421        15.250           0.563
  23514184.886    -4622278.175 6  -3458833.35521        13.000           0.344
  23319526.761    -6320407.179 6  -4924987.42421        15.500           0.750
  20456545.472    -1737431.735 7  -1353842.40521        20.750           1.406
  24240273.917     -405407.340 4   -118361.81721         6.250           0.281
 91  5 23 18 12 59.9990000  0  6G18G 2G16G11G19G 6
  21105538.105     1903610.550 7   1483330.59622        25.500           2.188
  23113414.269    -7750342.595 6  -5792767.31621        15.250           0.563
  23508051.019    -4654507.298 6  -3483946.95721        13.000           0.344
  23311818.769    -6360914.434 6  -4956551.49921        15.250           0.719
  20454835.190    -1746427.918 7  -1360852.41621        20.250           1.375
  24230651.776     -455975.916 4   -157765.86721         6.250           0.344
 91  5 23 18 13 14.9990000  0  6G18G 2G16G11G19G 6
  21109561.948     1924754.934 7   1499806.72322        25.000           2.063
  23102334.948    -7808565.790 6  -5838135.99721        15.750           0.625
  23501947.175    -4686588.178 6  -3508945.04121        12.750           0.281
  23304135.698    -6401288.771 6  -4988012.00521        15.500           0.781
  20453136.245    -1755348.055 7  -1367803.16421        20.750           1.406
  24221034.972     -506507.470 4   -197141.05021         6.500           0.281
 91  5 23 18 13 29.9990000  0  6G18G 2G16G11G19G 6
  21113607.261     1946015.617 7   1516373.47122        24.750           2.156
  23091269.542    -7866719.228 6  -5883450.31521        15.750           0.625
  23495870.284    -4718520.418 6  -3533827.29821        12.750           0.313
  23296478.183    -6441529.405 6  -5019368.33221        15.250           0.688
  20451453.151    -1764191.585 7  -1374694.22621        21.000           1.406
  24211426.198     -557001.318 4   -236486.87521         6.500           0.344
 91  5 23 18 13 44.9990000  0  6G18G 2G16G11G19G 6
  21117672.651     1967377.245 7   1533018.87822        25.250           2.188
  23080213.245    -7924818.409 6  -5928722.34421        15.500           0.719
  23489818.206    -4750318.972 6  -3558605.39521        12.500           0.313
  23288843.847    -6481651.334 6  -5050632.14621        15.500           0.813
  20449781.308    -1772974.171 7  -1381537.80921        20.750           1.344
  24201822.667     -607472.942 4   -275815.37121         6.750           0.250
 91  5 23 18 13 59.9990000  0  6G18G 2G16G11G19G 6
  21121757.730     1988843.739 7   1549745.99422        25.500           2.031
  23069168.128    -7982859.122 6  -5973948.82321        15.500           0.656
  23483795.698    -4781979.372 6  -3583275.83621        12.500           0.344
  23281231.925    -6521650.177 6  -5081800.05821        15.250           0.688
  20448122.792    -1781691.516 7  -1388330.56021        20.750           1.344
  24192221.987     -657918.192 4   -315123.31221         6.750           0.219
 91  5 23 18 14 14.9990000  0  6G18G 2G16G11G19G 6
  21125860.597     2010404.634 7   1566546.67422        25.500           2.000
  23058132.644    -8040851.570 6  -6019137.69221        15.500           0.563
  23477793.526    -4813512.115 6  -3607846.80721        12.250           0.406
  23273642.480    -6561536.146 6  -5112880.01321        15.250           0.781
  20446473.933    -1790354.247 7  -1395080.75421        20.750           1.406
  24182624.745     -708347.685 4   -354418.97821         6.750           0.188
 91  5 23 18 14 29.9990000  0  6G18G 2G16G11G19G 6
  21129981.894     2032058.012 7   1583419.41822        25.750           1.969
  23047105.401    -8098796.970 6  -6064289.89721        15.500           0.719
  23471817.253    -4844918.496 6  -3632319.30521        12.250           0.375
  23266073.581    -6601310.406 6  -5143872.92621        15.250           0.719
  20444835.581    -1798963.720 7  -1401789.45821        20.750           1.344
  24173033.058     -758762.951 4   -393703.57221         6.500           0.250
 91  5 23 18 14 44.9990000  0  6G18G 2G16G11G19G 6
  21134119.581     2053807.813 7   1600367.29822        25.750           1.969
  23036089.245    -8156691.457 6  -6109402.43821        15.500           0.688
  23465865.901    -4876194.437 6  -3656690.15721        12.000           0.375
  23258526.081    -6640968.748 6  -5174775.51521        15.000           0.594
  20443210.034    -1807516.243 7  -1408453.78521        21.000           1.406
  24163442.737     -809160.031 4   -432973.97721         6.750           0.219
 91  5 23 18 14 59.9990000  0  6G18G 2G16G11G19G 6
  21138276.034     2075645.314 7   1617383.52022        26.000           2.031
  23025080.378    -8214543.213 6  -6154481.68221        15.250           0.563
  23459936.925    -4907348.494 5  -3680966.04421        11.750           0.313
  23251000.456    -6680519.208 6  -5205594.03921        15.000           0.563
  20441590.292    -1816020.153 7  -1415080.22121        21.000           1.438
  24153852.089     -859547.425 4   -472236.82221         6.750           0.188
 91  5 23 18 15 14.9990000  0  6G18G 2G16G11G19G 6
  21142449.019     2097580.008 7   1634475.47522        25.750           2.063
  23014080.386    -8272342.457 6  -6199520.01521        15.000           0.688
  23454033.776    -4938370.872 5  -3705139.30921        11.500           0.375
  23243495.870    -6719951.824 6  -5236320.73121        15.000           0.625
  20439983.355    -1824465.700 7  -1421661.18521        21.000           1.406
  24144268.456     -909915.438 4   -511484.60821         6.750           0.313
 91  5 23 18 15 29.9990000  0  6G18G 2G16G11G19G 6
  21146643.300     2119618.463 7   1651648.28622        25.750           2.094
  23003094.206    -8330082.363 6  -6244512.10021        15.000           0.719
  23448155.769    -4969254.540 5  -3729204.51921        11.250           0.406
  23236016.972    -6759259.580 6  -5266950.14321        15.000           0.719
  20438390.769    -1832846.292 7  -1428191.52921        21.000           1.375
  24134688.901     -960257.393 4   -550712.02821         6.750           0.188
 91  5 23 18 15 44.9990000  0  6G18G 2G16G11G19G 6
  21150856.214     2141759.341 7   1668900.90722        25.750           2.188
  22992118.034    -8387763.969 6  -6289458.75521        15.000           0.719
  23442306.300    -5000000.376 5  -3753162.29821        11.250           0.406
  23228559.769    -6798443.383 6  -5297482.96421        15.250           0.625
  20436806.144    -1841163.179 7  -1434672.23521        21.250           1.406
  24125114.628    -1010574.607 4   -589920.21621         6.750           0.219
 91  5 23 18 15 59.9990000  0  6G18G 2G16G11G19G 6
  21155089.769     2164003.332 7   1686233.85622        25.500           2.031
  22981152.128    -8445386.076 6  -6334359.04721        15.250           0.875
  23436481.237    -5030607.701 5  -3777012.16021        11.250           0.375
  23221127.933    -6837502.030 6  -5327918.26721        15.250           0.719
  20435238.464    -1849415.339 7  -1441102.50321        20.250           1.438
  24115543.933    -1060866.106 4   -629108.37221         7.000           0.250
 91  5 23 18 16 14.9990000  0  6G18G 2G16G11G19G 6
  21159341.487     2186346.765 7   1703644.30422        25.750           2.094
  22970197.933    -8502952.126 6  -6379215.66121        15.250           0.750
  23430683.940    -5061079.901 5  -3800756.71521        11.000           0.469
  23213717.972    -6876438.770 6  -5358258.56321        15.250           0.750
  20433677.292    -1857606.324 7  -1447485.10521        21.250           1.469
  24105979.058    -1111135.451 4   -668279.23221         7.250           0.188
 91  5 23 18 16 29.9990000  0  6G18G 2G16G11G19G 6
  21163611.847     2208787.856 7   1721130.84922        25.500           2.000
  22959254.292    -8560463.624 6  -6424029.77021        15.000           0.844
  23424909.151    -5091418.666 5  -3824397.30821        11.000           0.406
  23206331.120    -6915254.933 6  -5388504.91021        15.250           0.625
  20432128.745    -1865737.803 7  -1453821.33421        22.000           1.375
  24096416.784    -1161384.271 5   -707434.09821         7.500           0.250
 91  5 23 18 16 44.9990000  0  6G18G 2G16G11G19G 6
  21167899.901     2231320.991 7   1738689.12322        25.750           2.000
  22948318.659    -8617926.018 6  -6468805.61921        14.750           0.813
  23419160.073    -5121629.141 5  -3847937.91921        10.750           0.469
  23198966.230    -6953955.725 6  -5418661.35121        15.500           0.719
  20430593.401    -1873815.395 7  -1460115.57521        21.750           1.313
  24086857.620    -1211618.072 5   -746577.28521         7.500           0.188
 91  5 23 18 16 59.9990000  0  6G18G 2G16G11G19G 6
  21172205.675     2253949.465 7   1756321.68122        25.500           2.063
  22937393.855    -8675335.539 6  -6513540.25721        14.750           0.719
  23413437.401    -5151707.972 5  -3871375.96821        11.000           0.438
  23191624.855    -6992537.259 6  -5448724.88121        15.500           0.688
  20429068.347    -1881835.577 7  -1466365.07321        21.000           1.406
  24077299.667    -1261833.416 5   -785706.05721         7.500           0.219
 91  5 23 18 17 14.9990000  0  6G18G 2G16G11G19G 6
  21176529.269     2276673.685 7   1774028.84822        25.250           1.938
  22926479.167    -8732691.639 6  -6558233.26721        14.750           0.844
  23407738.276    -5181654.160 5  -3894710.64921        11.500           0.500
  23184306.847    -7030998.692 6  -5478694.81821        16.000           0.688
  20427551.386    -1889797.773 7  -1472569.38121        21.750           1.438
  24067749.784    -1312029.873 4   -824820.13821         7.250           0.188
 91  5 23 18 17 29.9990000  0  6G18G 2G16G11G19G 6
  21180872.144     2299491.323 7   1791808.81222        25.500           2.094
  22915573.753    -8789996.283 6  -6602886.19521        14.750           0.875
  23402064.448    -5211469.613 5  -3917943.45521        11.750           0.469
  23177009.972    -7069341.981 6  -5508572.70021        16.000           0.719
  20426048.323    -1897704.149 7  -1478730.18521        21.000           1.313
  24058200.737    -1362209.468 4   -863921.10021         7.000           0.250
 91  5 23 18 17 44.9990000  0  6G18G 2G16G11G19G 6
  21185233.253     2322411.303 7   1809668.51822        25.500           1.938
  22904682.034    -8847239.889 6  -6647491.54821        15.000           0.875
  23396418.230    -5241145.149 6  -3941067.23521        12.000           0.406
  23169737.050    -7107557.539 6  -5538351.04521        16.250           0.656
  20424556.065    -1905545.532 7  -1484840.34621        21.250           1.344
  24048657.378    -1412363.126 4   -903001.80421         7.000           0.250
 91  5 23 18 17 59.9990000  0  6G18G 2G16G11G19G 6
  21189612.542     2345423.650 7   1827600.20222        25.500           2.000
  22893797.495    -8904432.280 6  -6692057.00521        15.000           0.969
  23390794.972    -5270690.876 6  -3964089.86621        12.250           0.469
  23162487.628    -7145655.003 6  -5568037.36321        16.250           0.719
  20423073.230    -1913331.888 7  -1490907.62921        21.500           1.375
  24039115.042    -1462500.792 4   -942070.08921         7.250           0.281
 91  5 23 18 18 14.9990000  0  6G18G 2G16G11G19G 6
  21194009.190     2368528.703 7   1845604.12122        25.250           2.000
  22882924.995    -8961572.863 6  -6736582.08721        15.250           0.938
  23385197.245    -5300105.931 6  -3987010.68421        12.250           0.438
  23155260.792    -7183633.421 6  -5597630.92921        16.250           0.594
  20421602.284    -1921062.550 7  -1496931.51421        21.250           1.406
  24029578.370    -1512621.742 5   -981125.31021         7.750           0.156
 91  5 23 18 18 29.9990000  0  6G18G 2G16G11G19G 6
  21198424.776     2391731.134 7   1863683.92022        25.250           2.031
  22872061.980    -9018656.659 6  -6781062.91921        15.250           0.938
  23379627.175    -5329385.362 6  -4009825.81721        12.000           0.344
  23148057.800    -7221487.796 6  -5627127.82521        15.750           0.688
  20420142.230    -1928732.933 7  -1502908.42621        21.750           1.406
  24020043.448    -1562721.464 5  -1020164.02621         8.000           0.188
 91  5 23 18 18 44.9990000  0  6G18G 2G16G11G19G 6
  21202859.198     2415033.663 7   1881841.72222        25.750           2.031
  22861210.487    -9075680.568 6  -6825497.08921        15.500           0.875
  23374079.980    -5358526.285 6  -4032533.01921        12.250           0.500
  23140878.355    -7259214.868 6  -5656525.53521        15.500           0.656
  20418694.855    -1936340.042 7  -1508836.03121        21.000           1.406
  24010515.792    -1612796.944 5  -1059183.83321         8.000           0.219
 91  5 23 18 18 59.9990000  0  6G18G 2G16G11G19G 6
  21207314.034     2438443.456 7   1900083.10322        25.500           2.000
  22850372.659    -9132637.276 6  -6869878.89721        15.750           0.906
  23368563.753    -5387521.211 6  -4055126.46221        12.000           0.438
  23133724.269    -7296807.078 6  -5685818.15521        15.250           0.719
  20417263.394    -1943876.493 7  -1514708.56921        20.500           1.344
  24000992.565    -1662840.741 5  -1098178.97021         8.000           0.250
 91  5 23 18 19 14.9990000  0  6G18G 2G16G11G19G 6
  21211788.956     2461959.982 7   1918407.65222        25.250           2.094
  22839547.050    -9189526.725 6  -6914208.28021        16.000           0.969
  23363072.651    -5416370.214 5  -4077606.20021        11.750           0.438
  23126596.784    -7334264.357 6  -5715005.62921        15.250           0.656
  20415839.823    -1951342.538 7  -1520526.25721        21.500           1.344
  23991475.206    -1712853.219 5  -1137149.67321         7.750           0.281
 91  5 23 18 19 29.9990000  0  6G18G 2G16G11G19G 6
  21216283.808     2485576.336 7   1936809.98722        25.500           1.969
  22828732.253    -9246355.913 6  -6958490.72021        16.000           0.938
  23357608.394    -5445080.304 5  -4099977.69221        11.500           0.500
  23119493.042    -7371593.405 6  -5744093.19321        15.250           0.781
  20414429.862    -1958745.233 7  -1526294.57921        22.000           1.344
  23981963.495    -1762841.528 5  -1176101.56621         7.750           0.281
 91  5 23 18 19 44.9990000  0  6G18G 2G16G11G19G 6
  21220797.558     2509299.249 7   1955295.35422        25.250           2.063
  22817930.675    -9303117.561 6  -7002720.53321        16.500           0.844
  23352174.433    -5473644.219 5  -4122235.28021        11.750           0.500
  23112416.034    -7408786.858 6  -5773075.09221        15.250           0.656
  20413035.394    -1966077.527 7  -1532008.04522        21.000           1.531
  23972456.112    -1812798.555 5  -1215029.08321         7.750           0.219
 91  5 23 18 19 59.9990000  0  6G18G 2G16G11G19G 6
  21225329.870     2533119.957 7   1973856.92722        25.250           2.031
  22807141.628    -9359820.052 6  -7046904.24321        16.500           0.844
  23346764.456    -5502070.504 5  -4144385.61321        11.750           0.406
  23105361.690    -7445852.894 6  -5801957.70321        15.750           0.813
  20411653.331    -1973348.059 7  -1537673.39022        21.000           1.563
  23962954.026    -1862732.790 5  -1253938.82521         7.500           0.219
 91  5 23 18 20 14.9990000  0  6G18G 2G16G11G19G 6
  21229882.495     2557040.065 7   1992495.95222        25.250           2.094
  22796362.245    -9416461.302 6  -7091040.24421        16.750           0.938
  23341383.753    -5530357.221 5  -4166427.20521        11.750           0.406
  23098332.675    -7482789.576 6  -5830739.52721        16.000           0.781
  20410281.433    -1980554.919 7  -1543289.11521        20.750           1.406
  23953456.347    -1912642.524 5  -1292829.47721         8.000           0.281
 91  5 23 18 20 29.9990000  0  6G18G 2G16G11G19G 6
  21234451.112     2581051.229 7   2011205.93322        25.250           2.125
  22785594.894    -9473049.805 6  -7135135.13221        17.000           0.906
  23336024.472    -5558512.668 5  -4188366.50921        11.500           0.438
  23091328.815    -7519605.150 6  -5859426.97521        16.000           0.688
  20408919.511    -1987706.730 7  -1548861.94922        21.000           1.500
  23943960.347    -1962536.289 5  -1331707.70321         7.500           0.188
 91  5 23 18 20 44.9990000  0  6G18G 2G16G11G19G 6
  21239039.097     2605156.270 7   2029989.06522        25.500           2.063
  22774835.565    -9529582.227 6  -7179186.32521        17.000           0.906
  23330691.753    -5586533.616 5  -4210200.99921        11.500           0.469
  23084345.276    -7556295.947 6  -5888017.19221        16.000           0.750
  20407569.769    -1994800.207 7  -1554389.32922        20.750           1.531
  23934471.245    -2012410.819 5  -1370570.93221         7.750           0.188
 91  5 23 18 20 59.9990000  0  6G18G 2G16G11G19G 6
  21243644.565     2629361.272 7   2048850.08322        25.250           1.969
  22764090.261    -9586052.035 6  -7223188.73021        17.000           0.906
  23325387.308    -5614413.854 5  -4231925.84721        11.250           0.375
  23077387.800    -7592855.332 6  -5916505.02021        15.750           0.656
  20406232.917    -2001828.962 7  -1559866.28321        20.750           1.469
  23924985.245    -2062259.788 5  -1409414.25121         7.500           0.156
 91  5 23 18 21 14.9990000  0  6G18G 2G16G11G19G 6
  21248268.722     2653664.576 7   2067787.70122        25.250           1.969
  22753355.987    -9642460.645 6  -7267143.45121        17.250           0.969
  23320106.745    -5642154.409 5  -4253541.85721        11.250           0.313
  23070455.308    -7629284.637 6  -5944891.47221        16.000           0.719
  20404907.097    -2008794.672 7  -1565294.10921        21.000           1.375
  23915502.175    -2112084.820 4  -1448238.91921         7.250           0.188
 91  5 23 18 21 29.9990000  0  6G18G 2G16G11G19G 6
  21252911.683     2678058.113 7   2086795.62622        25.500           2.031
  22742631.222    -9698815.794 6  -7311056.50421        17.000           0.906
  23314854.565    -5669763.258 5  -4275055.23721        11.250           0.375
  23063547.167    -7665591.722 6  -5973182.69621        16.000           0.688
  20403594.440    -2015705.470 7  -1570679.15321        20.250           1.406
  23906023.605    -2161894.017 4  -1487051.24121         6.750           0.188
 91  5 23 18 21 44.9990000  0  6G18G 2G16G11G19G 6
  21257571.550     2702550.952 7   2105880.92822        25.500           2.094
  22731919.175    -9755108.063 6  -7354920.56821        17.000           0.906
  23309628.034    -5697231.239 5  -4296458.85221        11.500           0.344
  23056662.987    -7701766.704 6  -6001370.98021        16.000           0.594
  20402289.605    -2022551.918 7  -1576014.05722        21.000           1.531
  23896551.081    -2211677.917 4  -1525843.83021         6.750           0.281
 91  5 23 18 21 59.9990000  0  6G18G 2G16G11G19G 6
  21262252.550     2727143.109 7   2125043.62522        25.500           2.031
  22721219.823    -9811337.206 6  -7398735.44121        17.250           0.844
  23304427.894    -5724557.944 5  -4317752.37821        11.750           0.344
  23049803.636    -7737809.198 6  -6029456.03121        16.000           0.625
  20400999.175    -2029333.789 7  -1581298.63722        20.750           1.531
  23887081.644    -2261436.406 4  -1564616.61321         6.750           0.250
 91  5 23 18 22 14.9990000  0  6G18G 2G16G11G19G 6
  21266951.394     2751839.656 7   2144287.66022        25.250           2.094
  22710531.855    -9867497.928 6  -7442496.99821        17.000           0.906
  23299254.909    -5751738.197 6  -4338931.78721        12.000           0.375
  23042971.237    -7773713.736 6  -6057433.58821        16.250           0.719
  20399721.526    -2036045.888 7  -1586528.84921        21.000           1.469
  23877617.550    -2311164.294 4  -1603365.57921         6.750           0.406
 91  5 23 18 22 29.9990000  0  6G18G 2G16G11G19G 6
  21271669.526     2776632.756 7   2163606.94022        25.250           2.000
  22699857.175    -9923597.445 6  -7486210.86421        17.000           0.844
  23294109.292    -5778779.354 6  -4360002.79421        12.250           0.469
  23036164.581    -7809487.420 6  -6085309.16721        16.750           0.594
  20398457.534    -2042695.678 7  -1591710.51422        20.500           1.531
  23868160.565    -2360869.065 4  -1642096.52121         7.000           0.188
 91  5 23 18 22 44.9990000  0  6G18G 2G16G11G19G 6
  21276408.644     2801534.437 7   2183010.82622        25.000           1.969
  22689196.417    -9979623.587 6  -7529867.55921        17.500           0.875
  23288992.472    -5805669.241 6  -4380955.95421        12.500           0.438
  23029384.573    -7845118.022 6  -6113073.24721        16.750           0.625
  20397204.894    -2049271.117 7  -1596834.23422        21.000           1.500
  23858708.753    -2410538.667 4  -1680800.05121         7.000           0.250
 91  5 23 18 22 59.9990000  0  6G18G 2G16G11G19G 6
  21281166.972     2826541.963 7   2202497.18822        24.750           2.031
  22678547.745   -10035579.098 6  -7573469.20821        17.250           0.906
  23283904.386    -5832410.513 6  -4401793.28221        12.500           0.375
  23022631.261    -7880608.023 6  -6140727.78121        16.750           0.594
  20395967.870    -2055774.838 7  -1601902.07722        20.750           1.531
  23849263.198    -2460175.839 4  -1719478.31621         7.000           0.250
 91  5 23 18 23 14.9990000  0  6G18G 2G16G11G19G 6
  21285944.526     2851647.737 7   2222060.11222        24.750           2.031
  22667911.503   -10091470.935 6  -7617021.24321        17.250           0.844
  23278843.823    -5859010.651 6  -4422520.66321        12.500           0.469
  23015902.956    -7915964.450 6  -6168278.23021        16.750           0.625
  20394741.019    -2062214.261 7  -1606919.82022        20.750           1.500
  23839820.206    -2509788.018 4  -1758137.11721         7.250           0.219
 91  5 23 18 23 29.9990000  0  6G18G 2G16G11G19G 6
  21290741.769     2876858.336 7   2241704.71722        24.750           1.969
  22657288.495   -10147292.075 6  -7660518.18821        17.250           0.938
  23273807.683    -5885462.289 6  -4443132.32221        12.500           0.313
  23009200.995    -7951180.132 6  -6195719.01021        16.500           0.563
  20393533.058    -2068582.577 7  -1611882.14822        20.000           1.500
  23830385.159    -2559368.235 4  -1796771.01121         7.000           0.250
 91  5 23 18 23 44.9990000  0  6G18G 2G16G11G19G 6
  21295559.323     2902172.256 7   2261429.83022        24.500           2.000
  22646679.909   -10203043.452 6  -7703960.78121        17.250           0.938
  23268802.784    -5911766.407 6  -4463629.02521        12.250           0.438
  23002526.230    -7986255.848 6  -6223050.71821        16.750           0.656
  20392330.159    -2074880.821 7  -1616789.87822        21.000           1.594
  23820958.706    -2608917.600 4  -1835380.86221         7.000           0.156
 91  5 23 18 23 59.9990000  0  6G18G 2G16G11G19G 6
  21300396.987     2927594.835 7   2281239.61022        24.500           1.875
  22636084.519   -10258719.982 6  -7747345.04221        17.000           0.906
  23263826.433    -5937917.846 6  -4484006.76221        12.250           0.469
  22995879.980    -8021186.153 6  -6250269.12221        16.750           0.750
  20391146.815    -2081103.829 7  -1621638.97722        21.000           1.531
  23811536.050    -2658430.919 4  -1873962.62921         7.000           0.219
 91  5 23 18 24 14.9990000  0  6G18G 2G16G11G19G 6
  21305255.847     2953128.135 7   2301135.66222        24.500           1.906
  22625505.276   -10314318.950 6  -7790668.87421        17.250           0.750
  23258879.198    -5963914.082 6  -4504263.56421        13.000           0.469
  22989260.269    -8055968.356 6  -6277372.11121        16.500           0.750
  20389977.659    -2087249.286 7  -1626427.64722        20.750           1.594
  23802122.105    -2707905.944 5  -1912514.53821         7.500           0.281
 91  5 23 18 24 29.9990000  0  6G18G 2G16G11G19G 6
  21310132.855     2978760.913 7   2321109.23122        24.500           1.906
  22614936.862   -10369851.499 6  -7833940.94021        17.250           0.938
  23253959.808    -5989766.647 6  -4524408.42021        12.750           0.438
  22982669.253    -8090613.613 6  -6304368.39121        16.750           0.688
  20388821.284    -2093328.502 7  -1631164.70522        20.500           1.563
  23792711.917    -2757354.022 5  -1951045.45021         8.000           0.313
 91  5 23 18 24 44.9990000  0  6G18G 2G16G11G19G 6
  21315030.261     3004497.796 7   2341163.92422        24.250           1.938
  22604382.995   -10425312.347 6  -7877157.14521        17.250           0.938
  23249069.315    -6015469.909 6  -4544436.91121        12.750           0.500
  22976102.175    -8125116.282 6  -6331253.56521        16.750           0.719
  20387677.472    -2099336.170 7  -1635846.01022        20.500           1.656
  23783309.198    -2806769.825 5  -1989551.23321         8.750           0.188
 91  5 23 18 24 59.9990000  0  6G18G 2G16G11G19G 6
  21319947.120     3030331.337 7   2361293.93522        24.000           1.906
  22593842.151   -10480708.811 6  -7920323.18121        17.250           0.906
  23244204.730    -6041031.515 6  -4564355.02921        12.750           0.469
  22969561.409    -8159483.704 6  -6358033.36021        16.500           0.750
  20386546.300    -2105279.928 7  -1640477.51122        20.500           1.688
  23773910.901    -2856160.946 5  -2028037.76521         9.000           0.219
 91  5 23 18 25 14.9990000  0  6G18G 2G16G11G19G 6
  21324882.815     3056271.979 7   2381507.40022        24.250           1.875
  22583315.159   -10536030.008 6  -7963430.56621        17.250           0.969
  23239369.636    -6066440.747 6  -4584154.43821        12.500           0.469
  22963050.620    -8193704.895 6  -6384699.20021        16.750           0.719
  20385430.269    -2111149.069 7  -1645050.86822        20.500           1.625
  23764518.605    -2905516.678 5  -2066496.73421         9.000           0.313
 91  5 23 18 25 29.9990000  0  6G18G 2G16G11G19G 6
  21329839.612     3082317.290 7   2401802.42622        24.250           1.813
  22572801.722   -10591278.229 6  -8006481.08121        17.250           1.031
  23234562.347    -6091699.789 6  -4603836.77821        12.000           0.375
  22956565.995    -8227781.959 6  -6411252.74021        16.750           0.781
  20384328.948    -2116945.892 7  -1649567.87822        20.000           1.656
  23755132.089    -2954839.444 5  -2104930.00921         9.000           0.313
 91  5 23 18 25 44.9990000  0  6G18G 2G16G11G19G 6
  21334816.065     3108465.958 7   2422177.98722        24.500           1.875
  22562302.151   -10646454.396 6  -8049475.45721        17.500           0.938
  23229783.792    -6116809.694 6  -4623402.92921        12.000           0.469
  22950107.909    -8261715.718 6  -6437694.60421        16.750           0.781
  20383236.839    -2122671.549 7  -1654029.42722        20.500           1.656
  23745752.323    -3004130.235 5  -2143338.38821         8.500           0.219
 91  5 23 18 25 59.9990000  0  6G18G 2G16G11G19G 6
  21339811.581     3134718.962 7   2442634.85222        24.500           1.875
  22551816.003   -10701557.080 6  -8092412.56921        17.750           0.938
  23225034.823    -6141768.954 6  -4642851.70321        12.000           0.313
  22943676.636    -8295504.614 6  -6464023.59321        16.500           0.750
  20382161.644    -2128324.626 7  -1658434.42422        20.500           1.563
  23736380.792    -3053387.942 5  -2181720.96421         8.250           0.250
 91  5 23 18 26 14.9990000  0  6G18G 2G16G11G19G 6
  21344825.753     3161068.951 7   2463167.28622        24.500           1.844
  22541343.315   -10756593.530 6  -8135298.07121        17.750           0.969
  23220311.058    -6166585.257 6  -4662189.06321        12.000           0.344
  22937273.612    -8329155.770 6  -6490245.26421        16.250           0.750
  20381098.776    -2133912.393 7  -1662788.53622        20.750           1.688
  23727010.058    -3102619.874 5  -2220083.46421         8.250           0.406
 91  5 23 18 26 29.9990000  0  6G18G 2G16G11G19G 6
  21349857.011     3187511.887 7   2483772.15222        24.250           1.875
  22530882.105   -10811567.701 6  -8178135.03921        18.000           1.031
  23215616.003    -6191262.223 6  -4681417.87221        12.000           0.313
  22930896.276    -8362672.966 6  -6516362.53521        16.000           0.719
  20380045.964    -2139439.104 7  -1667095.06722        20.500           1.563
  23717645.636    -3151830.082 5  -2258429.03221         8.500           0.281
 91  5 23 18 26 44.9990000  0  6G18G 2G16G11G19G 6
  21354907.480     3214049.661 7   2504450.92122        24.250           1.906
  22520432.378   -10866477.144 6  -8220921.58021        18.250           1.000
  23210947.714    -6215797.714 6  -4700536.42321        12.250           0.344
  22924544.183    -8396053.683 6  -6542373.46721        16.250           0.719
  20379005.542    -2144902.440 7  -1671352.22122        20.500           1.563
  23708285.948    -3201016.352 5  -2296755.95521         8.750           0.219
 91  5 23 18 26 59.9990000  0  6G18G 2G16G11G19G 6
  21359975.026     3240678.220 7   2525200.42722        24.500           1.906
  22509995.620   -10921325.234 6  -8263660.30521        18.000           1.031
  23206304.597    -6240195.049 5  -4719547.33321        11.750           0.375
  22918217.394    -8429301.203 6  -6568280.59521        16.500           0.781
  20377978.839    -2150306.151 6  -1675562.91422        19.750           1.625
  23698930.589    -3250182.262 5  -2335067.01121         9.250           0.313
 91  5 23 18 27 14.9990000  0  6G18G 2G16G11G19G 6
  21365060.605     3267403.892 7   2546025.60022        24.500           1.813
  22499571.448   -10976105.503 6  -8306346.18621        18.000           1.000
  23201689.315    -6264447.783 6  -4738445.54721        12.000           0.438
  22911917.433    -8462408.715 6  -6594078.63421        16.500           0.781
  20376963.409    -2155643.567 7  -1679721.95522        20.000           1.719
  23689577.901    -3299321.229 5  -2373357.08721         9.250           0.281
 91  5 23 18 27 29.9990000  0  6G18G 2G16G11G19G 6
  21370165.730     3294230.580 7   2566929.48822        24.750           1.813
  22489160.323   -11030814.018 6  -8348976.15721        17.750           1.063
  23197102.800    -6288552.187 5  -4757228.20121        11.750           0.438
  22905644.933    -8495372.189 6  -6619764.43321        16.750           0.813
  20375959.831    -2160910.910 6  -1683826.38722        19.750           1.719
  23680234.284    -3348429.549 5  -2411623.26121         9.000           0.344
 91  5 23 18 27 44.9990000  0  6G18G 2G16G11G19G 6
  21375289.737     3321156.290 7   2587910.53822        24.500           1.938
  22478763.323   -11085452.175 6  -8391551.30521        17.750           1.094
  23192542.472    -6312509.652 5  -4775896.34421        11.250           0.500
  22899398.058    -8528193.104 6  -6645339.15021        16.500           0.844
  20374970.628    -2166110.020 6  -1687877.65222        19.500           1.688
  23670894.011    -3397508.966 5  -2449866.91121         9.000           0.313
 91  5 23 18 27 59.9990000  0  6G18G 2G16G11G19G 6
  21380433.065     3348183.430 7   2608970.62022        24.500           1.750
  22468379.378   -11140017.200 6  -8434069.46021        18.000           1.063
  23188013.433    -6336317.666 5  -4794448.03721        11.750           0.469
  22893180.784    -8560868.545 6  -6670800.51321        16.500           0.813
  20373996.847    -2171238.124 6  -1691873.59122        19.250           1.750
  23661559.003    -3446556.827 5  -2488085.97521         8.750           0.375
 91  5 23 18 28 14.9990000  0  6G18G 2G16G11G19G 6
  21385593.675     3375303.955 7   2630103.47822        24.500           1.750
  22458008.581   -11194516.895 6  -8476536.71621        18.250           1.094
  23183509.065    -6359983.988 5  -4812889.32821        11.500           0.375
  22886989.800    -8593406.043 6  -6696154.38421        17.000           0.781
  20373030.784    -2176303.082 6  -1695820.32122        19.500           1.625
  23652232.206    -3495580.996 5  -2526286.57121         8.500           0.344
 91  5 23 18 28 29.9990000  0  6G18G 2G16G11G19G 6
  21390770.808     3402513.886 7   2651306.00022        24.250           1.938
  22447649.933   -11248954.763 6  -8518955.79221        18.250           0.969
  23179031.503    -6383512.332 5  -4831223.09721        11.500           0.438
  22880822.925    -8625809.274 6  -6721403.61721        17.500           0.719
  20372081.323    -2181308.762 6  -1699720.86622        18.500           1.688
  23642906.378    -3544585.389 5  -2564471.78421         8.750           0.375
 91  5 23 18 28 44.9990000  0  6G18G 2G16G11G19G 6
  21395966.862     3429817.552 7   2672581.56822        24.000           1.813
  22437301.448   -11303326.465 6  -8561323.30421        18.250           1.094
  23174582.315    -6406898.395 5  -4849446.00421        11.500           0.500
  22874684.511    -8658073.594 6  -6746544.61921        17.750           0.781
  20371138.315    -2186250.805 6  -1703571.82622        19.250           1.688
  23633585.511    -3593565.525 5  -2602638.06321         8.750           0.375
 91  5 23 18 28 59.9990000  0  6G18G 2G16G11G19G 6
  21401181.651     3457220.984 7   2693934.87522        24.000           1.750
  22426969.183   -11357625.365 6  -8603634.10121        18.250           1.094
  23170160.503    -6430135.543 5  -4867552.87421        11.500           0.469
  22868571.526    -8690192.432 6  -6771572.27021        17.500           0.719
  20370209.964    -2191122.718 6  -1707368.13122        19.500           1.813
  23624270.495    -3642515.026 5  -2640780.51221         9.000           0.344
 91  5 23 18 29 14.9990000  0  6G18G 2G16G11G19G 6
  21406413.784     3484713.492 7   2715357.58922        24.500           1.906
  22416648.558   -11411861.956 6  -8645896.33221        18.500           1.063
  23165763.948    -6453234.217 5  -4885551.83621        11.250           0.500
  22862484.745    -8722176.087 6  -6796494.59021        17.250           0.719
  20369294.917    -2195935.000 6  -1711117.97522        19.000           1.656
  23614961.097    -3691444.453 5  -2678907.29221         9.000           0.438
 91  5 23 18 29 29.9990000  0  6G18G 2G16G11G19G 6
  21411661.753     3512291.418 7   2736846.85722        24.250           1.844
  22406338.753   -11466039.357 6  -8688112.45221        18.500           1.156
  23161395.448    -6476197.801 5  -4903445.53421        11.500           0.438
  22856424.886    -8754027.534 6  -6821313.88621        16.750           0.688
  20368392.003    -2200691.000 6  -1714823.95922        18.500           1.750
  23605652.386    -3740357.106 5  -2717021.02221         8.750           0.281
 91  5 23 18 29 44.9990000  0  6G18G 2G16G11G19G 6
  21416925.862     3539955.850 7   2758403.53722        24.750           1.813
  22396040.730   -11520156.454 6  -8730281.58121        18.500           1.031
  23157051.409    -6499025.439 5  -4921233.30321        11.250           0.500
  22850388.776    -8785745.528 6  -6846029.18821        17.000           0.719
  20367496.573    -2205389.891 6  -1718485.44622        19.250           1.625
  23596346.980    -3789252.180 5  -2755121.02921         8.750           0.250
 91  5 23 18 29 59.9990000  0  6G18G 2G16G11G19G 6
  21422207.636     3567709.599 7   2780029.81222        24.500           1.813
  22385754.378   -11574209.798 6  -8772401.03121        18.500           1.063
  23152734.136    -6521713.893 5  -4938912.61521        11.000           0.469
  22844378.862    -8817326.571 6  -6870637.76121        17.000           0.781
  20366614.987    -2210028.189 6  -1722099.71922        19.000           1.719
  23587046.269    -3838126.298 5  -2793204.72621         8.750           0.406
 91  5 23 18 30 14.9990000  0  6G18G 2G16G11G19G 6
  21427503.808     3595542.932 7   2801718.10022        24.250           1.781
  22375480.026   -11628209.019 6  -8814478.31321        19.000           1.156
  23148440.198    -6544272.580 5  -4956490.80421        10.750           0.406
  22838392.870    -8848780.090 6  -6895146.97321        16.750           0.781
  20365740.980    -2214615.746 6  -1725674.45622        19.250           1.688
  23577749.300    -3886989.101 5  -2831279.59321         8.500           0.344
 91  5 23 18 30 29.9990000  0  6G18G 2G16G11G19G 6
  21432816.019     3623459.409 7   2823471.17922        24.000           1.781
  22365214.003   -11682150.168 6  -8856510.33321        19.000           1.156
  23144172.722    -6566697.419 5  -4973964.71121        10.500           0.531
  22832432.120    -8880101.893 6  -6919553.55321        16.750           0.938
  20364877.714    -2219148.652 6  -1729206.61422        19.250           1.656
  23568452.940    -3935836.828 5  -2869342.69721         8.250           0.406
 91  5 23 18 30 44.9990000  0  6G18G 2G16G11G19G 6
  21438144.222     3651463.752 7   2845292.71822        24.000           1.719
  22354961.503   -11736028.474 6  -8898493.39321        19.000           1.094
  23139931.214    -6588983.683 5  -4991330.62921        10.500           0.500
  22826498.276    -8911287.121 6  -6943853.70321        17.500           0.844
  20364026.339    -2223622.180 6  -1732692.50722        19.250           1.750
  23559162.597    -3984664.753 5  -2907390.38421         8.000           0.375
 91  5 23 18 30 59.9990000  0  6G18G 2G16G11G19G 6
  21443489.456     3679551.675 7   2867179.39222        23.750           1.688
  22344720.839   -11789847.526 6  -8940430.27921        19.000           1.094
  23135717.183    -6611135.386 5  -5008591.68921        10.250           0.375
  22820589.636    -8942339.341 6  -6968050.21921        18.000           0.875
  20363186.065    -2228040.008 6  -1736135.00122        19.500           1.719
  23549872.519    -4033476.734 5  -2945425.63821         8.000           0.406
 91  5 23 18 31 14.9990000  0  6G18G 2G16G11G19G 6
  21448851.136     3707725.249 7   2889132.79722        24.000           1.750
  22334490.956   -11843604.936 6  -8982319.13521        19.000           1.219
  23131527.761    -6633150.130 5  -5025746.03921        10.500           0.469
  22814706.362    -8973256.240 6  -6992141.28121        18.000           0.844
  20362356.323    -2232400.063 6  -1739532.47522        19.000           1.750
  23540587.683    -4082270.557 5  -2983446.74721         8.000           0.375
 91  5 23 18 31 29.9990000  0  6G18G 2G16G11G19G 6
  21454227.214     3735977.258 7   2911147.32722        24.000           1.813
  22324271.534   -11897307.654 6  -9024165.37121        18.750           1.094
  23127363.565    -6655034.975 5  -5042799.15721        10.750           0.531
  22808848.394    -9004044.492 6  -7016132.11121        18.000           0.844
  20361540.003    -2236709.396 6  -1742890.42522        18.250           1.750
  23531303.847    -4131053.337 5  -3021459.28121         8.250           0.344
 91  5 23 18 31 44.9990000  0  6G18G 2G16G11G19G 6
  21459620.901     3764320.464 7   2933232.91422        23.750           1.750
  22314064.347   -11950942.494 6  -9065958.71921        19.250           1.094
  23123225.597    -6676776.956 5  -5059740.96321        10.500           0.500
  22803015.714    -9034690.705 6  -7040012.26721        18.000           0.844
  20360728.862    -2240954.837 6  -1746198.58522        19.000           1.750
  23522024.839    -4179811.845 5  -3059452.87021         8.500           0.313
 91  5 23 18 31 59.9990000  0  6G18G 2G16G11G19G 6
  21465029.019     3792743.848 7   2955380.98222        23.500           1.781
  22303869.011   -12004520.324 6  -9107707.63921        19.250           1.156
  23119114.011    -6698386.748 5  -5076579.74721        10.750           0.531
  22797208.870    -9065205.747 6  -7063790.19421        17.750           0.969
  20359929.105    -2245147.577 6  -1749465.67722        19.500           1.750
  23512751.581    -4228557.266 5  -3097436.27321         8.500           0.313
 91  5 23 18 32 14.9990000  0  6G18G 2G16G11G19G 6
  21470455.675     3821257.360 7   2977599.28022        23.250           1.750
  22293686.839   -12058030.903 6  -9149404.15721        19.500           1.031
  23115027.667    -6719854.468 5  -5093307.84821        10.750           0.438
  22791428.276    -9095579.423 6  -7087457.97321        17.500           0.875
  20359144.042    -2249277.651 6  -1752683.92122        19.250           1.750
  23503480.159    -4277279.491 5  -3135401.59621         8.500           0.406
 91  5 23 18 32 29.9990000  0  6G18G 2G16G11G19G 6
  21475897.761     3849857.667 7   2999885.21322        23.000           1.750
  22283515.925   -12111477.316 6  -9191050.67621        19.500           1.250
  23110969.315    -6741183.212 5  -5109927.64521        11.250           0.469
  22785674.980    -9125814.478 6  -7111017.72621        17.500           0.813
  20358371.214    -2253347.924 6  -1755855.56122        19.000           1.813
  23494210.144    -4325981.642 5  -3173351.27721         8.500           0.281
 91  5 23 18 32 44.9990000  0  6G18G 2G16G11G19G 6
  21481355.487     3878537.839 7   3022233.37722        23.000           1.719
  22273356.362   -12164866.075 6  -9232652.27221        19.750           1.188
  23106936.323    -6762379.429 5  -5126444.17821        11.250           0.406
  22779946.628    -9155917.470 6  -7134474.57621        17.750           0.844
  20357605.808    -2257365.104 6  -1758985.82722        19.000           1.719
  23484944.636    -4374670.456 5  -3211290.57021         8.000           0.438
 91  5 23 18 32 59.9990000  0  6G18G 2G16G11G19G 6
  21486827.222     3907295.564 7   3044641.97322        23.250           1.781
  22263207.948   -12218198.947 6  -9274210.31821        19.500           1.250
  23102928.073    -6783445.307 5  -5142859.14321        11.500           0.406
  22774244.089    -9185890.196 6  -7157829.92721        17.750           0.813
  20356851.456    -2261331.272 6  -1762076.34522        18.750           1.813
  23475682.964    -4423347.910 5  -3249221.00721         8.000           0.375
 91  5 23 18 33 14.9990000  0  6G18G 2G16G11G19G 6
  21492316.472     3936135.872 7   3067114.91622        23.750           1.813
  22253069.355   -12271470.426 6  -9315720.52421        19.500           1.281
  23098945.050    -6804375.381 5  -5159168.28921        11.500           0.438
  22768566.378    -9215727.036 6  -7181079.38921        18.250           0.719
  20356106.730    -2265240.935 6  -1765122.83022        18.500           1.688
  23466423.019    -4472008.608 5  -3287138.38721         8.250           0.469
 91  5 23 18 33 29.9990000  0  6G18G 2G16G11G19G 6
  21497820.245     3965057.976 7   3089651.59622        23.250           1.813
  22242944.745   -12324681.323 6  -9357183.53021        19.500           1.219
  23094989.706    -6825170.502 5  -5175372.26721        11.500           0.344
  22762914.144    -9245428.582 6  -7204223.42321        18.500           0.688
  20355373.315    -2269094.984 6  -1768125.98522        18.500           1.813
  23457168.112    -4520653.429 5  -3325043.40421         8.250           0.438
 91  5 23 18 33 44.9990000  0  6G18G 2G16G11G19G 6
  21503339.401     3994064.237 7   3112253.85422        23.500           1.719
  22232830.659   -12377828.951 6  -9398597.23021        19.750           1.281
  23091056.019    -6845828.055 5  -5191469.05721        11.250           0.344
  22757288.042    -9274992.047 6  -7227259.87121        18.250           0.781
  20354651.245    -2272890.956 6  -1771083.88822        18.750           1.719
  23447912.870    -4569279.927 5  -3362934.13421         8.250           0.500
 91  5 23 18 33 59.9990000  0  6G18G 2G16G11G19G 6
  21508875.683     4023150.504 7   3134918.45422        23.500           1.688
  22222728.683   -12430917.236 6  -9439964.69721        19.750           1.281
  23087149.878    -6866352.099 5  -5207461.80821        11.750           0.250
  22751687.433    -9304421.115 6  -7250191.59421        18.000           0.781
  20353941.831    -2276632.670 6  -1773999.51422        17.750           1.750
  23438662.511    -4617891.944 5  -3400813.58621         8.500           0.406
 91  5 23 18 34 14.9990000  0  6G18G 2G16G11G19G 6
  21514426.769     4052326.737 7   3157653.15822        23.250           1.750
  22212639.472   -12483935.652 7  -9481277.71021        20.000           1.313
  23083272.558    -6886732.392 5  -5223342.55421        11.750           0.375
  22746114.136    -9333705.313 6  -7273010.42421        17.750           0.875
  20353238.769    -2280309.984 6  -1776864.95522        18.500           1.781
  23429415.917    -4666479.317 5  -3438673.84521         8.250           0.375
 91  5 23 18 34 29.9990000  0  6G18G 2G16G11G19G 6
  21519995.394     4081594.092 7   3180458.86822        23.000           1.656
  22202564.237   -12536882.627 7  -9522535.05921        20.250           1.313
  23079422.917    -6906967.591 5  -5239110.22521        11.750           0.469
  22740570.386    -9362843.042 6  -7295715.12821        17.500           0.875
  20352551.800    -2283921.467 6  -1779679.10122        18.500           1.750
  23420176.331    -4715040.517 5  -3476513.71321         8.250           0.406
 91  5 23 18 34 44.9990000  0  6G18G 2G16G11G19G 6
  21525581.120     4110945.926 7   3203330.40522        23.000           1.688
  22192501.214   -12589764.433 7  -9563741.63021        20.250           1.469
  23075598.237    -6927063.850 5  -5254769.63621        11.500           0.375
  22735051.878    -9391840.470 6  -7318310.50521        17.250           0.875
  20351876.026    -2287473.560 6  -1782446.96722        18.750           1.688
  23410936.839    -4763582.082 5  -3514338.26821         7.750           0.406
 91  5 23 18 34 59.9990000  0  6G18G 2G16G11G19G 6
  21531183.003     4140382.933 7   3226268.31022        23.250           1.688
  22182450.644   -12642580.284 7  -9604896.80421        20.500           1.344
  23071800.003    -6947020.399 5  -5270320.19821        11.500           0.531
  22729560.964    -9420696.604 6  -7340795.78621        17.000           0.906
  20351212.667    -2290965.314 6  -1785167.81722        18.500           1.781
  23401703.276    -4812103.204 5  -3552146.88221         8.000           0.469
 91  5 23 18 35 14.9990000  0  6G18G 2G16G11G19G 6
  21536801.831     4169907.970 7   3249274.81122        23.500           1.813
  22172412.480   -12695327.073 7  -9645998.16121        20.000           1.406
  23068029.636    -6966833.888 5  -5285759.26821        11.250           0.438
  22724097.378    -9449408.151 6  -7363168.39221        16.500           0.750
  20350559.745    -2294393.773 6  -1787839.34322        18.750           1.750
  23392476.675    -4860600.796 5  -3589937.17821         8.000           0.406
 91  5 23 18 35 29.9990000  0  6G18G 2G16G11G19G 6
  21542437.292     4199519.149 7   3272348.43222        23.500           1.625
  22162388.933   -12748006.378 7  -9687046.93921        20.250           1.313
  23064287.480    -6986506.089 5  -5301088.25321        11.000           0.438
  22718660.745    -9477976.745 6  -7385429.61421        16.750           0.813
  20349918.730    -2297760.659 6  -1790462.88722        18.750           1.688
  23383250.878    -4909076.623 5  -3627710.49121         8.000           0.313
 91  5 23 18 35 44.9990000  0  6G18G 2G16G11G19G 6
  21548087.331     4229214.986 7   3295488.01622        23.250           1.688
  22152377.065   -12800619.129 7  -9728043.84721        20.000           1.406
  23060570.605    -7006038.446 5  -5316308.25221        11.250           0.469
  22713251.362    -9506403.240 6  -7407580.10721        17.000           0.875
  20349288.886    -2301067.023 6  -1793039.27322        18.750           1.656
  23374030.042    -4957531.854 5  -3665467.80921         8.500           0.406
 91  5 23 18 35 59.9990000  0  6G18G 2G16G11G19G 6
  21553756.222     4259004.397 7   3318700.52522        23.000           1.656
  22142379.792   -12853156.081 7  -9768981.70421        20.250           1.313
  23056881.269    -7025421.765 5  -5331412.12921        11.500           0.500
  22707870.237    -9534678.379 6  -7429612.65521        17.250           0.781
  20348676.003    -2304303.726 6  -1795561.36822        18.000           1.781
  23364817.292    -5005957.459 5  -3703201.98221         8.500           0.375
 91  5 23 18 36 14.9990000  0  6G18G 2G16G11G19G 6
  21559441.347     4288881.967 7   3341981.72522        23.000           1.625
  22132394.925   -12905622.297 7  -9809864.43021        20.000           1.406
  23053219.886    -7044661.361 5  -5346404.00521        11.500           0.438
  22702517.644    -9562807.202 6  -7451531.20221        17.750           0.844
  20348070.464    -2307476.058 6  -1798033.31122        18.750           1.750
  23355603.690    -5054358.693 5  -3740917.19021         8.000           0.375
 91  5 23 18 36 29.9990000  0  6G18G 2G16G11G19G 6
  21565144.401     4318849.608 7   3365333.10922        22.750           1.656
  22122425.855   -12958015.600 7  -9850690.33921        20.250           1.344
  23049587.151    -7063754.765 5  -5361281.97521        11.500           0.469
  22697193.378    -9590787.423 6  -7473333.96521        18.250           0.813
  20347478.276    -2310581.911 6  -1800453.45022        19.000           1.781
  23346400.081    -5102733.383 5  -3778611.70421         8.250           0.469
 91  5 23 18 36 44.9990000  0  6G18G 2G16G11G19G 6
  21570863.206     4348901.572 7   3388750.20022        22.750           1.656
  22112467.183   -13010341.478 6  -9891463.71921        19.750           1.313
  23045980.300    -7082707.804 5  -5376050.56521        11.750           0.531
  22691895.948    -9618624.300 6  -7495025.01921        18.250           0.844
  20346899.761    -2313627.048 6  -1802826.28222        18.500           1.844
  23337198.292    -5151087.123 5  -3816289.91121         8.000           0.469
 91  5 23 18 36 59.9990000  0  6G18G 2G16G11G19G 6
  21576598.933     4379039.451 7   3412234.23722        22.750           1.656
  22102524.269   -13062597.711 6  -9932182.83021        19.750           1.406
  23042400.292    -7101518.409 5  -5390708.17921        11.500           0.563
  22686626.636    -9646315.365 6  -7516602.46021        18.250           0.938
  20346332.245    -2316609.150 6  -1805149.99722        18.750           1.781
  23327998.980    -5199417.715 5  -3853950.07321         8.000           0.313
 91  5 23 18 37 14.9990000  0  6G18G 2G16G11G19G 6
  21582350.776     4409266.053 7   3435787.40422        23.250           1.531
  22092592.917   -13114781.234 6  -9972845.28421        19.500           1.344
  23038847.058    -7120183.717 5  -5405252.56121        11.250           0.500
  22681385.815    -9673857.771 6  -7538064.05021        18.250           0.875
  20345777.753    -2319525.370 6  -1807422.37722        18.750           1.781
  23318809.198    -5247722.415 5  -3891590.04921         8.500           0.375
 91  5 23 18 37 29.9990000  0  6G18G 2G16G11G19G 6
  21588119.784     4439580.652 7   3459409.14522        23.250           1.625
  22082676.589   -13166892.737 6 -10013451.62221        19.750           1.438
  23035324.183    -7138704.623 5  -5419684.42621        11.250           0.406
  22676172.565    -9701252.020 6  -7559410.19221        18.000           0.906
  20345234.050    -2322376.533 6  -1809644.06222        18.500           1.719
  23309620.456    -5296001.938 5  -3929210.41721         8.500           0.344
 91  5 23 18 37 44.9990000  0  6G18G 2G16G11G19G 6
  21593904.394     4469984.609 7   3483100.50922        23.000           1.656
  22072774.745   -13218930.300 6 -10054000.34121        19.750           1.344
  23031827.925    -7157079.083 5  -5434002.17321        11.500           0.531
  22670988.026    -9728496.045 6  -7580639.27321        17.750           0.906
  20344705.456    -2325160.786 6  -1811813.60922        18.500           1.750
  23300441.089    -5344254.486 5  -3966809.76521         8.750           0.406
 91  5 23 18 37 59.9990000  0  6G18G 2G16G11G19G 6
  21599707.808     4500477.753 7   3506861.37722        23.000           1.625
  22062886.558   -13270893.774 7 -10094491.32921        20.000           1.375
  23028358.339    -7175307.120 5  -5448205.83421        11.750           0.500
  22665832.370    -9755589.825 6  -7601751.28821        17.750           0.969
  20344189.034    -2327878.125 6  -1813931.02222        18.000           1.781
  23291262.034    -5392480.182 5  -4004388.19921         9.500           0.406
 91  5 23 18 38 14.9990000  0  6G18G 2G16G11G19G 6
  21605525.401     4531053.792 7   3530686.83622        22.500           1.625
  22053010.519   -13322789.059 7 -10134929.18121        20.250           1.438
  23024917.269    -7193394.560 5  -5462299.92721        11.500           0.594
  22660704.073    -9782539.178 6  -7622750.76521        18.000           0.969
  20343682.565    -2330534.677 6  -1816001.07222        18.500           1.813
  23282089.651    -5440685.103 5  -4041950.42921         9.250           0.375
 91  5 23 18 38 29.9990000  0  6G18G 2G16G11G19G 6
  21611360.737     4561720.444 7   3554582.90522        22.250           1.594
  22043149.394   -13374608.588 7 -10175308.00321        20.000           1.313
  23021502.526    -7211334.143 5  -5476278.82321        11.750           0.438
  22655605.487    -9809336.172 6  -7643631.51421        18.250           0.938
  20343189.526    -2333122.750 6  -1818017.76322        18.500           1.813
  23272922.769    -5488861.395 5  -4079490.35121         9.250           0.406
 91  5 23 18 38 44.9990000  0  6G18G 2G16G11G19G 6
  21617214.612     4592477.584 7   3578549.48022        22.750           1.563
  22033303.019   -13426352.060 6 -10215627.55721        19.750           1.406
  23018117.620    -7229125.645 5  -5490142.32321        11.750           0.563
  22650533.847    -9835980.430 6  -7664393.26321        17.750           0.875
  20342710.480    -2335642.005 6  -1819980.83822        18.500           1.813
  23263758.620    -5537009.028 5  -4117007.95821         9.500           0.375
 91  5 23 18 38 59.9990000  0  6G18G 2G16G11G19G 6
  21623084.534     4623324.837 7   3602586.27522        22.750           1.531
  22023470.855   -13478019.105 6 -10255887.56321        19.750           1.406
  23014760.831    -7246768.982 5  -5503890.37221        11.500           0.500
  22645493.347    -9862471.692 6  -7685035.78321        18.000           0.781
  20342243.948    -2338092.366 6  -1821890.23122        18.500           1.906
  23254602.456    -5585127.799 5  -4154503.05721         9.250           0.469
 91  5 23 18 39 14.9990000  0  6G18G 2G16G11G19G 6
  21628971.526     4654259.371 7   3626691.07722        23.000           1.594
  22013653.136   -13529612.284 7 -10296090.01121        20.000           1.438
  23011429.308    -7264266.878 5  -5517525.10321        11.500           0.469
  22640480.987    -9888812.457 6  -7705561.04621        17.500           0.781
  20341789.401    -2340476.614 6  -1823748.10522        18.500           1.719
  23245452.480    -5633220.655 5  -4191977.97421        10.250           0.375
 91  5 23 18 39 29.9980000  0  6G18G 2G16G11G19G 6
  21634873.748     4685275.286 7   3650859.29922        23.000           1.563
  22003849.451   -13581131.654 6 -10336234.94521        19.750           1.406
  23008127.514    -7281621.720 5  -5531048.36121        11.500           0.563
  22635496.850    -9915004.390 6  -7725970.32721        17.750           0.719
  20341348.334    -2342798.274 6  -1825557.20822        18.250           1.750
  23236304.217    -5681287.818 5  -4229432.89421        10.000           0.344
 91  5 23 18 39 44.9980000  0  6G18G 2G16G11G19G 6
  21640791.514     4716373.122 7   3675091.35222        22.750           1.563
  21994057.654   -13632587.309 6 -10376330.23222        19.750           1.500
  23004851.139    -7298838.915 5  -5544464.35821        11.500           0.563
  22630539.139    -9941054.206 6  -7746268.87221        17.750           0.719
  20340918.436    -2345060.900 6  -1827320.30822        18.250           1.844
  23227161.045    -5729339.034 5  -4266875.36121        10.500           0.281
 91  5 23 18 39 59.9980000  0  6G18G 2G16G11G19G 6
  21646725.256     4747557.459 7   3699390.80221        22.500           1.469
  21984280.256   -13683968.945 7 -10416367.83821        20.000           1.469
  23001602.053    -7315910.879 5  -5557767.19821        11.750           0.563
  22625611.561    -9966953.190 6  -7766449.88121        17.750           0.813
  20340499.482    -2347257.442 6  -1829031.91722        18.500           1.844
  23218020.162    -5777364.393 5  -4304297.68221        10.500           0.250
 91  5 23 18 40 14.9980000  0  6G18G 2G16G11G19G 6
  21652674.334     4778821.403 7   3723752.28921        22.250           1.469
  21974515.459   -13735283.148 7 -10456352.90521        20.000           1.438
  22998379.897    -7332844.510 5  -5570962.23421        11.750           0.500
  22620710.115    -9992707.874 6  -7786518.45221        17.500           0.688
  20340093.248    -2349394.843 6  -1830697.43622        18.750           1.813
  23208886.662    -5825370.644 5  -4341705.12021        10.500           0.313
 91  5 23 18 40 29.9980000  0  6G18G 2G16G11G19G 6
  21658639.357     4810168.279 7   3748178.40022        22.000           1.500
  21964763.670   -13786526.147 7 -10496282.48322        20.500           1.563
  22995186.279    -7349635.718 5  -5584046.30621        11.750           0.438
  22615837.022   -10018314.312 6  -7806471.50121        17.750           0.781
  20339699.537    -2351469.137 6  -1832313.78022        18.250           1.750
  23199757.014    -5873354.119 5  -4379094.80521        10.750           0.375
 91  5 23 18 40 44.9980000  0  6G18G 2G16G11G19G 6
  21664622.061     4841604.507 7   3772674.12921        21.750           1.469
  21955026.865   -13837691.185 7 -10536151.31821        20.250           1.406
  22992019.537    -7366277.990 5  -5597014.31021        11.750           0.438
  22610994.318   -10043765.713 6  -7826303.75421        17.750           0.750
  20339317.201    -2353473.712 6  -1833875.79522        18.750           1.875
  23190631.826    -5921308.066 5  -4416461.48221        10.750           0.313
 91  5 23 18 40 59.9980000  0  6G18G 2G16G11G19G 6
  21670620.412     4873126.543 7   3797236.73022        21.750           1.531
  21945305.568   -13888781.600 7 -10575962.00222        20.750           1.500
  22988878.920    -7382774.855 6  -5609869.01421        12.000           0.469
  22606179.779   -10069065.452 6  -7846017.81421        17.750           0.844
  20338951.061    -2355412.178 6  -1835386.30122        17.750           1.813
  23181509.811    -5969236.093 5  -4453807.96421        10.750           0.281
 91  5 23 18 41 14.9980000  0  6G18G 2G16G11G19G 6
  21676635.365     4904730.652 7   3821863.27722        22.000           1.531
  21935596.928   -13939800.781 7 -10615717.18322        20.750           1.531
  22985766.811    -7399129.739 6  -5622613.07821        12.000           0.500
  22601394.061   -10094216.757 6  -7865616.21921        18.000           0.813
  20338591.123    -2357287.852 6  -1836847.87622        18.750           1.656
  23172395.131    -6017141.634 5  -4491136.91721        10.750           0.406
 91  5 23 18 41 29.9980000  0  6G18G 2G16G11G19G 6
  21682666.756     4936425.725 7   3846560.70522        22.000           1.500
  21925903.412   -13990739.572 7 -10655409.71621        20.750           1.438
  22982684.022    -7415333.657 5  -5635239.52421        11.750           0.469
  22596637.732   -10119210.314 6  -7885091.69321        18.000           0.938
  20338247.107    -2359091.878 6  -1838253.63022        19.000           1.719
  23163284.045    -6065015.602 5  -4528441.27421        10.250           0.313
 91  5 23 18 41 44.9980000  0  6G18G 2G16G11G19G 6
  21688712.607     4968198.696 7   3871318.83421        22.000           1.469
  21916223.779   -14041610.477 7 -10695049.35322        21.000           1.531
  22979625.537    -7431399.740 6  -5647758.54921        12.000           0.406
  22591909.045   -10144058.809 6  -7904454.14121        18.250           0.875
  20337914.998    -2360836.966 6  -1839613.46922        18.250           1.719
  23154178.404    -6112870.775 5  -4565730.98421        10.250           0.281
 91  5 23 18 41 59.9980000  0  6G18G 2G16G11G19G 6
  21694775.272     5000056.785 7   3896143.28521        21.750           1.469
  21906556.412   -14092406.345 7 -10734630.52121        21.250           1.469
  22976595.186    -7447320.418 6  -5660164.26721        12.000           0.531
  22587209.686   -10168754.852 6  -7923697.79521        18.250           0.813
  20337597.561    -2362515.927 6  -1840921.77222        17.750           1.813
  23145076.670    -6160699.965 5  -4603000.45221        10.500           0.313
 91  5 23 18 42 14.9980000  0  6G18G 2G16G11G19G 6
  21700853.443     5031998.405 7   3921032.82922        21.500           1.500
  21896904.592   -14143127.952 7 -10774153.82222        21.000           1.531
  22973595.576    -7463096.742 5  -5672457.51721        11.750           0.375
  22582539.397   -10193299.235 6  -7942823.27321        18.250           0.875
  20337289.740    -2364129.648 6  -1842179.23922        18.250           1.750
  23135980.357    -6208504.116 5  -4640250.40221        10.750           0.250
 91  5 23 18 42 29.9980000  0  6G18G 2G16G11G19G 6
  21706945.006     5064016.056 7   3945981.61622        21.000           1.594
  21887265.787   -14193782.803 7 -10813625.10622        21.000           1.531
  22970619.045    -7478736.080 6  -5684644.02121        12.000           0.531
  22577895.412   -10217699.231 6  -7961836.24821        18.250           0.906
  20336993.584    -2365685.685 6  -1843391.74722        18.500           1.813
  23126885.389    -6256290.729 5  -4677486.68121        10.500           0.281
 91  5 23 18 42 44.9980000  0  6G18G 2G16G11G19G 6
  21713054.607     5096121.748 7   3970999.01022        21.000           1.531
  21877640.654   -14244358.241 7 -10853034.51322        20.750           1.563
  22967670.826    -7494226.444 6  -5696714.43621        12.250           0.469
  22573282.436   -10241942.344 6  -7980726.97921        18.250           0.875
  20336711.397    -2367171.666 6  -1844549.66522        18.500           1.688
  23117796.639    -6304047.481 5  -4714699.71621        10.750           0.438
 91  5 23 18 42 59.9980000  0  6G18G 2G16G11G19G 6
  21719179.068     5128304.894 7   3996076.74922        20.750           1.500
  21868030.873   -14294864.760 7 -10892390.21022        20.750           1.594
  22964749.428    -7509578.268 6  -5708676.90421        12.250           0.625
  22568697.279   -10266038.930 6  -7999503.52821        18.500           0.938
  20336438.498    -2368598.021 6  -1845661.12422        18.750           1.781
  23108711.889    -6351784.852 5  -4751897.62721        10.750           0.375
 91  5 23 18 43 14.9980000  0  6G18G 2G16G11G19G 6
  21725318.748     5160566.680 7   4021215.76922        20.500           1.500
  21858432.467   -14345300.893 7 -10931691.06522        21.000           1.500
  22961855.818    -7524790.273 6  -5720530.43321        12.250           0.500
  22564140.053   -10289987.420 6  -8018164.67021        18.250           0.906
  20336179.240    -2369963.243 6  -1846724.94722        18.500           1.750
  23099633.279    -6399501.401 5  -4789079.33721        11.000           0.313
 91  5 23 18 43 29.9980000  0  6G18G 2G16G11G19G 6
  21731474.068     5192912.212 7   4046420.04521        20.750           1.469
  21848849.436   -14395661.075 7 -10970932.73322        21.000           1.625
  22958987.537    -7539857.028 6  -5732270.76921        12.250           0.469
  22559612.287   -10313782.285 6  -8036706.10921        18.250           0.875
  20335932.131    -2371262.103 6  -1847737.05922        19.000           1.813
  23090558.740    -6447191.903 5  -4826240.72521        10.500           0.344
 91  5 23 18 43 44.9980000  0  6G18G 2G16G11G19G 6
  21737645.350     5225342.753 7   4071690.56121        20.750           1.406
  21839281.850   -14445943.488 7 -11010113.80322        20.750           1.594
  22956149.318    -7554776.934 6  -5743896.67221        12.500           0.406
  22555113.545   -10337421.561 6  -8055126.31321        18.250           0.906
  20335698.311    -2372492.805 6  -1848696.05622        19.000           1.750
  23081487.701    -6494854.624 5  -4863380.47821        10.750           0.375
 91  5 23 18 43 59.9980000  0  6G18G 2G16G11G19G 6
  21743832.287     5257855.870 7   4097025.42422        20.750           1.500
  21829727.240   -14496150.521 7 -11049236.13122        20.750           1.656
  22953336.654    -7569552.272 6  -5755409.92421        12.250           0.563
  22550643.522   -10360907.508 6  -8073427.04121        18.000           0.938
  20335478.772    -2373657.915 6  -1849603.95222        18.000           1.813
  23072422.732    -6542491.977 5  -4900500.45821        10.500           0.281
 91  5 23 18 44 14.9980000  0  6G18G 2G16G11G19G 6
  21750034.748     5290451.297 7   4122424.42022        20.750           1.531
  21820186.482   -14546282.076 7 -11088299.65222        20.500           1.656
  22950552.904    -7584183.243 6  -5766810.68321        12.500           0.531
  22546203.865   -10384240.000 6  -8091608.18321        18.250           1.031
  20335267.498    -2374757.265 6  -1850460.60422        19.000           1.813
  23063362.725    -6590103.878 5  -4937600.60421        10.250           0.313
 91  5 23 18 44 29.9980000  0  6G18G 2G16G11G19G 6
  21756254.397     5323132.412 7   4147890.19221        20.250           1.438
  21810662.647   -14596334.616 7 -11127301.60422        20.750           1.781
  22947796.365    -7598666.142 6  -5778096.07421        12.250           0.531
  22541794.162   -10407415.620 6  -8109667.09321        18.250           0.938
  20335070.311    -2375787.475 6  -1851263.38122        19.500           1.781
  23054306.717    -6637687.003 5  -4974678.33821        10.000           0.375
 91  5 23 18 44 44.9980000  0  6G18G 2G16G11G19G 6
  21762489.982     5355901.137 7   4173424.22621        20.250           1.375
  21801153.053   -14646305.784 7 -11166240.14322        20.500           1.781
  22945069.865    -7612998.946 6  -5789264.48321        12.750           0.469
  22537414.889   -10430431.920 6  -8127601.85021        18.250           0.906
  20334889.209    -2376746.296 6  -1852010.52222        19.000           1.781
  23045260.498    -6685239.053 5  -5011731.84821        10.000           0.250
 91  5 23 18 44 59.9980000  0  6G18G 2G16G11G19G 6
  21768741.451     5388754.811 7   4199024.45821        20.500           1.406
  21791658.897   -14696197.558 7 -11205116.82122        21.000           1.781
  22942369.420    -7627184.185 6  -5800317.91521        12.750           0.500
  22533064.232   -10453291.037 6  -8145414.13621        18.250           0.938
  20334719.209    -2377635.985 6  -1852703.79322        19.000           1.844
  23036215.139    -6732762.392 5  -5048762.98721        10.000           0.313
 91  5 23 18 45 14.9980000  0  6G18G 2G16G11G19G 6
  21775010.795     5421695.668 7   4224692.62321        20.250           1.406
  21782180.709   -14746007.724 7 -11243929.91222        21.500           1.688
  22939699.264    -7641219.640 6  -5811254.63221        12.500           0.438
  22528744.193   -10475990.426 6  -8163101.96021        17.750           0.906
  20334563.647    -2378454.238 6  -1853341.38622        19.000           1.875
  23027178.998    -6780254.571 5  -5085769.83521        10.250           0.406
 91  5 23 18 45 29.9980000  0  6G18G 2G16G11G19G 6
  21781293.381     5454714.025 7   4250421.17621        20.250           1.469
  21772715.553   -14795745.529 7 -11282686.60922        21.250           1.844
  22937054.459    -7655114.676 6  -5822081.94421        12.500           0.406
  22524452.748   -10498539.429 6  -8180672.59221        17.250           0.813
  20334419.842    -2379210.371 6  -1853930.57422        19.250           1.813
  23018144.225    -6827725.033 5  -5122759.78921        10.250           0.313
 91  5 23 18 45 44.9980000  0  6G18G 2G16G11G19G 6
  21787592.436     5487814.823 7   4276213.97221        20.250           1.469
  21763266.053   -14845405.753 7 -11321382.86322        21.250           1.813
  22934439.529    -7668864.139 6  -5832795.83021        12.500           0.406
  22520191.287   -10520932.780 6  -8198121.95121        17.250           0.938
  20334288.701    -2379899.204 6  -1854467.32222        19.250           1.875
  23009116.350    -6875168.698 5  -5159728.83521        10.500           0.313
 91  5 23 18 45 59.9980000  0  6G18G 2G16G11G19G 6
  21793906.357     5520994.110 7   4302067.92821        20.250           1.406
  21753830.725   -14894992.082 7 -11360021.52722        21.250           1.750
  22931850.131    -7682471.788 6  -5843399.20821        12.500           0.406
  22515959.076   -10543174.008 6  -8215452.76521        17.250           0.875
  20334168.928    -2380524.482 6  -1854954.55822        19.000           1.875
  23000090.678    -6922589.438 5  -5196680.04421        10.500           0.313
 91  5 23 18 46 14.9980000  0  6G18G 2G16G11G19G 6
  21800236.397     5554259.012 6   4327988.59121        19.750           1.375
  21744408.662   -14944496.757 7 -11398596.57322        20.750           1.781
  22929287.318    -7695930.062 6  -5853886.18221        12.500           0.406
  22511758.795   -10565255.503 6  -8232659.11021        17.750           0.938
  20334064.225    -2381078.726 6  -1855386.43822        19.250           1.906
  22991073.553    -6969979.549 5  -5233607.37821        10.250           0.219
 91  5 23 18 46 29.9980000  0  6G18G 2G16G11G19G 6
  21806581.857     5587606.511 6   4353973.62521        19.750           1.438
  21735003.576   -14993922.642 7 -11437110.22022        21.000           1.750
  22926755.928    -7709241.952 6  -5864259.10721        12.250           0.438
  22507585.686   -10587180.008 6  -8249743.13421        18.000           0.875
  20333973.647    -2381564.927 6  -1855765.29722        18.750           1.844
  22982062.428    -7017341.970 5  -5270513.12521        10.500           0.406
 91  5 23 18 46 44.9980000  0  6G18G 2G16G11G19G 6
  21812942.631     5621032.533 7   4380019.84221        20.000           1.375
  21725613.107   -15043273.377 7 -11475565.31222        20.750           1.844
  22924248.826    -7722411.297 6  -5874520.94521        12.500           0.281
  22503443.272   -10608951.004 6  -8266707.52921        18.250           0.938
  20333891.600    -2381986.795 6  -1856094.01822        19.500           1.844
  22973049.990    -7064680.483 5  -5307400.24921        10.000           0.313
 91  5 23 18 46 59.9980000  0  6G18G 2G16G11G19G 6
  21819317.467     5654534.317 6   4406125.09021        19.750           1.313
  21716235.342   -15092551.380 7 -11513963.72922        20.750           1.813
  22921769.037    -7735440.803 6  -5884673.81021        12.250           0.531
  22499328.639   -10630570.931 6  -8283554.22221        18.250           0.938
  20333823.451    -2382346.717 6  -1856374.47622        19.250           1.844
  22964048.311    -7111997.691 5  -5344270.77921        10.000           0.406
 91  5 23 18 47 14.9980000  0  6G18G 2G16G11G19G 6
  21825709.803     5688121.688 7   4432297.03021        20.000           1.375
  21706873.287   -15141746.409 7 -11552297.48822        21.000           1.875
  22919318.240    -7748320.390 6  -5894709.85321        12.000           0.375
  22495245.334   -10652029.595 6  -8300275.24921        18.500           0.906
  20333768.022    -2382634.717 6  -1856598.89322        19.500           1.781
  22955050.904    -7159283.272 5  -5381116.64321        10.000           0.438
 91  5 23 18 47 29.9980000  0  6G18G 2G16G11G19G 6
  21832116.068     5721783.196 7   4458526.73921        20.000           1.281
  21697526.107   -15190869.906 7 -11590575.51222        20.750           1.781
  22916893.397    -7761061.495 6  -5904637.99721        12.000           0.469
  22491190.561   -10673338.341 6  -8316879.46421        18.500           0.969
  20333726.154    -2382862.269 6  -1856776.20822        19.000           1.813
  22946056.600    -7206548.903 5  -5417946.98821        10.250           0.500
 91  5 23 18 47 44.9980000  0  6G18G 2G16G11G19G 6
  21838535.514     5755519.157 6   4484814.45721        19.750           1.344
  21688192.217   -15239921.109 7 -11628797.20122        20.750           1.781
  22914496.772    -7773663.494 6  -5914457.75321        12.250           0.375
  22487164.811   -10694496.381 6  -8333366.24321        18.750           0.938
  20333692.779    -2383028.783 6                        19.250
  22937064.232    -7253793.822 5  -5454761.19021        10.250           0.281
 91  5 23 18 47 59.9980000  0  6G18G 2G16G11G19G 6
  21844968.865     5789331.122 7   4511161.39921        20.000           1.344
  21678872.107   -15288898.092 7 -11666961.05922        20.750           1.844
  22912123.365    -7786124.675 6  -5924167.77421        12.000           0.344
  22483167.842   -10715501.664 6  -8349733.97921        19.000           0.938
  20333674.350    -2383132.305 6                        19.250
  22928078.209    -7301016.201 5  -5491557.81721        10.250           0.500
 91  5 23 18 48 14.9980000  0  6G18G 2G16G11G19G 6
  21851417.217     5823212.234 6   4537562.22621        19.750           1.313
  21669564.654   -15337807.477 7 -11705072.24222        20.750           1.813
  22909778.154    -7798451.915 6  -5933773.43721        12.250           0.344
  22479197.834   -10736360.970 6  -8365987.98221        18.750           0.906
  20333664.451    -2383179.565 6                        19.250
  22919095.139    -7348222.856 5  -5528342.19321        10.500           0.500
 91  5 23 18 48 29.9980000  0  6G18G 2G16G11G19G 6
  21857880.514     5857176.502 6   4564027.84821        19.750           1.313
  21660272.834   -15386634.976 7 -11743119.62122        20.750           1.875
  22907459.904    -7810631.028 6  -5943263.66221        12.250           0.469
  22475258.998   -10757059.880 6  -8382116.98921        18.500           0.906
  20333671.045    -2383156.216 6                        18.250
  22910118.662    -7395399.596 5  -5565103.25421        10.500           0.469
 91  5 23 18 48 44.9980000  0  6G18G 2G16G11G19G 6
  21864356.193     5891209.849 6   4590547.29421        19.250           1.281
  21650994.217   -15435393.958 7 -11781113.61022        21.250           1.875
  22905169.303    -7822675.805 6  -5952649.23121        12.000           0.406
  22471348.068   -10777611.775 6  -8398131.44621        18.500           1.031
  20333683.873    -2383075.921 6                        19.250
  22901144.467    -7442559.880 5  -5601851.49521        10.500           0.469
 91  5 23 18 48 59.9980000  0  6G18G 2G16G11G19G 6
  21870845.811     5925317.299 6   4617124.48821        19.000           1.281
  21641730.279   -15484079.353 7 -11819050.25322        21.250           1.875
  22902902.897    -7834580.930 6  -5961925.96521        12.000           0.469
  22467465.522   -10798011.339 6  -8414027.20421        18.250           0.938
  20333711.561    -2382933.592 6                        19.500
  22892173.709    -7489698.570 5  -5638582.92521        10.500           0.406
 91  5 23 18 49 14.9980000  0  6G18G 2G16G11G19G 6
  21877351.811     5959496.859 6   4643757.87021        18.750           1.313
  21632479.131   -15532692.861 7 -11856930.88422        21.250           1.906
  22900663.717    -7846348.547 6  -5971095.53921        12.000           0.531
  22463612.498   -10818260.344 6  -8429805.64621        18.500           0.906
  20333750.053    -2382730.932 6                        19.250
  22883207.178    -7536817.431 5  -5675298.89021        10.500           0.281
 91  5 23 18 49 29.9980000  0  6G18G 2G16G11G19G 6
  21883870.436     5993762.092 6   4670458.00421        18.750           1.281
  21623244.514   -15581220.586 7 -11894744.66722        21.250           1.875
  22898453.162    -7857964.736 6  -5980147.12921        12.250           0.438
  22459791.240   -10838345.120 6  -8445456.11421        18.500           0.938
  20333802.639    -2382454.250 6  -1856458.36722        19.250           1.688
  22874245.522    -7583902.941 5  -5711988.87321        10.750           0.375
 91  5 23 18 49 44.9980000  0  6G18G 2G16G11G19G 6
  21890407.357     6028104.729 6   4697218.45221        18.250           1.281
  21614024.279   -15629670.263 7 -11932497.64022        21.500           1.938
  22896270.756    -7869437.563 6  -5989087.00821        12.000           0.469
  22455997.795   -10858273.341 6  -8460984.58821        18.750           0.938
  20333867.529    -2382111.317 6  -1856191.15722        19.250           1.750
  22865292.311    -7630962.864 5  -5748658.91721        10.750           0.406
 91  5 23 18 49 59.9980000  0  6G18G 2G16G11G19G 6
  21896956.654     6062526.669 6   4724040.69821        18.250           1.250
  21604820.232   -15678039.742 7 -11970188.11922        21.000           1.875
  22894115.084    -7880764.951 6  -5997913.54721        12.250           0.469
  22452235.326   -10878042.586 6  -8476389.18521        18.750           0.938
  20333945.568    -2381699.985 6  -1855870.65022        19.500           1.688
  22856341.318    -7677995.034 5  -5785307.32421        11.250           0.438
 91  5 23 18 50 14.9980000  0  6G18G 2G16G11G19G 6
  21903521.545     6097024.759 6   4750922.27921        18.250           1.250
  21595630.186   -15726331.872 7 -12007818.33022        21.250           1.906
  22891987.928    -7891950.016 6  -6006629.19821        12.000           0.406
  22448503.670   -10897655.685 6  -8491672.11721        18.750           0.813
  20334038.014    -2381223.222 6  -1855499.15622        19.500           1.750
  22847398.615    -7725002.413 5  -5821936.42821        11.500           0.406
 91  5 23 18 50 29.9980000  0  6G18G 2G16G11G19G 6
  21910102.068     6131602.753 6   4777866.12421        18.250           1.219
  21586455.248   -15774542.593 7 -12045385.09622        21.000           1.844
  22889884.912    -7902988.683 6  -6015230.76821        12.000           0.469
  22444802.014   -10917108.593 6  -8506830.22221        18.750           0.781
  20334142.959    -2380677.122 6  -1855073.63222        19.500           1.781
  22838458.576    -7771981.110 5  -5858543.18321        11.000           0.406
 91  5 23 18 50 44.9980000  0  6G18G 2G16G11G19G 6
  21916696.193     6166256.212 6   4804868.77021        18.000           1.125
  21577296.475   -15822676.001 7 -12082891.62922        21.500           1.875
  22887812.639    -7913885.220 5  -6023721.58621        11.750           0.344
  22441129.920   -10936405.419 6  -8521866.71021        18.750           0.938
  20334257.334    -2380065.739 6  -1854597.23622        19.750           1.844
  22829523.826    -7818935.213 5  -5895130.75521        11.000           0.563
 91  5 23 18 50 59.9980000  0  6G18G 2G16G11G19G 6
  21923305.998     6200991.197 6   4831934.94421        17.750           1.125
  21568153.959   -15870725.800 7 -12120333.00622        21.500           1.875
  22885766.623    -7924633.660 5  -6032096.99021        11.750           0.438
  22437489.865   -10955539.853 6  -8536776.65221        19.250           0.906
  20334387.100    -2379382.979 6  -1854065.21422        19.500           1.719
  22820592.467    -7865858.541 5  -5931694.35621        11.250           0.406
 91  5 23 18 51 14.9980000  0  6G18G 2G16G11G19G 6
  21929929.428     6235799.823 6   4859058.50821        17.750           1.156
  21559023.318   -15918699.277 7 -12157714.91722        21.000           1.844
  22883748.365    -7935241.573 6  -6040362.91021        12.250           0.469
  22433877.607   -10974519.372 6  -8551565.88421        19.500           0.938
  20334529.732    -2378636.395 6  -1853483.46522        19.750           1.688
  22811669.061    -7912758.734 5  -5968239.93921        11.250           0.469
 91  5 23 18 51 29.9980000  0  6G18G 2G16G11G19G 6
  21936569.318     6270687.158 6   4886243.39121        17.750           1.094
  21549909.498   -15966591.210 7 -12195033.28322        21.250           1.781
  22881757.678    -7945703.952 6  -6048515.42321        12.000           0.313
  22430297.053   -10993338.533 6  -8566230.16121        19.500           0.906
  20334684.482    -2377820.604 6  -1852847.78822        19.750           1.844
  22802749.740    -7959630.329 5  -6004763.22121        11.000           0.500
 91  5 23 18 51 44.9980000  0  6G18G 2G16G11G19G 6
  21943222.201     6305650.778 6   4913487.72121        17.500           1.156
  21540812.334   -16014403.443 7 -12232289.55322        21.250           1.781
  22879793.936    -7956022.594 6  -6056555.93021        12.000           0.375
  22426744.662   -11011999.169 6  -8580770.90821        19.250           0.938
  20334853.014    -2376937.742 6  -1852159.84422        19.750           1.750
  22793833.209    -8006475.352 5  -6041265.80521        11.250           0.406
 91  5 23 18 51 59.9980000  0  6G18G 2G16G11G19G 6
  21949887.248     6340681.723 6   4940784.51321        17.500           1.156
  21531727.006   -16062144.762 7 -12269490.56122        21.750           1.813
  22877856.490    -7966206.506 6  -6064491.45821        12.000           0.469
  22423223.201   -11030510.158 6  -8595195.05321        19.000           0.938
  20335031.537    -2375996.647 6  -1851426.52622        19.750           1.781
  22784925.873    -8053302.808 5  -6077754.69621        11.500           0.469
 91  5 23 18 52 14.9980000  0  6G18G 2G16G11G19G 6
  21956566.318     6375778.034 6   4968132.23621        17.500           1.125
  21522655.170   -16109817.078 7 -12306637.79922        22.000           1.875
  22875943.014    -7976257.720 6  -6072323.58421        12.000           0.469
  22419728.904   -11048873.286 6  -8609503.98121        19.250           0.969
  20335221.678    -2374999.122 6  -1850649.23922        19.750           1.781
  22776015.881    -8100114.536 5  -6114231.35621        11.250           0.406
 91  5 23 18 52 29.9980000  0  6G18G 2G16G11G19G 6
  21963258.076     6410943.737 6   4995534.03421        17.000           1.031
  21513597.764   -16157415.729 7 -12343727.63822        22.250           1.781
  22874057.561    -7986171.850 6  -6080048.88121        12.000           0.438
  22416263.193   -11067083.909 6  -8623694.07221        19.750           0.969
  20335422.412    -2373940.641 6  -1849824.45522        19.750           1.750
  22767112.428    -8146906.076 5  -6150692.28321        11.750           0.500
 91  5 23 18 52 44.9980000  0  6G18G 2G16G11G19G 6
  21969962.576     6446180.682 6   5022991.35421        16.750           1.094
  21504554.857   -16204938.516 7 -12380758.36322        22.500           1.813
  22872198.615    -7995946.801 6  -6087665.74421        12.250           0.438
  22412827.615   -11085139.841 6  -8637763.62421        19.750           1.031
  20335637.115    -2372819.109 6  -1848950.54322        19.750           1.781
  22758211.068    -8193675.184 5  -6187135.70921        11.500           0.406
 91  5 23 18 52 59.9980000  0  6G18G 2G16G11G19G 6
  21976682.373     6481484.570 6   5050500.82521        16.750           1.063
  21495524.717   -16252389.502 7 -12417733.13822        23.000           1.781
  22870361.842    -8005587.022 6  -6095177.63321        12.250           0.344
  22409420.248   -11103045.175 6  -8651715.82921        19.500           0.969
  20335862.209    -2371638.577 6  -1848030.66722        19.500           1.688
  22749317.068    -8240426.099 5  -6223564.97221        11.750           0.563
 91  5 23 18 53 14.9980000  0  6G18G 2G16G11G19G 6
  21983414.420     6516864.469 6   5078069.52921        16.750           1.125
  21486511.592   -16299759.452 7 -12454644.76622        22.750           1.844
  22868556.389    -8015083.508 6  -6102577.50521        12.250           0.406
  22406041.897   -11120790.753 6  -8665543.55621        19.000           0.938
  20336098.834    -2370390.033 7  -1847057.79122        20.000           1.781
  22740423.061    -8287149.740 5  -6259972.96021        11.750           0.563
 91  5 23 18 53 29.9980000  0  6G18G 2G16G11G19G 6
  21990159.287     6552307.792 6   5105687.65721        16.750           1.156
  21477508.928   -16347060.436 7 -12491502.65922        22.500           1.781
  22866771.795    -8024448.450 6  -6109874.88621        12.000           0.344
  22402693.897   -11138388.453 6  -8679256.05721        19.000           0.844
  20336350.889    -2369085.455 6  -1846041.25922        18.750           1.813
  22731537.701    -8333858.114 5  -6296369.07221        11.750           0.563
 91  5 23 18 53 44.9980000  0  6G18G 2G16G11G19G 6
  21996915.615     6587816.376 6   5133356.63121        17.000           1.031
  21468523.147   -16394290.188 7 -12528305.04222        22.250           1.844
  22865017.123    -8033679.376 6  -6117067.84021        12.000           0.375
  22399373.912   -11155835.960 6  -8692851.52321        19.000           1.000
  20336606.186    -2367722.675 6  -1844979.37722        19.750           1.781
  22722651.068    -8380549.015 6  -6332751.56121        12.000           0.531
 91  5 23 18 53 59.9980000  0  6G18G 2G16G11G19G 6
  22003684.795     6623385.714 6   5161072.95221        16.750           1.094
  21459548.342   -16441453.065 7 -12565055.31322        22.250           1.813
  22863284.889    -8042781.064 5  -6124160.06221        11.500           0.438
  22396081.092   -11173137.679 6  -8706333.38321        19.500           0.938
  20336874.826    -2366306.097 7  -1843875.57422        20.250           1.844
  22713767.139    -8427226.903 5  -6369123.92421        11.750           0.469
 91  5 23 18 54 14.9980000  0  6G18G 2G16G11G19G 6
  22010464.342     6659016.277 6   5188836.97521        17.000           1.094
  21450585.334   -16488548.183 7 -12601752.79022        22.250           1.875
  22861578.068    -8051753.198 5  -6131151.35521        11.750           0.344
  22392817.732   -11190292.754 6  -8719700.97521        19.250           0.875
  20337155.607    -2364835.042 6  -1842729.31422        19.750           1.750
  22704888.857    -8473891.054 5  -6405485.55921        11.500           0.500
 91  5 23 18 54 29.9980000  0  6G18G 2G16G11G19G 6
  22017258.537     6694710.459 6   5216650.57421        17.000           1.031
  21441636.522   -16535572.921 7 -12638395.42622        22.500           1.875
  22859894.045    -8060593.103 5  -6138039.60721        11.500           0.313
  22389580.975   -11207298.587 6  -8732952.27521        19.500           0.875
  20337448.272    -2363307.021 6  -1841538.66222        19.000           1.656
  22696012.647    -8520539.024 5  -6441834.61021        11.500           0.438
 91  5 23 18 54 44.9980000  0  6G18G 2G16G11G19G 6
  22024062.350     6730473.322 6   5244517.68721        16.500           0.969
  21432702.139   -16582521.646 7 -12674978.82622        22.250           1.813
  22858238.342    -8069295.244 5  -6144820.51821        11.750           0.438
  22386374.967   -11224149.574 6  -8746082.91221        19.500           0.781
  20337749.420    -2361716.445 6  -1840299.26322        19.500           1.719
  22687138.592    -8567165.120 5  -6478166.60521        11.500           0.594
 91  5 23 18 54 59.9980000  0  6G18G 2G16G11G19G 6
  22030883.584     6766309.073 6   5272441.59721        16.750           1.031
  21423784.295   -16629390.040 7 -12711499.63922        22.500           1.875
  22856610.811    -8077855.325 5  -6151490.73921        11.750           0.375
  22383197.787   -11240841.368 6  -8759089.50821        19.500           0.938
  20338064.022    -2360058.821 6  -1839007.63122        19.000           1.719
  22678269.475    -8613765.068 5  -6514478.22921        11.250           0.531
 91  5 23 18 55 14.9980000  0  6G18G 2G16G11G19G 6
  22037715.990     6802211.970 6   5300417.82521        16.750           1.094
  21414879.725   -16676183.435 7 -12747962.00822        22.250           1.906
  22855006.912    -8086279.197 5  -6158054.80421        11.750           0.281
  22380050.740   -11257379.310 6  -8771976.21421        19.750           0.969
  20338391.787    -2358339.779 6  -1837668.14222        19.250           1.781
  22669407.670    -8660344.323 5  -6550773.73721        11.500           0.438
 91  5 23 18 55 29.9980000  0  6G18G 2G16G11G19G 6
  22044558.920     6838184.326 6   5328448.18421        16.250           1.094
  21405989.990   -16722898.987 7 -12784363.72022        22.250           1.813
  22853430.647    -8094564.089 5  -6164510.58621        11.750           0.344
  22376934.537   -11273760.572 7  -8784740.83121        20.000           0.906
  20338730.764    -2356556.518 6  -1836278.61422        19.500           1.688
  22660548.928    -8706900.252 5  -6587051.04521        11.750           0.469
 91  5 23 18 55 44.9980000  0  6G18G 2G16G11G19G 6
  22051418.147     6874225.335 6   5356532.03921        16.750           1.063
  21397115.092   -16769537.719 7                        22.750
  22851880.998    -8102711.079 5  -6170858.92021        11.250           0.375
  22373845.811   -11289986.134 7  -8797384.12621        20.000           0.938
  20339082.553    -2354710.123 6  -1834839.89622        19.000           1.844
  22651693.287    -8753433.703 5                        11.750
 91  5 23 18 55 59.9980000  0  6G18G 2G16G11G19G 6
  22058290.123     6910331.566 6   5384666.71221        16.750           1.125
  21388253.834   -16816102.413 7                        22.750
  22850355.670    -8110723.157 5  -6177102.11521        11.750           0.375
  22370787.662   -11306058.754 6  -8809908.24321        19.750           0.938
  20339444.248    -2352803.503 6  -1833354.25622        19.250           1.750
  22642843.357    -8799947.640 5                        11.750
 91  5 23 18 56 14.9980000  0  6G18G 2G16G11G19G 6
  22065172.553     6946503.543 6   5412852.61921        16.750           1.063
  21379406.553   -16862592.426 7                        23.000
  22848856.506    -8118599.890 5  -6183239.86421        11.750           0.406
  22367758.068   -11321977.668 6  -8822312.58621        19.500           1.000
  20339819.717    -2350835.859 6  -1831821.05122        18.750           1.719
  22633995.412    -8846441.402 5                        11.750
 91  5 23 18 56 29.9980000  0  6G18G 2G16G11G19G 6
  22072069.061     6982744.739 6   5441092.46221        16.500           1.031
  21370574.568   -16909003.483 7                        22.750
  22847384.553    -8126337.643 6  -6189269.28421        12.000           0.344
  22364758.811   -11337738.946 6  -8834594.10121        19.500           0.938
  20340209.279    -2348803.317 6  -1830237.27622        18.000           1.719
  22625151.131    -8892910.998 5                        11.500
 91  5 23 18 56 44.9980000  0  6G18G 2G16G11G19G 6
  22078979.279     7019051.038 6   5469383.03421        16.500           0.969
  21361757.529   -16955339.349 7 -12965486.00322        22.500           1.875
  22845938.193    -8133939.992 6  -6195193.22121        12.000           0.375
  22361788.693   -11353346.302 6  -8846755.67821        19.500           0.906
  20340605.147    -2346709.655 6  -1828605.87022        19.250           1.844
  22616311.342    -8939360.231 5  -6768188.60321        11.750           0.500
 91  5 23 18 56 59.9980000  0  6G18G 2G16G11G19G 6
  22085898.553     7055423.056 6   5497724.81721        16.250           1.031
  21352955.022   -17001599.468 7 -13001532.83422        22.750           1.969
  22844516.428    -8141406.562 6  -6201011.34121        12.000           0.281
  22358849.115   -11368799.146 6  -8858796.85621        19.500           1.000
  20341013.670    -2344554.277 6  -1826926.37122        19.500           1.781
  22607475.232    -8985788.613 5  -6804366.53621        11.750           0.594
 91  5 23 18 57 14.9980000  0  6G18G 2G16G11G19G 6
  22092835.389     7091869.422 6   5526124.53521        16.500           1.031
  21344168.178   -17047774.666 7 -13037513.49322        22.500           2.094
  22843123.756    -8148728.623 6  -6206716.86721        12.000           0.438
  22355939.217   -11384088.324 6  -8870710.50221        19.750           0.906
  20341439.522    -2342327.980 6  -1825191.60822        19.000           1.688
  22598646.147    -9032187.065 6  -6840521.17121        12.000           0.563
 91  5 23 18 57 29.9980000  0  6G18G 2G16G11G19G 6
  22099782.600     7128379.183 6   5554573.65321        16.500           1.031
  21335395.779   -17093875.312 7 -13073436.05922        22.750           2.094
  22841755.303    -8155916.517 5  -6212317.83721        11.750           0.344
  22353058.451   -11399224.402 6  -8882504.85221        19.750           1.063
  20341874.272    -2340041.482 6  -1823409.93322        19.000           1.781
  22589822.506    -9078566.204 6  -6876660.72521        12.000           0.594
 91  5 23 18 57 44.9980000  0  6G18G 2G16G11G19G 6
  22106742.436     7164956.054 6   5583075.05221        16.500           1.000
  21326637.615   -17139897.864 7 -13109297.77222        22.500           2.000
  22840413.326    -8162966.942 5  -6217811.68921        11.500           0.406
  22350208.186   -11414203.468 6  -8894176.85821        19.500           0.938
  20342321.131    -2337691.022 6  -1821578.42422        19.000           1.844
  22581002.209    -9124922.247 6  -6912782.30321        12.000           0.500
 91  5 23 18 57 59.9980000  0  6G18G 2G16G11G19G 6
  22113716.490     7201599.740 6   5611628.52621        16.250           1.031
  21317893.912   -17185842.387 7 -13145098.68322        22.500           2.125
  22839098.811    -8169880.337 5  -6223198.76521        11.750           0.375
  22347387.756   -11429025.617 6  -8905726.58321        19.750           0.938
  20342780.022    -2335276.793 6  -1819697.22222        19.000           1.844
  22572184.639    -9171255.289 6  -6948885.93721        12.000           0.438
 91  5 23 18 58 14.9980000  0  6G18G 2G16G11G19G 6
  22120702.795     7238311.919 6   5640235.36221        16.500           0.969
  21309167.217   -17231706.513 7 -13180836.94522        22.500           2.156
  22837810.615    -8176654.303 5  -6228477.19321        11.750           0.375
  22344596.967   -11443688.723 6  -8917152.39121        19.500           0.844
  20343252.982    -2332796.632 6  -1817764.64222        19.250           1.875
  22563369.506    -9217563.175 6  -6984969.98221        12.000           0.500
 91  5 23 18 58 29.9980000  0  6G18G 2G16G11G19G 6
  22127700.928     7275090.239 6   5668893.73821        16.000           0.969
  21300454.092   -17277492.484 7 -13216514.31322        22.250           2.125
  22836547.100    -8183290.851 6  -6233648.55321        12.000           0.406
  22341836.670   -11458194.954 7  -8928455.95721        20.250           0.938
  20343736.482    -2330252.696 6  -1815782.36422        19.250           1.781
  22554564.998    -9263848.071 6  -7021036.12221        12.250           0.500
 91  5 23 18 58 44.9980000  0  6G18G 2G16G11G19G 6
  22134711.725     7311930.884 6   5697600.68921        16.000           1.031
  21291755.045   -17323203.712 7 -13252133.43322        22.500           2.031
  22835311.045    -8189794.185 6  -6238716.09721        12.000           0.375
  22339104.889   -11472547.681 6  -8939639.90621        19.750           0.875
  20344233.092    -2327648.379 6  -1813753.03522        19.250           1.719
  22545760.490    -9310113.475 6  -7057087.06121        12.000           0.500
 91  5 23 18 58 59.9980000  0  6G18G 2G16G11G19G 6
  22141734.912     7348835.842 6   5726357.73621        15.500           0.906
  21283072.068   -17368837.572 7 -13287692.26922        22.750           2.125
  22834098.303    -8196162.113 5  -6243678.11921        11.250           0.375
  22336404.389   -11486744.432 6  -8950702.31421        19.500           0.906
  20344742.123    -2324981.396 6  -1811674.88422        18.750           1.813
  22536959.522    -9356357.050 6  -7093120.99721        12.250           0.406
 91  5 23 18 59 14.9980000  0  6G18G 2G16G11G19G 6
  22148767.748     7385800.423 6   5755161.24621        15.500           0.906
  21274401.365   -17414398.634 7 -13323194.37822        23.500           2.188
  22832910.967    -8202398.978 5  -6248538.02721        11.500           0.406
  22333731.123   -11500789.713 7  -8961646.70121        20.250           0.969
  20345258.607    -2322256.210 6  -1809551.37222        19.000           1.813
  22528164.865    -9402583.234 6  -7129141.36721        12.500           0.469
 91  5 23 18 59 29.9980000  0  6G18G 2G16G11G19G 6
  22155815.959     7422835.217 6   5784019.48321        16.000           1.000
  21265748.006   -17459876.042 7 -13358631.30722        23.750           2.125
  22831751.053    -8208494.243 5  -6253287.61921        11.500           0.375
  22331089.936   -11514672.755 7  -8972464.66021        20.000           0.875
  20345789.998    -2319462.056 6  -1807374.12322        19.000           1.719
  22519369.561    -9448781.294 6  -7165139.83421        12.250           0.469
 91  5 23 18 59 44.9980000  0  6G18G 2G16G11G19G 6
  22162876.240     7459934.038 6   5812927.59621        15.750           1.000
  21257108.045   -17505275.630 7 -13394007.59622        23.500           2.188
  22830617.897    -8214453.999 6  -6257931.59221        12.250           0.438
  22328477.881   -11528399.324 7  -8983160.69621        20.000           0.906
  20346332.857    -2316604.852 6  -1805147.74022        18.750           1.750
  22510587.873    -9494957.215 6  -7201121.04921        12.250           0.625
 91  5 23 18 59 59.9980000  0  6G18G 2G16G11G19G 6
  22169947.568     7497098.203 6   5841886.62721        15.750           0.906
  21248484.990   -17550595.758 7 -13429321.96722        23.750           2.094
  22829508.834    -8220276.830 6  -6262468.88021        12.250           0.344
  22325895.959   -11541967.884 7  -8993733.60821        20.000           0.844
  20346890.553    -2313682.894 6  -1802870.90022        18.500           1.875
  22501801.045    -9541109.294 6  -7237083.66821        12.000           0.594
 91  5 23 19  0 14.9980000  0  6G18G 2G16G11G19G 6
  22177032.764     7534327.640 6   5870896.52721        15.500           0.844
  21239874.147   -17595836.497 7 -13464574.47422        23.500           2.094
  22828426.248    -8225962.944 6  -6266899.63621        12.000           0.375
  22323344.115   -11555378.412 6  -9004183.37621        19.750           0.875
  20347458.006    -2310696.232 6  -1800543.63922        19.000           1.844
  22493026.772    -9587237.607 6  -7273027.78521        12.500           0.563
 91  5 23 19  0 29.9980000  0  6G18G 2G16G11G19G 6
  22184131.482     7571622.870 6   5899957.68321        15.750           0.906
  21231281.357   -17640996.597 7 -13499764.15422        23.750           2.219
  22827371.170    -8231511.330 5  -6271223.07221        11.750           0.344
  22320822.389   -11568629.789 6  -9014509.13521        19.750           0.969
  20348038.943    -2307643.873 6  -1798165.18822        19.250           1.844
  22484251.193    -9633341.110 6  -7308952.57421        12.500           0.438
 91  5 23 19  0 44.9980000  0  6G18G 2G16G11G19G 6
  22191239.576     7608983.324 6   5929069.66221        15.750           0.906
  21222703.662   -17686076.067 7 -13534891.00022        23.500           2.281
  22826340.178    -8236922.278 5  -6275439.41921        11.750           0.344
  22318329.795   -11581722.135 6  -9024710.96821        19.750           1.000
  20348632.834    -2304526.058 6  -1795735.74022        19.000           1.875
  22475483.654    -9679419.849 6  -7344858.06821        12.500           0.500
 91  5 23 19  0 59.9980000  0  6G18G 2G16G11G19G 6
  22198361.240     7646407.085 6   5958230.97921        15.750           0.844
  21214138.982   -17731076.895 7 -13569956.57022        23.750           2.344
  22825337.412    -8242197.922 6  -6279550.32821        12.000           0.438
  22315869.248   -11594657.433 6  -9034790.43621        19.750           0.969
  20349239.482    -2301344.625 6  -1793256.71722        18.000           1.750
  22466720.506    -9725475.865 6  -7380745.85121        13.000           0.594
 91  5 23 19  1 14.9980000  0  6G18G 2G16G11G19G 6
  22205492.654     7683880.719 6   5987431.14921        15.750           0.906
  21205589.201   -17776011.907 7 -13604970.85122        23.750           2.219
  22824358.029    -8247351.472 5  -6283566.09221        11.750           0.313
  22313435.232   -11607448.617 6  -9044757.60421        19.750           0.969
  20349852.615    -2298112.521 6  -1790738.20322        19.000           1.875
  22457957.436    -9771522.141 6  -7416626.05021        13.000           0.656
 91  5 23 19  1 29.9980000  0  6G18G 2G16G11G19G 6
  22212633.686     7721411.780 6   6016676.07221        15.250           0.813
  21197052.397   -17820873.691 7 -13639928.07522        24.000           2.313
  22823401.240    -8252375.750 5  -6287481.15621        11.750           0.250
  22311029.748   -11620088.212 6  -9054606.65721        19.750           1.031
  20350478.217    -2294822.223 6  -1788174.34022        19.000           1.844
  22449195.397    -9817551.218 6  -7452492.84021        12.750           0.594
 91  5 23 19  1 44.9980000  0  6G18G 2G16G11G19G 6
  22219785.943     7758996.587 6   6045962.87821        15.250           0.844
  21188527.803   -17865665.347 7 -13674830.65422        23.750           2.375
  22822469.990    -8257273.988 6  -6291297.96421        12.000           0.313
  22308652.725   -11632579.321 7  -9064339.99921        20.000           1.063
  20351115.225    -2291476.970 6  -1785567.65822        18.750           1.813
  22440441.357    -9863566.190 6  -7488348.64421        13.000           0.500
 91  5 23 19  1 59.9980000  0  6G18G 2G16G11G19G 6
  22226950.178     7796640.158 6   6075295.47821        15.250           0.813
  21180018.365   -17910381.467 7 -13709674.37022        23.500           2.188
  22821563.029    -8262040.805 6  -6295012.40021        12.000           0.344
  22306305.350   -11644916.569 7  -9073953.45021        20.000           0.969
  20351764.076    -2288071.455 6  -1782914.02622        19.000           1.781
  22431690.498    -9909561.850 6  -7524189.38721        13.000           0.594
 91  5 23 19  2 14.9980000  0  6G18G 2G16G11G19G 6
  22234124.365     7834342.621 6   6104673.95221        15.250           0.813
  21171523.170   -17955021.526 7 -13744458.82122        23.250           2.250
  22820679.287    -8266675.995 6  -6298624.25921        12.250           0.281
  22303987.662   -11657099.534 7  -9083446.69321        20.000           1.063
  20352423.787    -2284605.294 6  -1780213.13322        19.000           1.938
  22422941.928    -9955537.613 6  -7560014.63321        12.750           0.563
 91  5 23 19  2 29.9980000  0  6G18G 2G16G11G19G 6
  22241308.053     7872100.300 6   6134095.46021        15.250           0.750
  21163042.889   -17999588.907 7 -13779186.64022        23.500           2.219
  22819822.139    -8271183.148 6  -6302136.35521        12.500           0.344
  22301697.490   -11669131.732 7  -9092822.45221        20.000           0.969
  20353093.475    -2281081.947 6  -1777467.68522        19.000           1.938
  22414195.975   -10001497.049 6  -7595827.16621        13.250           0.656
 91  5 23 19  2 44.9980000  0  6G18G 2G16G11G19G 6
  22248504.068     7909910.244 6   6163557.70021        15.500           0.906
  21154576.076   -18044086.278 7 -13813859.90322        23.500           2.156
  22818987.990    -8275565.058 6  -6305550.86721        12.250           0.313
  22299434.865   -11681015.634 7  -9102082.64921        20.000           1.000
  20353774.615    -2277503.809 6  -1774679.54822        19.000           1.969
  22405452.115   -10047442.723 6  -7631628.97121        12.750           0.594
 91  5 23 19  2 59.9980000  0  6G18G 2G16G11G19G 6
  22255712.404     7947785.771 6   6193071.04221        15.500           0.844
  21146124.553   -18088499.822 7 -13848467.84522        24.000           2.219
  22818180.662    -8279808.283 6  -6308857.28321        12.250           0.344
  22297205.061   -11692737.499 6  -9111216.59021        19.750           0.906
  20354470.623    -2273857.193 6  -1771838.04822        18.500           1.875
  22396714.600   -10093360.875 6  -7667409.33121        12.750           0.531
 91  5 23 19  3 14.9980000  0  6G18G 2G16G11G19G 6
  22262929.592     7985721.236 6   6222631.07921        15.250           0.875
  21137687.365   -18132835.130 7 -13883014.82222        24.000           2.344
  22817398.811    -8283918.828 6  -6312060.34721        12.250           0.406
  22295005.131   -11704303.058 6  -9120228.72821        19.500           0.969
  20355174.139    -2270147.961 6  -1768947.76322        19.000           1.938
  22387979.475   -10139257.258 6  -7703172.71821        12.750           0.469
 91  5 23 19  3 29.9980000  0  6G18G 2G16G11G19G 6
  22270161.279     8023711.202 6   6252233.58621        15.500           0.813
  21129264.576   -18177097.467 7 -13917504.94322        24.000           2.344
  22816640.537    -8287901.998 6  -6315164.12821        12.000           0.438
  22292832.365   -11715717.372 6  -9129123.01221        19.250           1.000
  20355890.193    -2266381.282 6  -1766012.70822        19.000           1.938
  22379249.193   -10185137.063 6  -7738923.19621        12.750           0.531
 91  5 23 19  3 44.9980000  0  6G18G 2G16G11G19G 6
  22277401.170     8061756.603 6   6281879.29021        15.250           0.688
  21120855.795   -18221285.375 7 -13951937.06222        24.000           2.313
  22815907.326    -8291756.240 6  -6318167.46921        12.250           0.313
  22290689.186   -11726979.245 6  -9137898.52021        19.000           1.000
  20356619.397    -2262555.872 6  -1763031.88322        19.000           1.938
  22370523.779   -10230998.891 6  -7774659.66721        12.750           0.500
 91  5 23 19  3 59.9980000  0  6G18G 2G16G11G19G 6
  22284650.037     8099857.311 6   6311568.09121        15.500           0.781
  21112460.850   -18265398.503 7 -13986310.92222        23.750           2.375
  22815198.139    -8295481.877 5  -6321070.60221        11.750           0.313
  22288575.436   -11738088.472 6  -9146555.07721        19.500           0.938
  20357358.514    -2258671.659 6  -1760005.23722        19.250           1.969
  22361797.428   -10276842.692 6  -7810382.08221        12.500           0.563
 91  5 23 19  4 14.9980000  0  6G18G 2G16G11G19G 6
  22291912.514     8138014.819 6   6341301.15121        15.500           0.719
  21104080.475   -18309435.334 7 -14020625.32122        23.500           2.188
  22814513.201    -8299077.545 5  -6323872.43321        11.750           0.406
  22286490.350   -11749043.397 6  -9155091.39421        19.500           0.875
  20358108.982    -2254726.852 6  -1756931.37422        19.500           1.969
  22353077.967   -10322666.785 6  -7846089.14621        13.000           0.625
 91  5 23 19  4 29.9980000  0  6G18G 2G16G11G19G 6
  22299185.162     8176233.371 6   6371081.77521        15.250           0.813
  21095716.873   -18353391.085 7 -14054876.54022        23.500           2.281
  22813855.084    -8302538.626 5  -6326569.42821        11.750           0.313
  22284436.506   -11759839.366 6  -9163503.85221        19.250           0.906
  20358872.217    -2250716.655 6  -1753806.55322        19.500           1.906
  22344360.654   -10368466.382 6  -7881777.12121        13.250           0.563
 91  5 23 19  4 44.9980000  0  6G18G 2G16G11G19G 6
  22306467.678     8214508.647 6   6400906.59921        14.750           0.656
  21087367.811   -18397269.498 7 -14089067.49822        23.750           2.250
  22813222.701    -8305868.815 6  -6329164.40621        12.000           0.375
  22282411.061   -11770480.222 6  -9171795.44221        19.500           0.875
  20359647.373    -2246645.090 6  -1750633.92022        19.500           1.906
  22335649.537   -10414245.314 6  -7917449.00421        13.000           0.531
 91  5 23 19  4 59.9980000  0  6G18G 2G16G11G19G 6
  22313763.131     8252840.612 6   6430775.59921        14.500           0.813
  21079031.295   -18441070.550 7 -14123198.17222        23.500           2.219
  22812612.607    -8309068.714 6  -6331657.86021        12.250           0.375
  22280415.943   -11780965.960 6  -9179966.15521        19.750           0.969
  20360433.850    -2242511.964 6  -1747413.31822        19.500           1.938
  22326944.717   -10460003.681 6  -7953104.86921        13.000           0.563
 91  5 23 19  5 14.9980000  0  6G18G 2G16G11G19G 6
  22321065.170     8291220.649 6   6460682.04821        14.250           0.750
  21070710.209   -18484802.562 7 -14157275.04822        23.500           2.250
  22812027.084    -8312146.655 6  -6334056.27521        12.250           0.344
  22278448.873   -11791304.932 7  -9188022.51021        20.000           0.906
  20361230.639    -2238325.638 6  -1744151.26022        19.500           1.875
  22318237.397   -10505749.851 6  -7988751.23421        13.000           0.563
 91  5 23 19  5 29.9980000  0  6G18G 2G16G11G19G 6
  22328378.412     8329659.984 6   6490634.71121        14.000           0.750
  21062403.248   -18528454.123 7 -14191289.24022        23.500           2.313
  22811467.772    -8315091.483 6  -6336350.98521        12.500           0.406
  22276511.225   -11801485.744 7  -9195955.62821        20.000           0.969
  20362039.897    -2234074.864 6  -1740838.97522        19.250           1.906
  22309534.811   -10551472.352 6  -8024379.14521        13.000           0.625
 91  5 23 19  5 44.9980000  0  6G18G 2G16G11G19G 6
  22335704.951     8368151.870 6   6520628.32321        14.250           0.719
  21054110.904   -18572031.425 7 -14225245.56922        23.250           2.281
  22810930.232    -8317909.853 6  -6338547.15021        12.500           0.375
  22274602.482   -11811514.791 6  -9203770.48921        19.750           0.938
  20362859.147    -2229766.040 6  -1737481.45622        19.750           1.813
  22300841.545   -10597177.571 6  -8059993.59021        13.000           0.563
 91  5 23 19  5 59.9980000  0  6G18G 2G16G11G19G 6
  22343042.420     8406702.325 6   6550667.56121        14.000           0.719
  21045834.522   -18615528.220 7 -14259139.16422        23.750           2.406
  22810419.084    -8320595.713 6  -6340640.05421        12.250           0.344
  22272724.264   -11821385.851 6  -9211462.24221        19.500           1.031
  20363693.912    -2225392.813 6  -1734073.75222        18.750           1.875
  22292145.467   -10642859.221 6  -8095589.66521        13.000           0.656
 91  5 23 19  6 14.9980000  0  6G18G 2G16G11G19G 6
  22350390.326     8445320.515 6   6580759.59921        14.000           0.719
  21037573.850   -18658935.325 7 -14292962.87122        24.500           2.281
  22809934.670    -8323139.823 6  -6342622.50921        12.500           0.344
  22270878.022   -11831089.571 6  -9219023.59621        19.000           0.844
  20364538.311    -2220945.827 6  -1730608.56822        19.750           1.969
  22283460.647   -10688507.991 6  -8131160.11221        13.000           0.719
 91  5 23 19  6 29.9980000  0  6G18G 2G16G11G19G 6
  22357748.842     8483996.733 6   6610896.84121        13.500           0.688
  21029329.092   -18702261.880 7 -14326723.81022        24.250           2.406
  22809477.295    -8325551.595 6  -6344501.83321        12.250           0.313
  22269060.764   -11840635.344 6  -9226461.88421        19.000           0.969
  20365394.811    -2216434.377 7  -1727093.16322        20.250           1.875
  22274776.248   -10734133.235 6  -8166712.23421        13.250           0.563
 91  5 23 19  6 44.9980000  0  6G18G 2G16G11G19G 6
  22365119.717     8522731.653 6   6641079.83321        13.500           0.719
  21021099.584   -18745506.667 7 -14360421.03222        24.500           2.281
  22809042.373    -8327830.097 6  -6346277.32121        12.250           0.406
  22267275.982   -11850022.089 6  -9233776.24821        19.250           0.938
  20366266.897    -2211857.532 6  -1723526.80422        19.500           1.906
  22266101.615   -10779733.824 6  -8202245.14021        13.250           0.594
 91  5 23 19  6 59.9980000  0  6G18G 2G16G11G19G 6
  22372502.553     8561525.996 6   6671309.11821        13.750           0.750
  21012886.264   -18788668.688 7 -14394053.76122        24.500           2.219
  22808636.701    -8329974.951 6  -6347948.67421        12.500           0.344
  22265519.459   -11859248.869 6  -9240965.96921        19.000           0.969
  20367151.779    -2207214.534 6  -1719908.89822        19.000           1.875
  22257426.553   -10825308.916 6  -8237758.18521        13.500           0.594
 91  5 23 19  7 14.9980000  0  6G18G 2G16G11G19G 6
  22379895.959     8600376.140 6   6701581.89021        13.750           0.750
  21004687.592   -18831751.117 7 -14427624.47322        24.500           2.250
  22808250.115    -8331989.381 6  -6349518.39121        12.250           0.531
  22263793.756   -11868318.836 6  -9248033.49621        19.000           1.000
  20368046.459    -2202508.322 6  -1716241.73522        19.250           1.844
  22248760.951   -10870861.538 6  -8273253.70321        13.750           0.594
 91  5 23 19  7 29.9980000  0  6G18G 2G16G11G19G 6
  22387300.615     8639283.955 6   6731899.60221        13.500           0.781
  20996505.209   -18874751.860 7 -14461131.53222        24.000           2.188
  22807893.014    -8333871.556 6  -6350985.04721        12.000           0.406
  22262098.100   -11877229.882 6  -9254977.18921        19.500           1.000
  20368954.350    -2197736.740 6  -1712523.63622        19.500           1.906
  22240095.373   -10916389.661 6  -8308730.15321        14.000           0.719
 91  5 23 19  7 44.9980000  0  6G18G 2G16G11G19G 6
  22394714.951     8678250.265 6   6762262.90421        13.500           0.719
  20988338.193   -18917670.002 7 -14494574.22722        24.000           2.313
  22807560.607    -8335620.485 6  -6352347.88421        12.000           0.344
  22260432.256   -11885981.165 6  -9261796.39221        19.250           0.969
  20369874.389    -2192898.984 6  -1708753.95722        19.500           1.875
  22231434.623   -10961892.344 6  -8344186.77321        13.500           0.563
 91  5 23 19  7 59.9980000  0  6G18G 2G16G11G19G 6
  22402141.061     8717274.951 6   6792671.67321        13.500           0.688
  20980185.975   -18960505.472 7 -14527952.50622        24.000           2.281
  22807252.045    -8337236.285 5  -6353606.96921        11.500           0.250
  22258797.272   -11894572.635 6  -9268491.05421        19.500           0.969
  20370807.232    -2187994.682 6  -1704932.43022        19.500           1.875
  22222782.857   -11007369.491 6  -8379623.48821        13.750           0.656
 91  5 23 19  8 14.9980000  0  6G18G 2G16G11G19G 6
  22409579.717     8756356.745 6   6823124.96021        13.750           0.656
  20972051.240   -19003259.241 7 -14561267.11222        24.250           2.281
  22806968.967    -8338720.296 5  -6354763.37521        11.500           0.250
  22257192.811   -11903005.184 6  -9275061.88221        19.250           1.063
  20371754.686    -2183025.064 6  -1701060.00722        19.250           1.844
  22214133.256   -11052822.102 6  -8415041.08721        14.000           0.688
 91  5 23 19  8 29.9980000  0  6G18G 2G16G11G19G 6
  22417028.522     8795502.076 6   6853627.74621        13.750           0.656
  20963932.772   -19045924.228 7 -14594512.54322        24.250           2.250
  22806713.295    -8340065.659 5  -6355811.73221        11.250           0.281
  22255620.084   -11911272.109 6  -9281503.65621        19.250           1.031
  20372712.678    -2177983.268 6  -1697131.33622        19.500           1.813
  22205487.990   -11098243.222 6  -8450434.15521        14.000           0.625
 91  5 23 19  8 44.9980000  0  6G18G 2G16G11G19G 6
  22424486.209     8834694.764 6   6884167.43121        14.000           0.719
  20955826.982   -19088516.070 7 -14627700.97522        23.750           2.313
  22806481.897    -8341288.480 5  -6356764.62721        11.250           0.313
  22254075.264   -11919389.226 6  -9287828.68821        19.000           0.969
  20373683.607    -2172885.128 6  -1693158.76422        19.250           1.781
  22196848.147   -11143648.720 6  -8485815.04721        14.000           0.719
 91  5 23 19  8 59.9980000  0  6G18G 2G16G11G19G 6
  22431951.975     8873929.851 6   6914740.16821        13.750           0.688
  20947735.475   -19131039.929 7 -14660836.43522        23.750           2.281
  22806270.912    -8342393.887 5  -6357625.98221        11.250           0.344
  22252558.334   -11927361.504 6  -9294040.85521        18.750           0.969
  20374665.928    -2167735.579 6  -1689146.12922        18.750           1.875
  22188210.311   -11189043.569 6  -8521187.64921        14.000           0.656
 91  5 23 19  9 14.9980000  0  6G18G 2G16G11G19G 6
  22439427.506     8913214.516 6   6945351.52921        13.500           0.719
  20939657.342   -19173488.081 7 -14693912.90222        23.500           2.313
  22806084.889    -8343374.388 5  -6358390.04921        11.250           0.313
  22251070.154   -11935181.437 6  -9300134.32121        19.000           0.969
  20375653.857    -2162527.073 6  -1685087.56122        19.250           1.875
  22179575.748   -11234420.097 6  -8556545.95521        14.250           0.719
 91  5 23 19  9 29.9980000  0  6G18G 2G16G11G19G 6
  22446912.014     8952543.692 6   6975997.56921        13.500           0.781
  20931592.639   -19215865.230 7 -14726934.03922        23.250           2.375
  22805921.490    -8344235.329 5  -6359060.95021        11.000           0.250
  22249609.873   -11942853.812 6  -9306112.80921        19.000           0.969
  20376654.342    -2157264.453 7  -1680986.82522        20.000           1.844
  22170945.686   -11279783.133 6  -8591893.76221        14.500           0.750
 91  5 23 19  9 44.9980000  0  6G18G 2G16G11G19G 6
  22454404.350     8991913.665 6   7006675.40521        13.250           0.719
  20923540.545   -19258174.813 7 -14759902.52622        23.500           2.375
  22805778.607    -8344980.133 5  -6359641.33121        10.750           0.344
  22248177.451   -11950382.190 6  -9311979.08721        19.000           1.063
  20377666.295    -2151951.047 6  -1676846.51422        19.250           1.906
  22162313.217   -11325136.149 6  -8627233.75821        14.250           0.750
 91  5 23 19  9 59.9980000  0  6G18G 2G16G11G19G 6
  22461903.514     9031329.225 6   7037388.75521        13.000           0.656
  20915503.811   -19300411.574 7 -14792814.26522        23.500           2.281
  22805660.459    -8345604.084 5  -6360127.56421        11.000           0.344
  22246773.084   -11957761.338 6  -9317729.08421        19.250           1.094
  20378688.818    -2146581.733 6  -1672662.64422        19.250           2.063
  22153687.717   -11370473.960 6  -8662561.90421        14.000           0.719
 91  5 23 19 10 14.9980000  0  6G18G 2G16G11G19G 6
  22469412.467     9070788.671 6   7068136.30621        13.000           0.750
  20907480.006   -19342577.104 7 -14825670.50722        23.750           2.375
  22805563.084    -8346108.676 5  -6360520.78421        11.000           0.344
  22245397.186   -11964992.790 6  -9323363.99121        19.000           1.031
  20379720.850    -2141157.886 6  -1668436.27722        19.500           1.906
  22145061.053   -11415798.014 6  -8697879.32921        14.000           0.719
 91  5 23 19 10 29.9980000  0  6G18G 2G16G11G19G 6
  22476929.850     9110286.528 6   7098913.78721        13.250           0.719
  20899469.201   -19384676.765 7 -14858475.41822        24.000           2.469
  22805490.272    -8346499.608 5  -6360825.43521        11.000           0.406
  22244048.475   -11972081.956 6  -9328888.02221        18.750           0.969
  20380761.779    -2135684.911 6  -1664171.62922        19.250           2.094
  22136436.834   -11461113.645 6  -8733190.18721        14.000           0.781
 91  5 23 19 10 44.9980000  0  6G18G 2G16G11G19G 6
  22484457.068     9149835.752 6   7129731.28821        13.250           0.656
  20891474.217   -19426697.040 7 -14891218.46922        24.250           2.406
  22805439.850    -8346763.428 5  -6361031.04021        11.500           0.313
  22242727.889   -11979015.532 6  -9334290.81221        18.750           0.969
  20381815.303    -2130149.488 6  -1659858.32122        19.000           2.063
  22127817.467   -11506407.424 6  -8768484.03021        14.000           0.781
 91  5 23 19 10 59.9970000  0  6G18G 2G16G11G19G 6
  22491989.259     9189427.143 6   7160581.65621        12.750           0.719
  20883492.048   -19468641.119 7 -14923902.14622        24.250           2.406
  22805412.454    -8346906.539 5                        11.500
  22241437.446   -11985799.111 6  -9339576.72121        18.500           1.031
  20382879.657    -2124558.077 6  -1655501.39222        19.250           2.031
  22119202.110   -11551682.399 6  -8803763.20521        14.250           0.719
 91  5 23 19 11 14.9970000  0  6G18G 2G16G11G19G 6
  22499533.298     9229073.675 6   7191474.98121        12.750           0.594
  20875525.251   -19510506.804 7 -14956524.74522        24.500           2.375
  22805408.751    -8346921.485 5                        11.500
  22240176.649   -11992425.773 6  -9344740.36221        18.750           1.031
  20383955.954    -2118902.025 6  -1651094.09022        19.500           1.938
  22110592.509   -11596936.826 6  -8839026.38621        14.750           0.594
 91  5 23 19 11 29.9970000  0  6G18G 2G16G11G19G 6
  22507089.985     9268773.459 6   7222409.80921        12.750           0.625
  20867573.095   -19552290.298 7 -14989083.28922        24.750           2.406
  22805431.884    -8346807.537 5                        11.000
  22238946.188   -11998894.308 6  -9349780.79321        18.750           1.063
  20385047.063    -2113180.765 6  -1646635.97422        18.500           1.938
  22101987.110   -11642166.732 6  -8874270.45921        14.750           0.719
 91  5 23 19 11 44.9970000  0  6G18G 2G16G11G19G 6
  22514654.157     9308527.853 6   7253387.18421        12.750           0.688
  20859638.571   -19593989.726 7 -15021576.33922        24.500           2.438
  22805477.517    -8346562.977 5                        11.000
  22237744.759   -12005202.922 6  -9354696.60521        18.500           1.031
  20386145.634    -2107392.696 6  -1642125.80622        19.250           1.875
  22093382.048   -11687370.299 6  -8909494.00621        14.500           0.688
 91  5 23 19 11 59.9970000  0  6G18G 2G16G11G19G 6
  22522228.704     9348332.638 6   7284403.82321        12.500           0.625
  20851719.306   -19635609.115 7 -15054007.01922        24.750           2.406
  22805547.563    -8346191.895 5                        11.000
  22236574.368   -12011355.857 6  -9359491.11921        19.000           0.969
  20387259.438    -2101541.750 6  -1637566.64022        19.000           1.938
  22084783.587   -11732551.582 6  -8944700.18221        14.750           0.813
 91  5 23 19 12 14.9970000  0  6G18G 2G16G11G19G 6
  22529812.267     9388184.659 6   7315457.27221        12.750           0.656
  20843812.603   -19677151.268 7 -15086377.51522        24.500           2.344
  22805642.806    -8345697.617 5  -6360200.73121        11.000           0.313
  22235433.267   -12017355.891 6  -9364166.48121        18.750           1.000
  20388384.704    -2095630.617 6  -1632960.57322        19.250           1.938
  22076191.923   -11777713.295 6  -8979891.10221        14.750           0.750
 91  5 23 19 12 29.9970000  0  6G18G 2G16G11G19G 6
  22537405.571     9428079.403 6   7346544.01621        12.750           0.594
  20835922.415   -19718620.418 7 -15118691.12222        24.750           2.406
  22805760.001    -8345084.591 5  -6359723.09221        11.250           0.375
  22234319.759   -12023207.250 6  -9368725.99221        18.500           1.000
  20389520.704    -2089663.617 6  -1628310.97122        19.000           1.906
  22067598.759   -11822859.713 6  -9015070.11921        14.500           0.688
 91  5 23 19 12 44.9970000  0  6G18G 2G16G11G19G 6
  22545003.001     9468015.168 6   7377662.72221        12.500           0.563
  20828043.915   -19760018.014 7 -15150948.97422        24.500           2.250
  22805897.384    -8344354.451 5  -6359154.18821        11.000           0.375
  22233233.485   -12028911.466 6  -9373170.85621        18.500           0.969
  20390666.095    -2083642.242 6  -1623619.00922        19.500           1.969
  22059011.563   -11867992.292 6  -9050238.34421        14.750           0.656
 91  5 23 19 12 59.9970000  0  6G18G 2G16G11G19G 6
  22552611.626     9507993.619 6   7408814.69121        12.250           0.500
  20820180.470   -19801342.411 7 -15183149.78822        24.750           2.406
  22806061.985    -8343505.831 5  -6358492.96021        11.250           0.438
  22232176.220   -12034466.847 6  -9377499.72521        18.250           0.938
  20391821.954    -2077564.781 6  -1618883.33422        19.250           1.938
  22050425.876   -11913109.342 6  -9085394.46121        14.500           0.688
 91  5 23 19 13 14.9970000  0  6G18G 2G16G11G19G 6
  22560227.868     9548016.223 6   7440001.05821        12.500           0.531
  20812331.056   -19842591.422 7 -15215291.86322        24.750           2.344
  22806242.673    -8342536.749 5  -6357737.85021        10.750           0.500
  22231147.649   -12039871.556 6  -9381711.20221        18.000           0.906
  20392989.587    -2071429.372 6  -1614102.51022        19.250           2.031
  22041843.595   -11958208.849 6  -9120536.91021        14.500           0.719
 91  5 23 19 13 29.9970000  0  6G18G 2G16G11G19G 6
  22567852.688     9588085.769 6   7471224.00221        12.500           0.563
  20804496.657   -19883761.999 7 -15247372.81622        25.000           2.344
  22806453.079    -8341444.636 5  -6356886.89821        10.750           0.438
  22230148.665   -12045122.592 6  -9385802.92021        18.250           0.906
  20394171.688    -2065232.956 6  -1609274.14622        18.250           2.031
  22033264.915   -12003287.784 6  -9155663.34221        14.500           0.719
 91  5 23 19 13 44.9970000  0  6G18G 2G16G11G19G 6
  22575485.345     9628208.512 6   7502488.40121        12.000           0.563
  20796677.462   -19924847.548 7 -15279387.51722        25.000           2.438
  22806686.024    -8340222.974 5  -6355934.97421        10.500           0.344
  22229180.290   -12050213.444 6  -9389769.82621        18.250           0.969
  20395360.821    -2058968.791 6  -1604392.99122        19.000           1.969
  22024693.634   -12048339.572 6  -9190768.60621        14.500           0.625
 91  5 23 19 13 59.9970000  0  6G18G 2G16G11G19G 6
  22583130.556     9668381.290 6   7533791.79921        12.250           0.500
  20788875.665   -19965850.905 7 -15311338.17323        24.750           2.531
  22806941.157    -8338874.791 5  -6354884.48421        10.500           0.344
  22228241.985   -12055146.983 6  -9393614.15821        18.000           1.000
  20396565.040    -2052639.743 6  -1599461.28322        19.500           1.969
  22016122.423   -12093366.983 6  -9225854.87921        14.500           0.750
 91  5 23 19 14 14.9970000  0  6G18G 2G16G11G19G 6
  22590788.251     9708603.659 6   7565133.83621        12.250           0.563
  20781087.353   -20006772.223 7 -15343224.90322        24.250           2.375
  22807220.517    -8337400.517 5  -6353735.73121        10.250           0.375
  22227333.017   -12059923.406 6  -9397336.05921        18.250           1.000
  20397780.938    -2046246.011 6  -1594479.16422        19.000           1.969
  22007561.540   -12138370.067 6  -9260922.20521        14.250           0.719
 91  5 23 19 14 29.9970000  0  6G18G 2G16G11G19G 6
  22598446.837     9748868.217 6   7596508.72621        12.250           0.563
  20773314.946   -20047618.379 7 -15375053.06523        24.500           2.531
  22807524.118    -8335807.463 5  -6352494.41121        10.500           0.375
  22226452.720   -12064549.831 6  -9400941.07721        18.500           1.000
  20399009.673    -2039794.557 6  -1589452.06722        18.750           1.938
  21999000.368   -12183355.943 6  -9295976.11221        14.500           0.688
 91  5 23 19 14 44.9970000  0  6G18G 2G16G11G19G 6
  22606119.618     9789185.994 6   7627925.10021        12.250           0.469
  20765559.649   -20088377.884 7 -15406813.69722        24.750           2.438
  22807851.673    -8334084.514 5  -6351151.89121        10.750           0.313
  22225603.017   -12069015.023 6  -9404420.45521        18.000           0.938
  20400249.837    -2033274.001 6  -1584371.13022        19.000           2.031
  21990441.876   -12228313.143 6  -9331007.67821        14.500           0.688
 91  5 23 19 14 59.9970000  0  6G18G 2G16G11G19G 6
  22613802.196     9829548.214 6   7659376.11821        12.500           0.438
  20757817.688   -20129059.465 7 -15438513.61522        24.750           2.469
  22808202.446    -8332240.436 5  -6349714.99121        11.000           0.375
  22224782.048   -12073327.619 6  -9407780.93521        18.000           0.906
  20401502.829    -2026692.986 6  -1579243.08122        18.750           1.938
  21981892.501   -12273250.380 6  -9366023.68621        14.250           0.594
 91  5 23 19 15 14.9970000  0  6G18G 2G16G11G19G 6
  22621493.048     9869959.616 6   7690865.43121        12.500           0.500
  20750092.228   -20169658.323 7 -15470149.06723        25.250           2.500
  22808578.501    -8330270.426 5  -6348179.94321        11.000           0.281
  22223991.454   -12077482.940 6  -9411018.86521        17.750           0.969
  20402767.649    -2020046.702 6  -1574064.17322        18.500           1.938
  21973347.103   -12318162.760 6  -9401020.32921        14.500           0.719
 91  5 23 19 15 29.9970000  0  6G18G 2G16G11G19G 6
  22629191.540     9910423.319 5   7722395.50721        11.750           0.531
  20742382.399   -20210170.942 7 -15501717.31722        25.250           2.406
  22808977.501    -8328171.381 5  -6346544.36221        11.000           0.438
  22223231.063   -12081477.632 6  -9414131.62921        17.750           0.906
  20404046.595    -2013331.758 6  -1568831.76222        18.000           2.000
  21964806.407   -12363046.824 6  -9435994.90921        14.500           0.625
 91  5 23 19 15 44.9970000  0  6G18G 2G16G11G19G 6
  22636901.540     9950936.992 5   7753964.52821        11.750           0.563
  20734689.337   -20250599.209 7 -15533219.84822        25.000           2.469
  22809401.149    -8325945.557 5  -6344809.99821        11.000           0.313
  22222501.071   -12085313.426 6  -9417120.56421        17.750           1.000
  20405335.587    -2006550.015 6  -1563547.30022        18.500           1.906
  21956268.892   -12407904.329 6  -9470948.78121        14.750           0.719
 91  5 23 19 15 59.9970000  0  6G18G 2G16G11G19G 6
  22644619.368     9991493.678 6   7785567.06921        12.250           0.469
  20727011.696   -20290949.865 7 -15564661.90222        25.250           2.406
  22809848.829    -8323599.881 5  -6342982.23421        11.000           0.375
  22221799.540   -12088997.245 6  -9419991.08521        17.750           0.969
  20406638.032    -1999708.329 6  -1558216.12422        18.500           1.969
  21947736.509   -12452742.108 6  -9505887.29821        15.000           0.719
 91  5 23 19 16 14.9970000  0  6G18G 2G16G11G19G 6
  22652345.274    10032095.550 5   7817204.81021        11.750           0.438
  20719348.188   -20331220.226 7 -15596041.38923        25.250           2.563
  22810317.345    -8321132.188 5  -6341059.39521        10.750           0.313
  22221128.853   -12092526.693 6  -9422741.31621        17.750           1.063
  20407952.282    -1992804.067 6  -1552836.19422        18.500           1.906
  21939207.103   -12497557.742 6  -9540808.55221        14.750           0.688
 91  5 23 19 16 29.9970000  0  6G18G 2G16G11G19G 6
  22660079.384    10072742.930 5   7848878.02221        11.500           0.500
  20711701.181   -20371409.791 7 -15627357.91222        25.500           2.469
  22810811.259    -8318542.258 5  -6339041.29521        11.000           0.438
  22220485.603   -12095901.414 6  -9425370.98721        17.500           1.000
  20409277.931    -1985836.671 6  -1547407.06322        18.500           2.000
  21930684.134   -12542350.472 6  -9575711.95921        14.750           0.750
 91  5 23 19 16 44.9970000  0  6G18G 2G16G11G19G 6
  22667822.673    10113433.133 5   7880584.58921        11.250           0.563
  20704067.532   -20411520.885 7 -15658613.29722        25.750           2.469
  22811328.040    -8315832.274 5  -6336929.65621        10.750           0.281
  22219872.415   -12099123.738 6  -9427881.90121        17.500           1.031
  20410615.165    -1978808.476 6  -1541930.56222        19.000           1.938
  21922164.196   -12587122.637 6  -9610599.33921        15.000           0.688
 91  5 23 19 16 59.9970000  0  6G18G 2G16G11G19G 6
  22675573.907    10154160.641 5   7912320.23021        11.250           0.500
  20696448.892   -20451558.809 7 -15689811.66223        25.750           2.531
  22811865.462    -8313008.265 5  -6334729.15921        11.000           0.406
  22219287.735   -12102199.064 6  -9430278.27321        17.750           0.938
  20411961.603    -1971724.892 6  -1536410.89722        18.500           2.000
  21913647.571   -12631879.593 6  -9645474.86121        15.000           0.688
 91  5 23 19 17 14.9970000  0  6G18G 2G16G11G19G 6
  22683331.563    10194930.595 5   7944088.94121        11.250           0.500
  20688843.524   -20491518.100 7 -15720948.75322        25.250           2.469
  22812423.743    -8310064.840 5  -6332435.61821        10.500           0.375
  22218731.853   -12105122.109 6  -9432555.97421        18.000           0.875
  20413322.735    -1964580.401 6  -1530843.77122        18.750           1.969
  21905136.118   -12676615.828 6  -9680334.25121        15.000           0.813
 91  5 23 19 17 29.9970000  0  6G18G 2G16G11G19G 6
  22691096.688    10235737.526 5   7975886.47421        10.750           0.500
  20681254.407   -20531404.012 7 -15752028.67022        25.500           2.469
  22813004.649    -8307007.489 5  -6330053.29021        10.750           0.344
  22218203.556   -12107898.134 6  -9434719.11321        18.250           0.875
  20414692.712    -1957380.232 6  -1525233.26222        18.750           1.875
  21896626.212   -12721336.657 6  -9715181.63221        14.750           0.906
 91  5 23 19 17 44.9970000  0  6G18G 2G16G11G19G 6
  22698869.571    10276584.818 5   8007715.45521        11.250           0.438
  20673678.407   -20571212.653 7 -15783048.37223        25.250           2.500
  22813611.876    -8303832.575 5  -6327579.36921        11.250           0.375
  22217702.798   -12110523.231 6  -9436764.65021        17.750           0.938
  20416073.907    -1950120.503 6  -1519576.33822        18.750           1.969
  21888117.735   -12766038.059 6  -9750013.88021        14.750           0.750
 91  5 23 19 17 59.9970000  0  6G18G 2G16G11G19G 6
  22706650.345    10317467.341 5   8039571.89221        11.250           0.563
  20666117.978   -20610948.878 7 -15814011.64723        25.250           2.625
  22814235.665    -8300545.175 5  -6325017.78821        11.000           0.281
  22217231.853   -12113002.639 6  -9438696.66621        18.000           0.938
  20417468.423    -1942806.151 6  -1513876.85222        18.500           1.938
  21879613.392   -12810725.073 6  -9784834.90821        14.750           0.750
 91  5 23 19 18 14.9970000  0  6G18G 2G16G11G19G 6
  22714439.110    10358404.420 5   8071470.82821        10.750           0.500
  20658573.853   -20650593.041 7 -15844903.18923        25.500           2.656
  22814887.454    -8297125.939 5  -6322353.49321        11.000           0.313
  22216791.478   -12115316.665 6  -9440499.80721        17.750           0.906
  20418872.126    -1935417.654 6  -1508119.59722        19.000           1.844
  21871116.892   -12855377.906 6  -9819629.30421        15.000           0.844
 91  5 23 19 18 29.9970000  0  6G18G 2G16G11G19G 6
  22722240.634    10399400.555 5   8103415.79621        11.000           0.500
  20651047.399   -20690140.518 7 -15875719.39123        25.750           2.563
  22815562.493    -8293570.588 5  -6319583.10521        11.000           0.438
  22216383.298   -12117460.800 6  -9442170.57221        18.000           1.000
  20420296.243    -1927950.336 6  -1502300.91222        18.000           1.906
  21862629.501   -12899991.963 6  -9854393.48421        15.000           0.875
 91  5 23 19 18 44.9970000  0  6G18G 2G16G11G19G 6
  22730055.282    10440456.962 5   8135407.71621        11.000           0.500
  20643540.712   -20729589.823 7 -15906459.09723        25.500           2.594
  22816268.337    -8289877.787 5  -6316705.64521        11.250           0.406
  22216008.337   -12119433.657 6  -9443707.87021        18.250           0.906
  20421730.001    -1920402.610 6  -1496419.57822        19.000           1.969
  21854145.876   -12944565.716 6  -9889126.25621        14.750           0.906
 91  5 23 19 18 59.9970000  0  6G18G 2G16G11G19G 6
  22737880.024    10481583.603 5   8167454.37021        11.000           0.500
  20636055.571   -20768930.464 7 -15937114.13423        26.000           2.531
  22816996.431    -8286037.371 5  -6313713.14021        10.750           0.313
  22215667.970   -12121224.914 6  -9445103.66821        18.250           0.969
  20423183.009    -1912764.047 6  -1490467.46122        19.250           1.875
  21845672.157   -12989088.731 6  -9923819.49621        14.750           0.875
 91  5 23 19 19 14.9970000  0  6G18G 2G16G11G19G 6
  22745716.454    10522762.344 5   8199541.62221        11.000           0.563
  20628585.563   -20808180.319 7 -15967698.42123        26.000           2.563
  22817752.978    -8282067.519 5  -6310619.77421        10.750           0.438
  22215357.884   -12122852.537 6  -9446371.95221        18.000           0.969
  20424650.095    -1905052.614 6  -1484458.56522        19.000           1.844
  21837208.353   -13033578.887 6  -9958487.11521        14.750           0.906
 91  5 23 19 19 29.9970000  0  6G18G 2G16G11G19G 6
  22753563.235    10563996.236 5   8231671.85021        11.250           0.500
  20621134.798   -20847336.169 7 -15998209.46123        26.000           2.594
  22818534.071    -8277965.163 5  -6307423.18021        10.750           0.406
  22215078.353   -12124313.593 6  -9447510.45321        18.000           0.906
  20426135.024    -1897265.248 6  -1478390.49622        18.000           2.000
  21828746.642   -13078032.912 6  -9993126.60421        15.250           0.844
 91  5 23 19 19 44.9970000  0  6G18G 2G16G11G19G 6
  22761418.556    10605272.385 5   8263835.00121        11.500           0.625
  20613698.478   -20886410.288 7 -16028656.81523        25.750           2.625
  22819337.063    -8273743.138 5  -6304133.32721        10.500           0.375
  22214830.032   -12125620.477 6  -9448528.80421        18.250           0.906
  20427626.649    -1889414.169 6  -1472272.78522        18.500           1.875
  21820294.540   -13122463.191 6 -10027747.57721        15.250           0.938
 91  5 23 19 19 59.9970000  0  6G18G 2G16G11G19G 6
  22769280.063    10646584.693 5   8296026.32121        11.250           0.500
  20606278.173   -20925408.618 7 -16059045.11323        26.000           2.531
  22820161.118    -8269407.522 5  -6300754.95721        10.250           0.406
  22214609.337   -12126779.226 6  -9449431.73121        18.500           0.906
  20429131.751    -1881505.435 6  -1466110.15222        18.500           1.875
  21811840.087   -13166875.645 6 -10062354.66221        15.000           0.813
 91  5 23 19 20 14.9970000  0  6G18G 2G16G11G19G 6
  22777147.462    10687933.123 5   8328245.80521        11.000           0.438
  20598870.220   -20964330.866 7 -16089374.12423        26.000           2.656
  22821005.485    -8264958.384 5  -6297288.13921        10.250           0.375
  22214417.853   -12127789.628 6  -9450219.06121        18.500           0.938
  20430647.470    -1873538.542 6  -1459902.19122        18.500           1.875
  21803394.556   -13211269.853 6 -10096947.52621        15.250           0.750
 91  5 23 19 20 29.9970000  0  6G18G 2G16G11G19G 6
  22785023.720    10729315.780 5   8360491.95521        11.000           0.438
  20591478.759   -21003178.715 7 -16119645.15423        25.500           2.531
  22821876.321    -8260397.672 5  -6293734.37321        10.250           0.344
  22214254.899   -12128653.530 6  -9450892.23121        18.750           0.938
  20432173.540    -1865515.383 6  -1453650.38822        19.000           1.969
  21794947.884   -13255647.572 6 -10131527.54621        15.250           0.844
 91  5 23 19 20 44.9970000  0  6G18G 2G16G11G19G 6
  22792903.688    10770725.889 5   8392759.48821        11.250           0.500
  20584097.696   -21041958.344 7 -16149863.02123        25.500           2.594
  22822763.759    -8255731.848 5  -6290098.69521        10.250           0.406
  22214117.571   -12129377.374 6  -9451456.27321        18.750           1.000
  20433710.845    -1857442.311 6  -1447359.69322        18.750           2.000
  21786505.813   -13300015.178 6 -10166099.67921        15.500           0.906
 91  5 23 19 20 59.9970000  0  6G18G 2G16G11G19G 6
  22800790.626    10812171.392 5   8425054.60521        11.250           0.406
  20576733.556   -21080661.851 7 -16180021.58023        25.250           2.500
  22823674.306    -8250953.015 5  -6286374.97121        10.000           0.344
  22214007.056   -12129953.144 6  -9451904.92421        18.750           0.906
  20435256.610    -1849311.116 6  -1441023.71222        19.000           1.938
  21778067.587   -13344364.524 6 -10200657.58821        15.750           0.875
 91  5 23 19 21 14.9970000  0  6G18G 2G16G11G19G 6
  22808683.907    10853660.045 5   8457383.34221        11.000           0.531
  20569384.743   -21119281.133 7 -16210114.51123        25.500           2.594
  22824605.118    -8246053.625 5  -6282557.30521        10.000           0.344
  22213929.212   -12130372.833 6  -9452231.96121        18.750           0.938
  20436817.438    -1841113.643 6  -1434636.08822        18.750           1.969
  21769630.681   -13388687.446 6 -10235194.90721        16.000           0.906
 91  5 23 19 21 29.9970000  0  6G18G 2G16G11G19G 6
  22816587.485    10895183.388 5   8489739.12321        11.250           0.563
  20562050.063   -21157824.176 7 -16240148.03423        25.750           2.594
  22825559.876    -8241041.797 5  -6278652.01121         9.750           0.375
  22213873.462   -12130644.700 6  -9452443.80721        18.750           0.875
  20438391.892    -1832858.037 6  -1428203.16422        17.750           2.000
  21761200.728   -13432992.014 6 -10269717.92721        15.750           0.844
 91  5 23 19 21 44.9970000  0  6G18G 2G16G11G19G 6
  22824495.540    10936744.320 5   8522124.18821        11.250           0.531
  20554730.517   -21196287.998 7 -16270119.82923        25.500           2.594
  22826533.462    -8235914.930 5  -6274657.10621         9.750           0.375
  22213853.751   -12130765.903 6                        18.500
  20439970.790    -1824541.342 6  -1421722.64122        18.750           2.031
  21752775.196   -13477275.205 6 -10304224.29121        15.750           0.938
 91  5 23 19 21 59.9970000  0  6G18G 2G16G11G19G 6
  22832410.938    10978339.221 5   8554535.72121        11.250           0.344
  20547425.118   -21234675.731 7 -16300032.32723        25.500           2.688
  22827531.313    -8230676.300 5  -6270575.10021         9.500           0.313
  22213857.587   -12130739.684 6                        18.500
  20441564.540    -1816166.687 6  -1415196.95222        19.250           1.906
  21744352.165   -13521540.105 6 -10338716.39621        15.750           0.875
 91  5 23 19 22 14.9970000  0  6G18G 2G16G11G19G 6
  22840334.392    11019974.916 5   8586979.03921        11.500           0.469
  20540137.142   -21272980.247 7 -16329879.98523        25.750           2.594
  22828551.087    -8225319.156 5  -6266400.74121         9.500           0.219
  22213892.610   -12130559.003 6                        18.250
  20443170.087    -1807726.902 6  -1408620.51122        18.500           1.969
  21735932.368   -13565779.492 6 -10373188.63421        15.750           0.969
 91  5 23 19 22 29.9970000  0  6G18G 2G16G11G19G 6
  22848265.579    11061647.152 5   8619450.83021        11.500           0.406
  20532862.985   -21311205.699 7 -16359666.03723        25.500           2.563
  22829591.095    -8219847.680 5  -6262137.28521        10.000           0.313
  22213954.188   -12130228.193 6                        18.250
  20444788.962    -1799226.204 6  -1401996.60922        18.250           2.031
  21727517.274   -13609997.629 6 -10407644.30021        15.750           0.875
 91  5 23 19 22 44.9970000  0  6G18G 2G16G11G19G 6
  22856202.423    11103358.138 5   8651952.81721        11.500           0.563
  20525604.688   -21349349.600 7 -16389388.54423        25.750           2.625
  22830656.876    -8214260.060 5  -6257783.33821        10.250           0.344
  22214046.556   -12129744.819 6  -9451742.62321        18.500           0.906
  20446419.274    -1790662.212 6  -1395323.38522        18.500           1.969
  21719107.603   -13654191.979 6 -10442081.43721        15.750           0.844
 91  5 23 19 22 59.9970000  0  6G18G 2G16G11G19G 6
  22864150.688    11145123.138 5   8684496.88221        11.250           0.438
  20518364.743   -21387395.831 7 -16419034.94323        25.500           2.625
  22831745.704    -8208540.277 5  -6253326.40521        10.500           0.344
  22214169.446   -12129092.902 6  -9451234.63821        18.750           0.969
  20448064.048    -1782018.637 6  -1388588.14722        18.500           1.906
  21710704.579   -13698346.420 6 -10476487.47421        15.500           0.906
 91  5 23 19 23 14.9970000  0  6G18G 2G16G11G19G 6
                                   8717091.23821                         0.406
  20511144.595   -21425334.116 7 -16448597.22823        25.500           2.625
  22832860.470    -8202678.332 5  -6248758.69621        10.500           0.406
  22214328.946   -12128262.406 6  -9450587.51221        18.500           0.875
  20449725.009    -1773285.273 6  -1381782.94322        18.750           1.844
  21702312.665   -13742450.536 6 -10510854.30021        15.750           0.938
 91  5 23 19 23 29.9970000  0  6G18G 2G16G11G19G 6
                                   8749741.19521                         0.500
  20503947.126   -21463157.260 7 -16478069.79923        25.750           2.594
  22834004.251    -8196667.154 5  -6244074.70521        10.250           0.406
  22214522.149   -12127246.114 6  -9449795.60121        18.500           0.969
  20451406.259    -1764454.824 6  -1374902.09022        18.500           1.906
  21693930.017   -13786497.104 6 -10545176.28821        16.000           0.906
 91  5 23 19 23 44.9970000  0  6G18G 2G16G11G19G 6
  22888068.282    11270819.259 5   8782441.66721        11.000           0.469
  20496770.392   -21500871.443 7 -16507457.45922        25.250           2.469
  22835175.853    -8190513.465 5  -6239279.65821        10.250           0.344
  22214749.212   -12126050.490 6  -9448863.94821        19.250           0.906
  20453103.274    -1755533.676 6  -1367950.56622        18.750           1.875
  21685558.790   -13830492.353 6 -10579458.27721        16.500           0.906
 91  5 23 19 23 59.9970000  0  6G18G 2G16G11G19G 6
  22896068.298    11312858.221 5   8815199.21821        10.750           0.406
  20489615.899   -21538467.985 7 -16536753.45523        25.500           2.688
  22836374.540    -8184208.800 5  -6234366.97021        10.000           0.438
  22215013.063   -12124666.953 6  -9447785.87921        19.250           1.000
  20454821.290    -1746513.144 6  -1360921.59422        17.750           2.000
  21677199.587   -13874427.606 6 -10613693.51521        16.750           0.875
 91  5 23 19 24 14.9970000  0  6G18G 2G16G11G19G 6
  22904082.720    11354971.901 5   8848014.98621        10.750           0.406
  20482483.399   -21575945.018 7 -16565956.32223        25.500           2.594
  22837603.884    -8177751.444 5  -6229335.31421        10.000           0.375
  22215312.399   -12123093.762 6  -9446560.01021        19.000           0.906
  20456555.860    -1737391.329 6  -1353813.70522        18.750           1.969
  21668851.438   -13918300.995 6 -10647880.54521        16.250           0.875
 91  5 23 19 24 29.9970000  0  6G18G 2G16G11G19G 6
  22912110.610    11397159.572 5   8880888.41621        10.500           0.406
  20475375.821   -21613302.850 7 -16595066.31223        25.750           2.594
  22838861.306    -8171142.078 5  -6224185.19521         9.750           0.375
  22215646.438   -12121331.376 6  -9445186.73621        18.750           0.969
  20458311.368    -1728168.646 6  -1346627.21522        18.750           1.844
  21660513.954   -13962112.791 6 -10682019.59121        16.500           0.813
 91  5 23 19 24 44.9970000  0  6G18G 2G16G11G19G 6
  22920149.134    11439411.250 5   8913811.70821        10.500           0.406
  20468288.142   -21650551.388 7 -16624091.13523        26.000           2.688
  22840145.399    -8164391.096 5  -6218924.74121         9.250           0.438
  22216016.657   -12119390.127 6  -9443674.08921        18.500           0.875
  20460084.384    -1718855.186 6  -1339369.98722        18.250           1.906
  21652183.938   -14005873.063 6 -10716118.48221        16.250           0.781
 91  5 23 19 24 59.9970000  0  6G18G 2G16G11G19G 6
  22928200.290    11481717.529 5   8946777.56321         9.750           0.406
  20461218.876   -21687699.652 7 -16653037.81723        26.000           2.594
  22841455.056    -8157507.725 5  -6213561.11321         9.500           0.406
  22216419.399   -12117278.962 6  -9442029.02821        18.500           0.906
  20461871.056    -1709459.789 6  -1332048.91322        18.500           1.969
  21643865.712   -14049590.702 6 -10750184.15821        16.250           0.906
 91  5 23 19 25 14.9970000  0  6G18G 2G16G11G19G 6
  22936261.368    11524069.014 5   8979778.63321        10.000           0.406
  20454166.704   -21724756.854 7 -16681913.53823        26.000           2.563
  22842789.556    -8150501.258 5  -6208101.56521         9.500           0.344
  22216851.610   -12115007.049 6  -9440258.72221        18.750           0.938
  20463672.728    -1699991.494 6  -1324671.03622        18.500           1.875
  21635554.938   -14093274.632 6 -10784223.56421        16.500           1.000
 91  5 23 19 25 29.9970000  0  6G18G 2G16G11G19G 6
  22944327.329    11566464.078 5   9012813.66621        10.000           0.313
  20447131.618   -21761724.212 7 -16710719.24623        26.000           2.563
  22844143.626    -8143373.449 5  -6202547.46921         9.750           0.344
  22217313.751   -12112576.043 6  -9438364.43321        18.750           0.906
  20465488.563    -1690451.832 6  -1317237.54922        18.500           1.875
  21627246.462   -14136926.323 6 -10818237.85621        16.500           0.969
 91  5 23 19 25 44.9970000  0  6G18G 2G16G11G19G 6
  22952404.032    11608904.866 5   9045884.32221        10.000           0.375
  20440115.290   -21798599.349 7 -16739453.10023        26.500           2.594
  22845526.688    -8136122.131 5  -6196897.12321        10.000           0.375
  22217807.563   -12109983.650 6  -9436344.40421        18.750           0.875
  20467317.688    -1680838.367 6  -1309746.55222        18.750           1.969
  21618946.142   -14180543.232 6 -10852225.03721        16.250           1.000
 91  5 23 19 25 59.9970000  0  6G18G 2G16G11G19G 6
  22960486.899    11651372.219 5   9078975.68021        10.250           0.438
  20433110.774   -21835400.835 7 -16768129.56823        26.500           2.656
  22846925.790    -8128766.236 5  -6191165.28121        10.000           0.375
  22218326.845   -12107248.659 6  -9434213.24321        18.500           0.781
  20469160.399    -1671169.745 6  -1302212.57522        18.000           1.906
  21610650.274   -14224144.046 6 -10886199.67321        16.250           0.969
 91  5 23 19 26 14.9970000  0  6G18G 2G16G11G19G 6
  22968573.095    11693870.217 5   9112090.92421        10.250           0.344
  20426123.626   -21872124.299 7 -16796745.24023        26.000           2.594
  22848347.509    -8121301.657 5  -6185348.78021        10.250           0.438
  22218875.993   -12104366.770 6  -9431967.62621        18.500           0.969
  20471007.954    -1661441.485 6  -1294632.12422        19.000           1.875
  21602354.751   -14267724.318 6 -10920158.31321        16.500           1.031
 91  5 23 19 26 29.9970000  0  6G18G 2G16G11G19G 6
  22976666.876    11736402.113 5   9145232.56221        10.250           0.469
  20419150.681   -21908766.475 7 -16825297.57223        26.250           2.656
  22849785.665    -8113725.371 5  -6179445.21821         9.750           0.375
  22219452.478   -12101334.769 6  -9429605.03921        18.500           0.813
  20472871.376    -1651650.095 6  -1287002.48022        19.250           1.969
  21594068.876   -14311280.654 6 -10954098.29921        16.250           0.906
 91  5 23 19 26 44.9970000  0  6G18G 2G16G11G19G 6
  22984767.220    11778966.067 5   9178399.21021        10.500           0.375
  20412192.478   -21945329.084 7 -16853787.90323        26.500           2.688
  22851249.837    -8106039.394 5  -6173456.17721         9.500           0.438
  22220057.282   -12098154.585 6  -9427126.98221        18.500           0.969
  20474746.681    -1641797.484 6  -1279325.13022        18.750           1.938
  21585782.509   -14354814.671 6 -10988020.89621        16.500           0.938
 91  5 23 19 26 59.9970000  0  6G18G 2G16G11G19G 6
  22992874.423    11821562.072 5   9211590.81721        10.250           0.313
  20405250.235   -21981811.590 7 -16882215.81923        26.250           2.719
  22852733.056    -8098243.543 5  -6167381.52321         9.500           0.406
  22220692.454   -12094825.919 6  -9424533.22521        19.000           0.906
  20476631.978    -1631883.263 6  -1271599.77922        18.750           1.938
  21577503.626   -14398325.953 6 -11021925.78421        16.000           1.063
 91  5 23 19 27 14.9970000  0  6G18G 2G16G11G19G 6
  23000984.860    11864190.348 5   9244807.57821        10.500           0.406
  20398323.220   -22018213.257 7 -16910580.74223        26.250           2.781
  22854236.149    -8090337.603 5  -6161221.10521         9.250           0.406
  22221353.681   -12091348.248 6  -9421823.35621        19.000           0.844
  20478532.329    -1621906.828 6  -1263825.94622        18.750           1.938
  21569228.501   -14441813.830 6 -11055812.42121        16.750           0.969
 91  5 23 19 27 29.9970000  0  6G18G 2G16G11G19G 6
  23009103.228    11906853.444 5   9278051.43521        10.250           0.313
  20391411.649   -22054531.281 7 -16938880.49223        26.000           2.656
  22855765.118    -8082318.555 5  -6154972.54521         9.250           0.406
  22222044.149   -12087718.724 6  -9418995.16021        18.750           0.938
  20480443.118    -1611865.140 6  -1256001.27222        18.750           2.031
  21560956.103   -14485275.222 6 -11089678.42621        16.500           1.031
 91  5 23 19 27 44.9970000  0  6G18G 2G16G11G19G 6
  23017229.282    11949556.104 5   9311326.15921        10.000           0.281
  20384517.399   -22090760.732 7 -16967111.22423        25.750           2.750
  22857314.251    -8074181.942 5  -6148632.37521         9.250           0.250
  22222763.165   -12083932.742 6  -9416045.05821        18.500           0.875
  20482367.665    -1601753.430 6  -1248122.03722        18.750           1.844
  21552694.056   -14528705.379 6 -11123520.09521        16.750           0.938
 91  5 23 19 27 59.9970000  0  6G18G 2G16G11G19G 6
  23025360.767    11992292.695 5   9344627.31221        10.000           0.375
  20377639.579   -22126907.172 7 -16995277.26523        26.000           2.719
  22858880.813    -8065933.421 5  -6142204.99621         9.750           0.344
  22223512.712   -12079995.793 6  -9412977.31021        18.750           0.938
  20484305.915    -1591577.001 6  -1240192.35922        18.250           1.813
  21544434.063   -14572109.538 6 -11157341.49721        16.500           1.000
 91  5 23 19 28 14.9970000  0  6G18G 2G16G11G19G 6
  23033499.431    12035060.515 5   9377952.80221        10.000           0.219
  20370776.962   -22162973.012 7 -17023380.50223        26.250           2.688
  22860471.571    -8057576.032 5  -6135692.78521        10.000           0.250
  22224289.735   -12075910.759 6  -9409794.18121        18.750           0.844
  20486252.993    -1581338.569 6  -1232214.37722        18.750           1.844
  21536177.009   -14615490.282 6 -11191144.66421        16.250           0.906
 91  5 23 19 28 29.9970000  0  6G18G 2G16G11G19G 6
  23041643.274    12077858.792 5   9411302.01721         9.750           0.281
  20363928.274   -22198958.556 7 -17051421.16723        26.000           2.688
  22862084.665    -8049110.278 5  -6129096.13521        10.250           0.250
  22225096.431   -12071677.939 6  -9406495.88821        18.750           1.031
  20488211.970    -1571038.132 6  -1224188.08122        19.000           1.813
  21527928.118   -14658847.702 6 -11224929.64721        16.500           0.969
 91  5 23 19 28 44.9970000  0  6G18G 2G16G11G19G 6
  23049794.368    12120696.096 5   9444681.65021         9.500           0.375
  20357097.415   -22234855.099 7 -17079392.48523        26.250           2.781
  22863717.759    -8040527.561 5  -6122408.35021         9.750           0.375
  22225931.220   -12067288.711 6  -9403075.72021        19.000           0.906
  20490185.212    -1560667.005 6  -1216106.69722        18.750           1.813
  21519683.931   -14702173.107 6 -11258689.68221        16.500           0.938
 91  5 23 19 28 59.9970000  0  6G18G 2G16G11G19G 6
  23057954.040    12163570.755 5   9478090.37821         9.250           0.250
  20350283.063   -22270663.806 7 -17107295.36123        26.250           2.781
  22865374.259    -8031829.585 5  -6115630.74621        10.250           0.344
  22226796.704   -12062744.453 6  -9399534.73721        19.000           0.875
  20492170.868    -1550226.587 6  -1207971.32222        18.750           1.875
  21511445.837   -14745467.620 6 -11292425.65221        16.250           0.875
 91  5 23 19 29 14.9970000  0  6G18G 2G16G11G19G 6
  23066119.478    12206470.831 5   9511518.93321         9.750           0.250
  20343484.157   -22306396.301 7 -17135138.85723        26.500           2.688
  22867047.149    -8023028.134 5  -6108772.50121        10.000           0.250
  22227688.423   -12058057.017 6  -9395882.20121        19.000           0.906
  20494169.071    -1539728.324 6  -1199790.87822        18.250           1.781
  21503210.032   -14788742.949 6 -11326146.67221        16.500           0.938
 91  5 23 19 29 29.9970000  0  6G18G 2G16G11G19G 6
  23074287.048    12249396.395 5   9544967.32721         9.500           0.344
  20336699.009   -22342052.357 7 -17162922.78723        26.500           2.813
  22868741.079    -8014123.545 5  -6101833.90421         9.500           0.500
  22228606.681   -12053226.387 6  -9392118.07921        18.750           0.844
  20496178.517    -1529172.133 6  -1191565.28322        18.500           1.813
  21494979.071   -14831998.818 6 -11359852.53021        16.250           0.969
 91  5 23 19 29 44.9970000  0  6G18G 2G16G11G19G 6
  23082460.493    12292355.497 5   9578441.86321         9.500           0.375
  20329929.642   -22377623.668 7 -17190640.67923        26.250           2.688
  22870456.829    -8005107.567 5  -6094808.51721         9.500           0.344
  22229554.931   -12048244.239 6  -9388235.89521        18.750           0.906
  20498200.259    -1518549.548 6  -1183287.96022        18.500           1.781
  21486752.063   -14875226.778 6 -11393536.62821        16.250           0.906
 91  5 23 19 29 59.9970000  0  6G18G 2G16G11G19G 6
  23090642.501    12335346.942 5   9611941.59921         9.250           0.281
  20323176.860   -22413111.039 7 -17218293.16923        26.250           2.781
  22872193.126    -7995981.247 5  -6087697.14021         9.500           0.406
  22230532.962   -12043111.770 6  -9384236.58021        19.000           0.938
  20500233.712    -1507861.660 6  -1174959.75622        18.750           1.750
  21478531.157   -14918427.776 6 -11427199.73621        16.250           0.906
 91  5 23 19 30 14.9970000  0  6G18G 2G16G11G19G 6
  23098831.337    12378371.800 5   9645467.36821         9.000           0.313
  20316439.657   -22448513.276 7 -17245879.31723        26.250           2.781
  22873953.056    -7986743.651 5  -6080499.07121         9.250           0.375
  22231536.704   -12037827.919 6  -9380119.30221        18.750           1.000
  20502280.806    -1497107.126 6  -1166579.62122        18.750           1.813
  21470316.024   -14961600.343 6 -11460840.67621        16.250           0.906
 91  5 23 19 30 29.9970000  0  6G18G 2G16G11G19G 6
  23107025.868    12421433.987 5   9679022.23021         9.500           0.250
  20309719.978   -22483826.205 7 -17273395.87623        26.250           2.875
  22875730.220    -7977391.152 5  -6073211.44121         9.500           0.406
  22232573.595   -12032388.623 6  -9375880.89821        18.750           0.906
  20504341.204    -1486281.740 6  -1158144.27122        18.500           1.844
  21462107.806   -15004740.313 6 -11494456.21421        16.250           0.906
 91  5 23 19 30 44.9970000  0  6G18G 2G16G11G19G 6
  23115226.345    12464529.834 5   9712603.31321         9.500           0.344
  20303016.103   -22519053.064 7 -17300845.36623        26.000           2.844
  22877533.829    -7967927.266 5  -6065837.03721         9.750           0.469
  22233635.790   -12026797.406 6  -9371524.11921        19.000           0.875
  20506413.743    -1475388.785 6  -1149656.27622        18.500           1.750
  21453903.220   -15047850.959 6 -11528048.92021        16.500           0.969
 91  5 23 19 30 59.9970000  0  6G18G 2G16G11G19G 6
  23123434.720    12507658.219 5   9746209.75421         9.500           0.188
  20296329.360   -22554194.255 7 -17328228.10223        25.750           2.844
  22879354.157    -7958352.965 5  -6058376.58021        10.250           0.438
  22234729.751   -12021054.881 6  -9367049.43421        19.250           0.938
  20508501.970    -1464428.813 6  -1141116.05522        17.500           1.750
  21445704.837   -15090932.756 6 -11561619.12321        16.750           0.906
 91  5 23 19 31 14.9970000  0  6G18G 2G16G11G19G 6
  23131646.946    12550814.899 5   9779838.24021         9.250           0.281
  20289658.290   -22589254.105 7 -17355547.45823        25.750           2.906
  22881196.946    -7948672.478 5  -6050833.38221        10.750           0.438
  22235850.438   -12015165.318 6  -9362460.17521        19.000           0.813
  20510595.532    -1453405.931 6  -1132526.81522        18.250           1.750
  21437510.313   -15133989.752 6 -11595170.01221        17.000           0.906
 91  5 23 19 31 29.9970000  0  6G18G 2G16G11G19G 6
  23139865.626    12594003.902 5   9813491.89921         9.750           0.281
  20283002.149   -22624228.278 7 -17382800.04723        25.500           2.875
  22883059.907    -7938881.769 5  -6043204.29721        11.250           0.375
  22236999.712   -12009124.570 6  -9357753.11821        18.500           0.969
  20512706.407    -1442315.891 6  -1123885.25022        18.750           1.813
  21429322.813   -15177017.494 6 -11628698.10621        17.250           1.000
 91  5 23 19 31 44.9970000  0  6G18G 2G16G11G19G 6
  23148090.345    12637225.643 5   9847171.08321         9.500           0.313
  20276363.079   -22659116.160 7 -17409985.39523        26.000           2.781
  22884942.649    -7928980.474 5  -6035489.04321        11.000           0.250
  22238177.345   -12002932.385 6  -9352928.05321        18.250           0.906
  20514831.556    -1431158.129 6  -1115190.90722        18.250           1.719
  21421141.970   -15220015.449 6 -11662202.99621        17.250           1.063
 91  5 23 19 31 59.9970000  0  6G18G 2G16G11G19G 6
  23156320.970    12680480.121 5   9880875.78021         9.500           0.313
  20269741.353   -22693917.542 7 -17437103.34023        27.000           2.875
  22886849.110    -7918968.647 5  -6027687.65121        10.750           0.344
  22239385.509   -11996588.514 6  -9347984.78421        18.500           0.969
  20516968.610    -1419932.378 6  -1106443.59222        17.250           1.813
  21412964.329   -15262983.398 6 -11695684.49821        17.000           0.938
 91  5 23 19 32 14.9970000  0  6G18G 2G16G11G19G 6
  23164555.806    12723758.853 5   9914599.37421         9.000           0.375
  20263133.509   -22728640.474 7 -17464160.14623        26.750           2.813
  22888772.673    -7908854.921 5  -6019806.85921        10.750           0.344
  22240621.384   -11990101.238 6  -9342929.77821        18.250           1.000
  20519112.860    -1408646.620 6  -1097649.51922        18.000           1.750
  21404791.368   -15305929.245 6 -11729148.77721        17.000           1.031
 91  5 23 19 32 29.9970000  0  6G18G 2G16G11G19G 6
  23172797.267    12767063.830 5   9948343.41521         9.000           0.281
  20256541.017   -22763282.441 7 -17491153.86923        27.000           2.875
  22890718.743    -7898636.910 5  -6011844.81321        10.250           0.344
  22241883.165   -11983468.302 6  -9337761.26821        18.500           0.906
  20521272.360    -1397298.402 6  -1088806.77522        18.250           1.781
  21396624.337   -15348850.431 6 -11762593.84421        16.500           1.031
 91  5 23 19 32 44.9970000  0  6G18G 2G16G11G19G 6
  23181044.384    12810401.165 5   9982112.66021         9.000           0.313
  20249966.126   -22797837.229 7 -17518079.66523        27.000           2.906
  22892683.782    -7888308.754 5  -6003796.92521         9.750           0.313
  22243172.876   -11976683.770 6  -9332474.63421        18.750           0.906
  20523445.876    -1385881.480 6  -1079910.49122        18.000           1.844
  21388462.626   -15391740.753 6 -11796014.85421        17.000           1.063
 91  5 23 19 32 59.9970000  0  6G18G 2G16G11G19G 6
  23189297.181    12853769.507 5  10015906.09021         9.000           0.281
  20243406.056   -22832305.923 7 -17544938.37723        26.250           2.875
  22894668.884    -7877871.882 5  -5995664.35421         9.500           0.406
  22244493.235   -11969748.954 6  -9327070.89121        18.500           0.875
  20525630.071    -1374397.257 6  -1070961.77422        18.000           1.813
  21380307.165   -15434601.279 6 -11829412.65421        17.250           1.000
 91  5 23 19 33 14.9970000  0  6G18G 2G16G11G19G 6
  23197553.235    12897165.834 5  10049721.30221         8.500           0.281
  20236862.806   -22866691.456 7 -17571732.28523        26.000           2.844
  22896676.485    -7867329.345 5  -5987449.43621         9.500           0.375
  22245840.407   -11962666.839 6  -9321552.37821        18.500           0.906
  20527828.603    -1362848.284 6  -1061962.59222        17.750           1.875
  21372156.571   -15477434.796 6 -11862789.40021        17.250           0.969
 91  5 23 19 33 29.9970000  0  6G18G 2G16G11G19G 6
  23205817.001    12940587.212 5  10083556.04021         8.750           0.375
  20230335.063   -22900996.442 7 -17598463.43123        26.000           3.000
  22898701.009    -7856684.417 5  -5979154.73421         9.750           0.406
  22247214.821   -11955440.170 6  -9315921.21321        18.250           0.906
  20530039.384    -1351237.262 6  -1052915.06322        18.250           1.875
  21364009.110   -15520243.843 6 -11896147.08421        17.500           1.125
 91  5 23 19 33 44.9970000  0  6G18G 2G16G11G19G 6
  23214084.345    12984032.692 5  10117409.56921         8.500           0.375
  20223822.399   -22935221.465 7 -17625132.26123        26.250           2.938
  22900749.274    -7845937.616 5  -5970780.64521         9.750           0.438
  22248617.985   -11948069.644 6  -9310177.96121        18.250           0.875
  20532259.774    -1339564.699 6  -1043819.58322        18.000           1.906
  21355868.431   -15563028.881 6 -11929486.05821        17.500           1.094
 91  5 23 19 33 59.9970000  0  6G18G 2G16G11G19G 6
  23222356.384    13027502.752 5  10151282.24021         9.000           0.313
  20217324.665   -22969365.735 7 -17651738.17223        26.000           2.813
  22902811.267    -7835088.684 5  -5962326.98621         9.750           0.406
  22250048.735   -11940554.743 6  -9304322.20521        18.250           0.875
  20534495.438    -1327829.882 6  -1034675.58722        17.250           1.906
  21347731.665   -15605789.158 6 -11962805.74221        17.500           1.188
 91  5 23 19 34 14.9970000  0  6G18G 2G16G11G19G 6
  23230634.017    13070998.403 5  10185174.86821         8.500           0.250
  20210842.970   -23003427.945 7 -17678280.14723        25.750           2.875
  22904895.126    -7824136.588 5  -5953792.92921         9.750           0.406
  22251506.360   -11932894.375 6  -9298353.09321        18.250           0.938
  20536737.071    -1316031.545 6  -1025482.10022        18.000           1.750
  21339598.313   -15648523.229 6 -11996104.99721        17.750           1.219
 91  5 23 19 34 29.9970000  0  6G18G 2G16G11G19G 6
  23238916.907    13114522.201 5  10219089.40021         8.500           0.281
  20204376.392   -23037405.316 7 -17704756.01223        25.250           2.844
  22906997.696    -7813078.780 5  -5945176.50721         9.750           0.344
  22252992.056   -11925085.984 6  -9292268.64021        18.250           0.875
  20538994.649    -1304166.938 6  -1016236.97422        18.500           1.781
  21331472.345   -15691228.393 6 -12029381.73021        17.750           1.063
 91  5 23 19 34 44.9970000  0  6G18G 2G16G11G19G 6
  23247205.595    13158077.018 5  10253028.13421         8.750           0.406
  20197927.235   -23071294.553 7 -17731163.20123        25.750           2.875
  22909124.876    -7801912.311 5  -5936475.39221         9.250           0.406
  22254507.134   -11917126.424 6  -9286066.39921        18.750           0.906
  20541265.853    -1292232.684 6  -1006937.58022        17.750           1.813
  21323352.603   -15733901.279 6 -12062633.31721        17.750           1.000
 91  5 23 19 34 59.9970000  0  6G18G 2G16G11G19G 6
  23255496.509    13201648.637 5  10286979.93621         8.500           0.219
  20191493.384   -23105109.841 7 -17757512.76423        26.000           3.000
  22911266.649    -7790651.475 5  -5927700.78021         9.000           0.250
  22256046.743   -11909030.037 6  -9279757.53221        18.500           1.000
  20543549.392    -1280243.036 6   -997595.01822        17.500           1.781
  21315233.938   -15776555.884 6 -12095870.65921        17.500           1.125
 91  5 23 19 35 14.9970000  0  6G18G 2G16G11G19G 6
  23263791.595    13245246.857 5  10320952.46321         8.750           0.250
  20185075.321   -23138840.900 7 -17783796.68823        26.000           3.000
  22913429.767    -7779286.218 5  -5918844.77221         8.750           0.250
  22257617.110   -11900786.596 6  -9273334.08021        18.500           0.969
  20545841.845    -1268187.633 6   -988201.21822        17.750           1.781
  21307122.251   -15819181.790 6 -12129085.63921        17.250           1.125
 91  5 23 19 35 29.9970000  0  6G18G 2G16G11G19G 6
  23272092.860    13288862.418 5  10354938.52421         8.250           0.281
  20178669.673   -23172496.559 7 -17810021.85623        26.250           2.906
  22915606.353    -7767826.199 5  -5909914.93421         8.500           0.313
  22259209.657   -11892405.236 6  -9266803.16521        18.500           0.969
  20548148.868    -1256075.467 6   -978763.18822        18.000           1.750
  21299015.142   -15861788.064 6 -12162285.31921        17.250           1.125
 91  5 23 19 35 44.9970000  0  6G18G 2G16G11G19G 6
  23280397.946    13332504.867 5  10388945.52621         8.250           0.344
  20172281.204   -23206067.263 7 -17836180.83023        26.500           2.938
  22917809.915    -7756262.061 5  -5900903.95321         9.250           0.406
  22260835.103   -11883876.694 6  -9260157.55221        18.250           0.938
  20550464.571    -1243896.863 6   -969273.39022        18.000           1.688
  21290913.634   -15904364.947 6 -12195462.09721        17.250           1.156
 91  5 23 19 35 59.9970000  0  6G18G 2G16G11G19G 6
  23288709.657    13376177.282 5  10422975.85321         8.750           0.250
  20165910.063   -23239549.559 7 -17862270.93123        26.000           2.875
  22920031.634    -7744590.838 5  -5891809.55221         9.500           0.250
  22262485.813   -11875197.800 6  -9253394.79321        18.000           0.969
  20552795.563    -1231648.494 6   -959729.22822        18.000           1.750
  21282818.329   -15946908.958 6 -12228613.25621        17.500           1.156
 91  5 23 19 36 14.9970000  0  6G18G 2G16G11G19G 6
  23297024.688    13419874.521 5  10457025.56221         8.500           0.250
  20159555.017   -23272948.016 7 -17888295.69623        26.250           2.906
  22922271.212    -7732817.099 5  -5882635.22221         9.250           0.344
  22264164.134   -11866373.240 6  -9246518.52121        18.500           0.906
  20555140.806    -1219334.834 6   -950134.19022        17.750           1.813
  21274728.157   -15989424.555 6 -12261742.27621        17.250           1.094
 91  5 23 19 36 29.9970000  0  6G18G 2G16G11G19G 6
  23305346.071    13463604.467 5  10491100.72521         8.750           0.281
  20153215.876   -23306254.802 7 -17914249.03023        25.750           2.813
  22924537.774    -7720933.344 5  -5873375.23121         9.500           0.250
  22265872.767   -11857395.257 6  -9239522.69821        18.750           0.969
  20557498.462    -1206947.840 6   -940482.01222        17.250           1.750
  21266644.306   -16031903.686 6 -12294842.88121        17.500           1.188
 91  5 23 19 36 44.9970000  0  6G18G 2G16G11G19G 6
  23313672.790    13507359.668 5  10525195.61321         8.750           0.281
  20146894.228   -23339477.190 7 -17940136.60323        26.000           2.750
  22926815.399    -7708946.939 5  -5864035.20521         9.500           0.219
  22267610.423   -11848271.325 6  -9232413.15421        18.500           0.938
  20559865.821    -1194494.915 6   -930778.45422        17.750           1.719
  21258565.837   -16074353.604 6 -12327920.72421        17.250           1.063
 91  5 23 19 36 59.9970000  0  6G18G 2G16G11G19G 6
  23322005.384    13551148.119 5  10559316.36621         9.000           0.219
  20140590.438   -23372606.791 7 -17965951.86823        26.000           2.844
  22929118.345    -7696849.941 5  -5854609.01621         9.500           0.219
  22269375.267   -11838993.394 6  -9225183.61021        18.250           0.906
  20562249.095    -1181967.678 6   -921016.99522        17.750           1.656
  21250495.313   -16116766.006 6 -12360969.33921        17.500           1.125
 91  5 23 19 37 14.9970000  0  6G18G 2G16G11G19G 6
  23330345.157    13594970.514 5  10593463.56621         8.750           0.313
  20134303.337   -23405642.549 7 -17991694.01323        26.250           2.875
  22931443.009    -7684641.899 5  -5845096.30721         9.500           0.406
  22271170.149   -11829560.632 6  -9217833.42021        18.000           0.875
  20564647.415    -1169365.254 6   -911196.94722        17.750           1.594
  21242432.384   -16159139.709 6 -12393987.79321        17.500           1.063
 91  5 23 19 37 29.9970000  0  6G18G 2G16G11G19G 6
  23338688.563    13638816.421 5  10627629.12021         8.750           0.344
  20128033.056   -23438594.591 7 -18017370.92223        26.250           2.875
  22933782.368    -7672333.159 5  -5835505.12621         9.250           0.250
  22272993.313   -11819983.339 6  -9210370.61721        17.750           0.938
  20567058.259    -1156697.645 6   -901326.10522        17.500           1.719
  21234373.813   -16201484.900 6 -12426984.03421        17.750           1.063
 91  5 23 19 37 44.9970000  0  6G18G 2G16G11G19G 6
  23347037.110    13682694.308 5  10661819.57821         8.250           0.250
  20121780.017   -23471454.475 7 -18042976.02323        26.250           2.781
  22936146.017    -7659914.978 5  -5825828.66921         9.250           0.313
  22274845.556   -11810253.042 6  -9202788.57921        18.250           0.938
  20569483.220    -1143956.166 6   -891397.70422        17.500           1.656
  21226322.384   -16243792.674 6 -12459951.11221        17.750           0.969
 91  5 23 19 37 59.9970000  0  6G18G 2G16G11G19G 6
  23355391.438    13726600.598 5  10696032.17121         8.250           0.344
  20115544.423   -23504225.514 7 -18068511.89523        26.500           2.875
  22938528.548    -7647391.551 5  -5816070.21921         9.250           0.375
  22276724.649   -11800373.343 6  -9195090.13821        18.250           0.844
  20571920.603    -1131144.195 6   -881414.37322        17.250           1.594
  21218278.313   -16286066.296 6 -12492891.58321        17.750           1.031
 91  5 23 19 38 14.9970000  0  6G18G 2G16G11G19G 6
  23363752.228    13770528.883 5  10730261.90421         8.250           0.281
  20109323.767   -23536913.466 7 -18093983.01923        26.500           2.938
  22940930.454    -7634768.863 5  -5806234.39121         9.250           0.281
  22278631.063   -11790350.368 6  -9187280.04121        18.000           0.813
  20574372.032    -1118267.706 6   -871380.77022        17.500           1.781
  21210238.376   -16328311.759 6 -12525810.10821        17.750           1.031
 91  5 23 19 38 29.9970000  0  6G18G 2G16G11G19G 6
  23372114.931    13814481.109 5  10764510.25521         8.000           0.313
  20103119.907   -23569516.359 7 -18119387.87123        27.000           2.938
  22943353.243    -7622045.369 5  -5796320.02621         9.000           0.219
  22280564.626   -11780182.155 6  -9179356.78121        18.000           0.969
  20576838.181    -1105324.655 6   -861295.30322        16.750           1.781
  21202206.384   -16370526.836 6 -12558704.96121        18.000           1.125
 91  5 23 19 38 44.9970000  0  6G18G 2G16G11G19G 6
  23380483.853    13858454.536 5  10798775.16521         8.000           0.250
  20096930.517   -23602036.163 7 -18144727.97423        27.250           2.969
  22945794.399    -7609223.365 5  -5786328.91221         9.000           0.344
  22282528.337   -11769871.062 6  -9171322.18521        17.750           0.938
  20579309.353    -1092317.112 6   -851159.57822        17.250           1.625
  21194178.493   -16412713.513 6 -12591577.67921        17.750           1.125
 91  5 23 19 38 59.9970000  0  6G18G 2G16G11G19G 6
  23388856.298    13902452.109 5  10833058.88821         8.250           0.250
  20090759.103   -23634470.013 7 -18170001.09323        27.000           2.906
  22948254.431    -7596300.405 5  -5776259.11821         9.000           0.344
  22284520.392   -11759414.530 6  -9163174.26121        17.750           0.875
  20581796.306    -1079242.345 6   -840971.47022        17.500           1.719
  21186155.524   -16454869.052 6 -12624426.13821        18.000           1.063
 91  5 23 19 39 14.9970000  0  6G18G 2G16G11G19G 6
  23397232.712    13946468.316 5  10867357.11721         8.000           0.344
  20084602.931   -23666823.179 7 -18195211.34123        27.250           2.906
  22950729.079    -7583281.743 5  -5766114.73521         8.750           0.250
  22286534.173   -11748817.851 6  -9154917.12321        17.500           0.969
  20584298.384    -1066105.392 6   -830734.90522        17.500           1.719
  21178138.548   -16496998.413 6 -12657254.19421        18.000           1.094
 91  5 23 19 39 29.9970000  0  6G18G 2G16G11G19G 6
  23405613.376    13990509.071 5  10901674.47521         8.250           0.219
  20078462.009   -23699089.426 7 -18220353.85823        26.750           3.000
  22953226.071    -7570161.345 5                         8.750
  22288579.649   -11738075.022 6  -9146546.10421        17.500           0.969
  20586810.603    -1052899.859 6                        17.750
  21170128.313   -16539095.285 6 -12690056.94021        18.000           1.188
 91  5 23 19 39 44.9970000  0  6G18G 2G16G11G19G 6
  23413995.665    14034567.364 5  10936005.52221         8.000           0.313
  20072338.407   -23731275.535 7 -18245433.93423        26.750           3.000
  22955739.399    -7556946.564 5                         9.000
  22290651.071   -11727193.010 6  -9138066.63121        17.750           0.938
  20589336.306    -1039632.562 6                        17.500
  21162121.267   -16581166.273 6 -12722839.50421        18.000           1.125
 91  5 23 19 39 59.9970000  0  6G18G 2G16G11G19G 6
  23422382.985    14078650.309 5  10970355.75121         8.000           0.250
  20066228.845   -23763374.282 7 -18270445.93423        26.750           3.000
  22958272.946    -7543630.459 5                         8.750
  22292748.384   -11716164.764 6  -9129473.21321        18.000           1.000
  20591873.845    -1026296.355 6                        17.250
  21154123.282   -16623204.151 6 -12755596.27321        18.250           1.156
 91  5 23 19 40 14.9970000  0  6G18G 2G16G11G19G 6
  23430774.907    14122744.046 5  11004714.41621         8.000           0.219
  20060135.095   -23795399.020 7 -18295400.26623        26.750           3.125
  22960825.493    -7530226.882 5                         9.000
  22294872.728   -11705003.866 6  -9120776.42521        17.500           0.938
  20594422.712    -1012904.716 6                        17.250
  21146125.954   -16665222.285 6 -12788337.65921        18.250           1.125
 91  5 23 19 40 29.9970000  0  6G18G 2G16G11G19G 6
  23439171.493    14166854.858 5  11039086.35721         8.000           0.250
  20054056.360   -23827343.308 7 -18320291.91123        27.000           2.969
  22963394.142    -7516729.626 5                         9.000
  22297023.149   -11693704.021 6  -9111971.37421        17.500           0.875
  20596982.267     -999450.976 6                        16.750
  21138137.251   -16707214.009 6 -12821058.47421        18.500           1.219
 91  5 23 19 40 44.9970000  0  6G18G 2G16G11G19G 6
  23447569.649    14210988.314 5  11073475.94721         8.000           0.188
  20047995.204   -23859201.131 7 -18345116.18823        27.000           3.063
  22965982.204    -7503132.754 5                         8.750
  22299199.587   -11682259.550 6  -9103053.62921        17.500           0.938
  20599556.103     -985929.196 6                        17.000
  21130151.298   -16749173.315 6 -12853754.01921        18.250           1.188
 91  5 23 19 40 59.9970000  0  5G 2G16G11G19G 6
  20041946.243   -23890984.230 7 -18369882.22823        26.750           2.969
  22968586.485    -7489448.426 5  -5692998.20621         8.750           0.313
  22301403.962   -11670682.379 6  -9094032.48221        17.500           0.875
  20602138.688     -972351.080 6   -757679.77822        17.500           1.625
  21122170.970   -16791111.763 6 -12886433.31421        18.250           1.125
 91  5 23 19 41 14.9970000  0  5G 2G16G11G19G 6
  20035912.259   -23922695.054 7 -18394591.94923        27.000           3.094
  22971205.954    -7475679.375 5  -5682269.12721         8.750           0.281
  22303631.938   -11658975.039 6  -9084909.89321        17.500           0.844
  20604732.634     -958718.974 6   -747057.37922        17.500           1.688
  21114194.587   -16833031.537 6 -12919098.05821        18.750           1.094
 91  5 23 19 41 29.9970000  0  5G 2G16G11G19G 6
  20029891.798   -23954329.957 7 -18419242.51723        26.750           3.000
  22973845.587    -7461822.525 5  -5671471.63021         8.500           0.281
  22305885.392   -11647134.111 6  -9075683.21321        17.000           0.813
  20607336.384     -945029.429 6   -736390.23522        17.500           1.656
  21106220.931   -16874929.196 6 -12951745.56621        19.000           1.094
 91  5 23 19 41 44.9970000  0  5G 2G16G11G19G 6
  20023886.610   -23985885.129 7 -18443830.95523        27.000           2.969
  22976498.040    -7447874.251 5  -5660602.90021         8.750           0.281
  22308164.282   -11635156.094 6  -9066349.72021        17.000           0.813
  20609955.446     -931278.556 6   -725675.29522        17.750           1.719
  21098253.274   -16916800.709 6 -12984372.70721        19.000           1.188
 91  5 23 19 41 59.9970000  0  5G 2G16G11G19G 6
  20017897.196   -24017362.247 7 -18468358.55323        27.250           3.031
  22979165.595    -7433836.572 5  -5649664.49421         8.500           0.219
  22310468.228   -11623043.027 6  -9056910.98421        17.250           0.844
  20612583.790     -917468.245 6   -714914.04322        17.500           1.688
  21090290.438   -16958647.898 6 -13016980.89521        19.250           1.063
 91  5 23 19 42 14.9970000  0  5G 2G16G11G19G 6
  20011923.142   -24048757.861 7 -18492822.65423        27.500           3.000
  22981857.087    -7419706.253 5  -5638653.91321         8.250           0.313
  22312799.126   -11610791.637 6  -9047364.46721        17.250           0.844
  20615222.931     -903594.876 6   -704103.65322        17.500           1.844
  21082331.813   -17000467.209 6 -13049567.36021        19.250           1.125
 91  5 23 19 42 29.9960000  0  5G 2G16G11G19G 6
  20005966.754   -24080059.170 7 -18517213.26623        27.750           3.094
  22984567.754    -7405473.860 5  -5627563.78721         8.000           0.375
  22315158.637   -11598392.251 6  -9037702.63021        17.250           0.875
  20617877.301     -889648.583 6   -693236.44022        17.250           1.656
  21074380.660   -17042244.862 6 -13082121.36521        19.250           1.188
 91  5 23 19 42 44.9960000  0  5G 2G16G11G19G 6
  20000024.027   -24111287.361 7 -18541546.89123        27.750           3.094
  22987293.770    -7391154.858 5  -5616406.17821         7.750           0.219
  22317543.473   -11585860.305 6  -9027937.50121        17.000           0.813
  20620542.645     -875644.462 6   -682324.16422        17.000           1.688
  21066435.754   -17084003.305 6 -13114660.40121        19.750           1.188
 91  5 23 19 42 59.9960000  0  5G 2G16G11G19G 6
  19994095.082   -24142438.883 7 -18565820.77723        27.250           3.188
  22990034.059    -7376749.162 5  -5605181.00321         8.000           0.250
  22319954.129   -11573195.363 6  -9018068.73821        17.250           0.844
  20623219.231     -861582.025 6   -671366.44522        17.000           1.625
  21058493.645   -17125738.342 6 -13147181.19321        19.500           1.125
 91  5 23 19 43 14.9960000  0  5G 2G16G11G19G 6
  19988184.074   -24173506.900 7 -18590029.60123        27.500           3.125
  22992789.301    -7362249.842 5  -5593882.87721         7.750           0.250
  22322390.965   -11560390.744 6  -9008091.13821        17.000           0.938
  20625905.699     -847454.325 6   -660357.87722        17.250           1.594
  21050557.309   -17167442.717 6 -13179678.10121        19.500           1.219
 91  5 23 19 43 29.9960000  0  5G 2G16G11G19G 6
  19982284.434   -24204504.060 7 -18614183.21523        26.750           3.125
  22995566.082    -7347669.991 5  -5582521.99921         7.750           0.156
  22324853.160   -11547459.434 6  -8998014.82121        16.750           0.875
  20628606.434     -833274.109 6   -649308.38422        16.500           1.563
  21042624.754   -17209129.397 6 -13212161.21221        19.500           1.219
 91  5 23 19 43 44.9960000  0  5G 2G16G11G19G 6
  19976400.551   -24235424.629 7 -18638277.14923        27.500           3.188
  22998357.106    -7333004.365 5  -5571094.27521         8.000           0.281
  22327338.504   -11534395.893 6  -8987835.46221        16.750           0.813
  20631314.043     -819035.514 6   -638213.40222        17.500           1.750
  21034696.871   -17250792.306 6 -13244625.79521        19.500           1.156
 91  5 23 19 43 59.9960000  0  5G 2G16G11G19G 6
  19970533.629   -24266259.367 7 -18662304.21123        27.250           3.125
  23001164.074    -7318244.203 5  -5559592.93521         7.750           0.219
  22329850.074   -11521191.027 6  -8977545.98521        16.750           0.813
  20634034.863     -804729.264 6   -627065.69422        17.750           1.625
  21026775.207   -17292422.148 6 -13277064.62921        19.750           1.125
 91  5 23 19 44 14.9960000  0  5G 2G16G11G19G 6
  19964680.598   -24297016.018 7 -18686270.42123        27.500           3.156
  23003989.316    -7303397.309 5  -5548023.94521         8.000           0.125
  22332389.176   -11507852.847 6  -8967152.62021        16.750           0.750
  20636770.043     -790363.132 6   -615871.32322        17.250           1.656
  21018857.676   -17334026.558 6 -13309483.63921        19.750           1.156
 91  5 23 19 44 29.9960000  0  5G 2G16G11G19G 6
  19958842.934   -24327693.418 7 -18710174.87923        27.500           3.156
  23006833.715    -7288462.751 5  -5536386.69221         8.250           0.219
  22334952.527   -11494380.440 6  -8956654.68121        17.000           0.719
  20639517.691     -775935.997 6   -604629.41621        16.750           1.469
  21010945.809   -17375604.209 6 -13341881.80421        19.750           1.219
 91  5 23 19 44 44.9960000  0  5G 2G16G11G19G 6
  19953020.285   -24358293.928 7 -18734019.43523        27.250           3.188
  23009689.848    -7273443.491 5  -5524683.40221         8.250           0.313
  22337541.082   -11480776.545 6  -8946054.26921        17.250           0.844
  20642272.934     -761450.319 6   -593341.89922        17.000           1.500
  21003038.496   -17417157.525 7 -13374261.00021        20.000           1.188
 91  5 23 19 44 59.9960000  0  5G 2G16G11G19G 6
  19947212.895   -24388811.952 7 -18757799.70923        27.250           3.250
  23012565.918    -7258334.030 5  -5512909.85121         8.250           0.281
  22340157.559   -11467035.732 6  -8935347.18321        17.500           0.781
  20645039.895     -746900.519 6   -582004.41522        17.250           1.594
  20995135.887   -17458680.929 6 -13406616.89221        19.500           1.250
 91  5 23 19 45 14.9960000  0  5G 2G16G11G19G 6
  19941420.613   -24419250.484 7 -18781518.04123        27.250           3.188
  23015463.754    -7243138.048 5  -5501068.89121         8.250           0.188
  22342795.848   -11453161.221 6  -8924535.89721        17.000           0.813
  20647821.598     -732289.534 6   -570619.24922        17.250           1.594
  20987239.590   -17500177.064 6 -13438951.53621        19.750           1.219
 91  5 23 19 45 29.9960000  0  5G 2G16G11G19G 6
  19935644.637   -24449602.011 7 -18805168.58123        27.250           3.156
  23018365.981    -7227848.244 5  -5489154.79521         8.250           0.313
  22345463.238   -11439145.636 6  -8913614.68921        17.000           0.719
  20650614.512     -717609.793 6   -559180.50922        17.500           1.563
  20979350.441   -17541638.390 6 -13471259.05921        19.750           1.281
 91  5 23 19 45 44.9960000  0  5G 2G16G11G19G 6
  19929884.535   -24479874.300 7 -18828757.37723        27.500           3.250
  23021291.410    -7212472.720 5  -5477173.90921         8.250           0.250
  22348155.473   -11424997.063 6  -8902589.85521        17.000           0.875
  20653419.402     -702869.158 6   -547694.32122        17.250           1.594
  20971465.777   -17583072.566 6 -13503545.41421        19.750           1.281
 91  5 23 19 45 59.9960000  0  5G 2G16G11G19G 6
  19924138.684   -24510067.290 7 -18852284.38623        27.000           3.156
  23024231.160    -7197011.537 5  -5465126.28121         8.250           0.344
  22350873.066   -11410715.700 6  -8891461.55021        17.500           0.844
  20656235.574     -688067.388 6   -536160.49922        17.750           1.656
  20963585.738   -17624479.501 6 -13535810.54721        19.500           1.188
 91  5 23 19 46 14.9960000  0  5G 2G16G11G19G 6
  19918408.715   -24540174.576 7 -18875744.60423        26.750           3.094
  23027191.629    -7181458.541 5  -5453007.09221         8.250           0.188
  22353619.926   -11396295.263 6  -8880224.85921        17.500           0.750
  20659065.590     -673198.138 6   -524574.09022        17.250           1.656
  20955712.637   -17665852.557 6 -13568049.28321        19.500           1.313
 91  5 23 19 46 29.9960000  0  5G 2G16G11G19G 6
  19912696.176   -24570194.552 7 -18899136.78923        27.000           3.094
  23030170.910    -7165812.726 5  -5440815.60221         8.250           0.313
  22356390.488   -11381734.530 6  -8868878.86221        17.250           0.656
  20661910.457     -658259.885 6   -512933.91222        16.500           1.625
  20947846.840   -17707190.041 7 -13600260.29621        20.000           1.344
 91  5 23 19 46 44.9960000  0  5G 2G16G11G19G 6
  19907000.082   -24600126.531 7 -18922460.40423        27.000           3.156
  23033164.856    -7150073.552 5  -5428551.34921         8.250           0.219
  22359186.238   -11367032.968 6  -8857423.11521        17.500           0.750
  20664765.996     -643251.990 6   -501239.47322        17.250           1.563
  20939987.137   -17748491.414 6 -13632443.17021        19.250           1.188
 91  5 23 19 46 59.9960000  0  5G 2G16G11G19G 6
  19901320.176   -24629975.447 7 -18945719.29023        27.000           3.219
  23036179.973    -7134246.517 5  -5416218.66021         8.000           0.188
  22362008.887   -11352195.960 6  -8845861.84121        17.000           0.750
  20667631.707     -628179.309 6   -489494.55022        17.750           1.719
  20932134.113   -17789761.332 7 -13664601.53821        20.000           1.313
 91  5 23 19 47 14.9960000  0  5G 2G16G11G19G 6
  19895656.715   -24659740.823 7 -18968913.08223        27.000           3.250
  23039208.731    -7118331.330 5  -5403817.24221         8.250           0.250
  22364857.949   -11337223.005 6  -8834194.63621        17.000           0.719
  20670514.012     -613041.218 6   -477698.65822        17.250           1.625
  20924286.746   -17830999.158 6 -13696734.90421        19.500           1.250
 91  5 23 19 47 29.9960000  0  5G 2G16G11G19G 6
  19890009.074   -24689416.935 7 -18992037.31823        27.250           3.188
  23042253.926    -7102322.309 5  -5391342.72521         8.750           0.250
  22367735.176   -11322108.563 6                        16.250
  20673409.012     -597831.899 6                        17.500
  20916446.582   -17872199.028 6 -13728838.68521        19.750           1.250
 91  5 23 19 47 44.9960000  0  5G 2G16G11G19G 6
  19884378.113   -24719011.426 7 -19015097.95923        26.750           3.156
  23045316.801    -7086227.620 5  -5378801.43921         8.500           0.313
  22370635.262   -11306860.639 6                        15.750
  20676314.426     -582559.042 6                        17.500
  20908612.191   -17913368.381 6 -13760918.68521        19.750           1.250
 91  5 23 19 47 59.9960000  0  5G 2G16G11G19G 6
  19878759.746   -24748531.683 7 -19038100.74623        26.750           3.125
  23048396.699    -7070055.179 5  -5366199.59621         9.000           0.250
  22373562.176   -11291486.749 6                        16.000
  20679231.770     -567230.074 6                        17.500
  20900783.199   -17954514.623 7 -13792980.67821        20.000           1.281
 91  5 23 19 48 14.9960000  0  5G 2G16G11G19G 6
  19873158.738   -24777967.945 7 -19061038.07923        27.000           3.188
  23051487.082    -7053795.307 5  -5353529.62021         8.750           0.250
  22376512.785   -11275977.500 6  -8786470.98721        15.750           0.813
  20682161.848     -551835.217 6   -430005.73122        17.250           1.500
  20892958.551   -17995627.940 7 -13825017.01521        20.500           1.344
 91  5 23 19 48 29.9960000  0  5G 2G16G11G19G 6
  19867573.504   -24807317.077 7 -19083907.52323        27.000           3.125
  23054598.543    -7037445.235 5  -5340789.35321         8.750           0.313
  22379490.793   -11260329.811 6  -8774278.01621        15.750           0.688
  20685104.152     -536371.210 6   -417955.87522        17.250           1.594
  20885142.270   -18036704.895 7 -13857025.01921        20.500           1.313
 91  5 23 19 48 44.9960000  0  5G 2G16G11G19G 6
  19862004.145   -24836583.238 7 -19106712.31123        26.750           3.031
  23057727.027    -7021009.270 5  -5327982.14521         8.750           0.313
  22382494.809   -11244548.097 6  -8761980.59721        16.250           0.781
  20688058.293     -520842.361 6   -405855.49422        17.250           1.594
  20877332.316   -18077749.620 7 -13889007.91121        20.250           1.375
 91  5 23 19 48 59.9960000  0  5G 2G16G11G19G 6
  19856450.613   -24865768.105 7 -19129453.75723        27.000           2.938
  23060869.699    -7004489.733 5  -5315109.83221         8.750           0.281
  22385524.606   -11228634.509 6  -8749580.43521        16.250           0.750
  20691026.973     -505250.304 6   -393705.85722        16.750           1.531
  20869527.254   -18118763.811 7 -13920967.00321        20.500           1.375
 91  5 23 19 49 14.9960000  0  5G 2G16G11G19G 6
  19850911.988   -24894870.966 7 -19152131.30723        26.750           3.000
  23064029.535    -6987886.099 5  -5302171.97221         8.750           0.438
  22388577.441   -11212588.495 6  -8737077.06921        16.500           0.625
  20694005.848     -489594.380 6   -381506.45922        17.250           1.656
  20861728.770   -18159746.448 7 -13952901.51821        20.000           1.344
 91  5 23 19 49 29.9960000  0  5G 2G16G11G19G 6
  19845389.949   -24923892.469 7 -19174745.45523        27.000           2.969
  23067207.918    -6971199.523 5  -5289169.50821         8.750           0.438
  22391654.410   -11196410.865 6  -8724471.15221        16.250           0.719
  20696997.145     -473875.302 6   -369257.85122        17.250           1.656
  20853935.363   -18200698.303 7 -13984812.03821        20.500           1.344
 91  5 23 19 49 44.9960000  0  5G 2G16G11G19G 6
  19839883.137   -24952834.073 7 -19197297.34523        27.250           2.844
  23070395.590    -6954431.650 5  -5276103.69321         8.750           0.344
  22394758.543   -11180103.457 6  -8711764.10721        16.500           0.625
  20699997.895     -458094.429 6   -356961.09122        17.000           1.563
  20846147.652   -18241620.641 7 -14016699.55621        20.500           1.375
 91  5 23 19 49 59.9960000  0  5G 2G16G11G19G 6
  19834391.152   -24981693.215 7 -19219784.98723        27.500           2.875
  23073603.551    -6937580.294 5  -5262972.81521         9.000           0.156
  22397886.809   -11163663.872 6  -8698954.06921        16.250           0.688
  20703014.582     -442249.206 6   -344614.17422        16.500           1.531
  20838366.285   -18282510.771 7 -14048561.98521        20.000           1.469
 91  5 23 19 50 14.9960000  0  5G 2G16G11G19G 6
  19828915.512   -25010465.997 7 -19242205.33623        27.750           2.906
  23076826.449    -6920641.892 5  -5249774.11421         8.500           0.219
  22401040.598   -11147088.447 6  -8686038.18121        16.250           0.656
  20706042.988     -426335.835 6   -332214.16622        17.000           1.625
  20830592.856   -18323364.585 7 -14080396.11421        20.250           1.438
 91  5 23 19 50 29.9960000  0  5G 2G16G11G19G 6
  19823455.223   -25039160.317 7 -19264564.54623        27.250           2.906
  23080066.504    -6903624.706 5  -5236514.03021         8.750           0.344
  22404218.902   -11130385.319 6  -8673022.78021        16.250           0.625
  20709081.340     -410362.049 6   -319767.08122        17.000           1.531
  20822824.098   -18364189.987 7 -14112208.10322        20.000           1.500
 91  5 23 19 50 44.9960000  0  5G 2G16G11G19G 6
  19818009.606   -25067776.710 7 -19286863.03523        27.250           2.938
  23083319.363    -6886529.368 5  -5223193.04021         8.750           0.344
  22407422.168   -11113555.149 6  -8659908.39821        15.750           0.719
  20712135.160     -394328.133 6   -307273.14022        17.000           1.563
  20815061.465   -18404987.047 7 -14143998.00221        20.000           1.375
 91  5 23 19 50 59.9960000  0  5G 2G16G11G19G 6
  19812579.035   -25096314.649 7 -19309100.39123        27.250           2.844
  23086585.707    -6869355.549 5  -5209810.88221         8.500           0.313
  22410649.816   -11096597.529 6  -8646694.69921        15.500           0.656
  20715198.504     -378233.504 6   -294731.89621        16.250           1.469
  20807302.613   -18445755.279 7 -14175765.44221        20.250           1.469
 91  5 23 19 51 14.9960000  0  5G 2G16G11G19G 6
  19807164.137   -25124767.130 7 -19331271.14723        27.250           2.813
  23089871.035    -6852096.795 5  -5196362.56421         8.750           0.219
  22413902.551   -11079505.934 6  -8633376.60921        16.000           0.625
  20718271.801     -362071.171 6   -282137.89622        16.750           1.625
  20799551.426   -18486487.622 7 -14207504.91321        20.750           1.438
 91  5 23 19 51 29.9960000  0  5G 2G16G11G19G 6
  19801764.223   -25153143.095 7 -19353382.28823        27.500           2.906
  23093168.152    -6834762.221 5                         8.500
  22417177.309   -11062289.394 6                        15.750
  20721358.254     -345850.193 6   -269498.19121        17.000           1.438
  20791805.598   -18527192.737 7 -14239223.16922        20.500           1.500
 91  5 23 19 51 44.9960000  0  5G 2G16G11G19G 6
  19796380.121   -25181440.937 7 -19375432.54823        27.500           2.938
  23096482.434    -6817350.896 5                         8.250
  22420477.801   -11044946.667 6                        15.500
  20724456.160     -329569.139 6   -256811.67621        16.750           1.469
  20784064.895   -18567869.084 7 -14270919.01221        20.750           1.375
 91  5 23 19 51 59.9960000  0  5G 2G16G11G19G 6
  19791010.863   -25209656.022 7 -19397418.32823        27.500           2.813
  23099811.887    -6799858.518 5                         8.000
  22423802.629   -11027473.402 6                        15.500
  20727566.723     -313223.286 6   -244074.66722        17.000           1.531
  20776330.941   -18608511.960 7 -14302588.77521        20.250           1.344
 91  5 23 19 52 14.9960000  0  5G 2G16G11G19G 6
  19785656.895   -25237792.066 7 -19419342.51823        27.500           2.844
  23103153.723    -6782289.024 5                         8.000
  22427151.754   -11009873.555 6                        15.750
  20730690.676     -296816.286 6   -231290.01721        16.750           1.469
  20768602.926   -18649124.859 7 -14334235.17521        20.250           1.469
 91  5 23 19 52 29.9960000  0  5G 2G16G11G19G 6
  19780318.465   -25265844.404 7 -19441201.47623        27.500           2.875
  23106515.082    -6764637.955 5  -5128213.05721         8.000           0.313
  22430525.793   -10992142.789 6  -8565301.59521        16.250           0.563
  20733824.848     -280343.548 6   -218454.14222        16.750           1.625
  20760880.020   -18689702.961 6 -14365854.46621        19.750           1.406
 91  5 23 19 52 44.9960000  0  5G 2G16G11G19G 6
  19774996.231   -25293812.134 7 -19462994.50723        27.500           2.844
  23109888.324    -6746904.775 5  -5114395.05621         8.250           0.125
  22433924.707   -10974280.324 6  -8551382.82421        16.000           0.719
  20736971.199     -263803.991 6   -205566.19422        16.500           1.531
  20753166.113   -18730245.274 7 -14397445.87021        20.000           1.469
 91  5 23 19 52 59.9960000  0  5G 2G16G11G19G 6
  19769691.566   -25321689.802 7 -19484717.35923        27.500           2.750
  23113280.082    -6729084.407 5  -5100509.09621         8.000           0.250
  22437349.934   -10956281.137 6  -8537357.52321        16.000           0.625
  20740134.395     -247192.254 6   -192622.00622        16.000           1.500
  20745458.402   -18770746.306 6 -14429005.09821        19.750           1.469
 91  5 23 19 53 14.9960000  0  5G 2G16G11G19G 6
  19764403.098   -25349481.156 7 -19506372.95623        27.500           2.750
  23116685.512    -6711180.926 5  -5086558.36921         8.000           0.250
  22440801.324   -10938149.165 6  -8523228.75421        16.250           0.625
  20743306.879     -230511.966 6   -179624.40121        16.500           1.438
  20737757.770   -18811209.655 7 -14460534.97022        20.000           1.500
 91  5 23 19 53 29.9960000  0  5G 2G16G11G19G 6
  19759128.949   -25377192.828 7 -19527966.46723        27.500           2.813
  23120108.629    -6693201.478 5  -5072548.48121         7.750           0.188
  22444274.941   -10919891.233 6  -8509001.82421        16.500           0.625
  20746492.582     -213769.932 6   -166578.68722        16.500           1.531
  20730064.535   -18851641.808 7 -14492040.53621        20.000           1.469
 91  5 23 19 53 44.9960000  0  5G 2G16G11G19G 6
  19753871.098   -25404826.530 7 -19549499.21723        27.500           2.750
  23123544.379    -6675147.761 4  -5058480.70821         7.250           0.156
  22447773.137   -10901509.163 6  -8494678.16221        16.750           0.594
  20749690.637     -196967.632 6   -153486.01022        16.500           1.500
  20722375.957   -18892044.193 6 -14523522.89621        19.750           1.469
 91  5 23 19 53 59.9960000  0  5G 2G16G11G19G 6
  19748628.691   -25432377.107 8 -19570967.19723        28.000           2.781
  23126993.754    -6657014.980 4  -5044351.31621         7.000           0.188
  22451296.582   -10882998.205 6  -8480254.08821        16.250           0.594
  20752900.262     -180100.074 6   -140342.48821        16.500           1.406
  20714694.340   -18932411.646 6 -14554978.04622        19.500           1.500
 91  5 23 19 54 14.9960000  0  5G 2G16G11G19G 6
  19743402.082   -25459843.718 8 -19592369.74823        28.000           2.719
  23130460.895    -6638802.536 4  -5030159.84721         7.000           0.188
  22454842.699   -10864357.720 6  -8465729.05321        16.000           0.625
  20756122.691     -163166.498 6   -127147.52421        16.250           1.438
  20707019.840   -18972743.116 7 -14586405.15422        20.000           1.563
 91  5 23 19 54 29.9960000  0  4G 2G11G19G 6
  19738191.152   -25487225.446 8 -19613706.14923        28.250           2.750
  22458413.777   -10845587.048 6  -8451102.59321        15.500           0.563
  20759358.223     -146165.807 6   -113900.25821        16.250           1.469
  20699351.832   -19013037.575 6 -14617803.41922        19.750           1.531
 91  5 23 19 54 44.9960000  0  4G 2G11G19G 6
  19732996.238   -25514525.117 8 -19634978.60123        28.000           2.688
  22462011.441   -10826689.417 6  -8436377.20021        15.500           0.656
  20762605.348     -129100.800 6   -100602.86622        16.500           1.500
  20691690.215   -19053297.838 6 -14649175.04322        19.750           1.594
 91  5 23 19 54 59.9960000  0  4G 2G11G19G 6
  19727816.176   -25541747.492 8 -19656190.83123        28.250           2.625
  22465631.262   -10807669.855 6  -8421556.80021        15.250           0.625
  20765863.254     -111976.328 6    -87259.14921        16.500           1.469
  20684034.770   -19093528.530 7 -14680523.62922        20.000           1.563
 91  5 23 19 55 14.9960000  0  4G 2G11G19G 6
  19722652.629   -25568883.358 8 -19677335.64823        28.000           2.656
  22469273.879   -10788519.421 6  -8406634.41021        15.250           0.563
  20769135.996      -94783.142 6    -73861.89022        16.750           1.531
  20676387.051   -19133720.306 7 -14711841.88422        20.250           1.625
 91  5 23 19 55 29.9960000  0  4G 2G11G19G 6
  19717502.574   -25595944.184 8 -19698421.99923        28.250           2.750
  22472941.395   -10769249.672 6  -8391619.05921        15.250           0.563
  20772419.660      -77532.671 6    -60419.99021        16.250           1.469
  20668743.777   -19173884.223 7 -14743138.43122        20.500           1.594
 91  5 23 19 55 44.9960000  0  4G 2G11G19G 6
  19712367.707   -25622926.108 8 -19719446.86523        28.500           2.719
  22476633.254   -10749857.068 6  -8376507.97721        15.750           0.594
  20775711.777      -60220.949 6    -46930.36121        16.500           1.406
  20661106.621   -19214016.386 7 -14774410.23522        20.500           1.531
 91  5 23 19 55 59.9960000  0  4G 2G11G19G 6
  19707247.887   -25649832.772 8 -19740413.09323        29.250           2.750
  22480344.262   -10730345.418 6  -8361304.12721        15.750           0.563
  20779020.879      -42851.653 6    -33395.86021        15.750           1.438
  20653475.574   -19254120.263 7 -14805660.00222        20.750           1.594
 91  5 23 19 56 14.9960000  0  4G 2G11G19G 6
  19702141.973   -25676666.606 8 -19761322.57023        29.250           2.781
  22484079.191   -10710717.427 6  -8346009.62221        15.500           0.531
  20782333.184      -25427.115 6    -19818.32421        16.250           1.469
  20645848.762   -19294198.208 7 -14836889.56322        20.500           1.563
 91  5 23 19 56 29.9960000  0  4G 2G11G19G 6
  19697051.606   -25703415.177 8 -19782165.61723        29.000           2.719
  22487840.051   -10690960.953 6  -8330615.01421        16.000           0.563
  20785660.856       -7934.953 6     -6188.08721        16.750           1.438
  20638229.707   -19334237.696 7 -14868089.15322        20.500           1.563
 91  5 23 19 56 44.9960000  0  4G 2G11G19G 6
  19691975.348   -25730089.781 8 -19802951.02823        29.000           2.688
  22491621.270   -10671087.385 6  -8315129.14821        15.750           0.500
  20789001.512        9613.704 6      7486.16021        16.250           1.469
  20630614.996   -19374249.756 7 -14899267.37122        20.500           1.531
 91  5 23 19 56 59.9960000  0  4G 2G11G19G 6
  19686914.051   -25756687.054 8 -19823676.17223        28.750           2.719
  22495428.504   -10651093.785 6  -8299549.74521        16.000           0.625
  20792353.387       27222.013 6     21206.88521        15.750           1.375
  20623005.246   -19414231.003 7 -14930421.58022        20.250           1.563
 91  5 23 19 57 14.9960000  0  4G 2G11G19G 6
  19681867.027   -25783208.296 8 -19844342.06423        28.750           2.844
  22499254.637   -10630981.861 6  -8283878.15221        15.750           0.594
  20795714.145       44888.673 6     34973.08822        16.500           1.531
  20615404.410   -19454182.687 7 -14961552.75722        20.750           1.594
 91  5 23 19 57 29.9960000  0  4G 2G11G19G 6
  19676834.231   -25809659.208 8 -19864953.15223        28.500           2.688
  22503101.137   -10610757.451 6  -8268118.91921        15.000           0.656
  20799087.418       62607.988 6     48780.31821        16.750           1.406
  20607806.504   -19494110.257 7 -14992665.14222        20.250           1.625
 91  5 23 19 57 44.9960000  0  4G 2G11G19G 6
  19671815.816   -25836027.135 8 -19885499.57123        28.000           2.656
  22506974.981   -10590408.101 6  -8252262.31621        15.250           0.563
  20802470.012       80392.812 6     62638.59421        16.750           1.313
  20600215.996   -19534000.812 7 -15023748.68222        20.500           1.719
 91  5 23 19 57 59.9960000  0  4G 2G11G19G 6
  19666814.152   -25862311.018 8 -19905980.50123        28.750           2.656
  22510871.426   -10569932.981 6  -8236307.72221        15.750           0.625
  20805866.824       98244.318 6     76548.82921        16.750           1.406
  20592632.481   -19573853.266 7 -15054802.53522        21.000           1.625
 91  5 23 19 58 14.9960000  0  4G 2G11G19G 6
  19661828.832   -25888507.444 8 -19926393.28823        28.500           2.594
  22514791.191   -10549329.082 6  -8220252.77321        15.500           0.688
  20809279.434      116165.731 6     90513.53921        16.000           1.438
  20585056.145   -19613663.956 7 -15085823.84522        21.250           1.656
 91  5 23 19 58 29.9960000  0  4G 2G11G19G 6
  19656860.262   -25914620.804 8 -19946741.35423        28.500           2.688
  22518736.309   -10528601.116 6  -8204101.15721        15.250           0.656
  20812700.199      134152.613 6    104529.26421        16.500           1.344
  20577488.231   -19653437.190 7 -15116815.96422        21.000           1.719
 91  5 23 19 58 44.9960000  0  4G 2G11G19G 6
  19651906.496   -25940652.459 8 -19967025.76023        28.500           2.625
  22522704.145   -10507750.424 6  -8187853.91421        15.250           0.656
  20816135.621      152203.822 6    118595.10621        16.250           1.406
  20569926.387   -19693174.120 7 -15147779.80022        21.000           1.625
 91  5 23 19 58 59.9960000  0  4G 2G11G19G 6
  19646965.941   -25966613.891 8 -19987255.44423        28.750           2.688
  22526692.957   -10486788.827 6  -8171520.24321        15.000           0.594
  20819582.863      170307.849 6    132702.11421        15.250           1.313
  20562369.449   -19732886.061 7 -15178724.16422        21.500           1.719
 91  5 23 19 59 14.9960000  0  4G 2G11G19G 6
  19642040.793   -25992497.798 8 -20007424.72423        28.500           2.688
  22530704.527   -10465709.461 6  -8155094.79821        15.000           0.625
  20823036.356      188472.072 6    146856.02221        15.750           1.438
  20554818.934   -19772565.610 7 -15209643.28722        21.000           1.656
 91  5 23 19 59 29.9960000  0  4G 2G11G19G 6
  19637130.691   -26018298.704 8 -20027529.32423        28.250           2.750
  22534739.637   -10444507.100 6  -8138573.51221        15.000           0.594
  20826504.059      206701.923 6    161061.06921        16.000           1.406
  20547274.840   -19812207.258 7 -15240532.86922        21.000           1.594
 91  5 23 19 59 44.9960000  0  4G 2G11G19G 6
  19632236.621   -26044021.249 8 -20047572.86923        28.500           2.688
  22538795.574   -10423186.446 6  -8121960.06121        14.750           0.656
  20829986.879      224992.841 6    175313.69621        15.500           1.344
  20539737.762   -19851815.219 7 -15271396.20722        20.750           1.656
 91  5 23 19 59 59.9960000  0  4G 2G11G19G 6
  19627356.879   -26069660.428 8 -20067551.45123        28.500           2.719
  22542876.199   -10401742.968 6  -8105250.90821        14.500           0.563
  20833479.262      243349.578 6    189617.61821        15.500           1.375
  20532207.965   -19891384.569 7 -15302229.45322        20.500           1.656
 91  5 23 20  0 14.9960000  0  4G 2G11G19G 6
  19622491.074   -26095229.851 8 -20087475.67923        28.250           2.719
  22546976.957   -10380190.440 6  -8088456.77721        14.500           0.625
  20836981.770      261758.575 6    203962.25521        16.250           1.344
  20524682.652   -19930928.651 7 -15333043.00722        20.500           1.719
 91  5 23 20  0 29.9960000  0  4G 2G11G19G 6
  19617641.379   -26120717.605 8 -20107336.26823        28.500           2.688
  22551102.949   -10358517.384 6  -8071568.71621        14.750           0.531
  20840498.777      280231.662 6    218356.83921        16.000           1.375
  20517165.223   -19970435.631 7 -15363827.65222        20.500           1.750
 91  5 23 20  0 44.9960000  0  4G 2G11G19G 6
  19612805.582   -26146130.906 8 -20127138.84123        28.250           2.656
  22555248.512   -10336731.232 6  -8054592.52121        15.000           0.625
  20844023.902      298762.006 6    232796.03321        16.000           1.344
  20509652.746   -20009912.315 7 -15394588.69522        20.750           1.750
 91  5 23 20  0 59.9960000  0  4G 2G11G19G 6
  19607985.043   -26171464.435 8 -20146879.25423        28.750           2.750
  22559416.012   -10314826.865 6  -8037524.22721        14.750           0.563
  20847563.309      317354.791 6    247283.88321        16.000           1.344
  20502147.043   -20049353.216 7 -15425321.84922        21.000           1.656
 91  5 23 20  1 14.9960000  0  4G 2G11G19G 6
  19603178.574   -26196722.355 8 -20166560.74823        28.500           2.750
  22563604.691   -10292808.697 6  -8020367.25721        15.000           0.500
  20851112.238      336005.684 6    261817.01521        16.250           1.406
  20494647.731   -20088762.395 7 -15456030.28422        20.500           1.656
 91  5 23 20  1 29.9960000  0  4G 2G11G19G 6
  19598385.676   -26221906.656 8 -20186184.87023        28.500           2.656
  22567816.566   -10270678.931 6  -8003123.31421        15.000           0.531
  20854675.395      354712.847 6    276393.98521        15.500           1.344
  20487154.441   -20128141.754 7 -15486715.47822        20.250           1.500
 91  5 23 20  1 44.9960000  0  4G 2G11G19G 6
  19593608.098   -26247013.397 8 -20205748.55523        28.500           2.688
  22572050.152   -10248433.998 6  -7985789.63021        14.500           0.594
  20858242.598      373480.302 6    291017.93821        16.250           1.406
  20479667.371   -20167487.164 7 -15517374.23122        20.500           1.594
 91  5 23 20  1 59.9960000  0  4G 2G11G19G 6
  19588845.879   -26272039.227 8 -20225249.18823        28.500           2.719
  22576306.215   -10226070.928 6  -7968363.89621        14.500           0.594
  20861826.559      392311.417 6    305691.50521        15.750           1.281
  20472186.809   -20206795.250 7 -15548003.89522        20.750           1.844
 91  5 23 20  2 14.9960000  0  4G 2G11G19G 6
  19584102.098   -26296968.854 8 -20244674.86223        28.500           2.688
  22580585.590   -10203574.524 6  -7950834.26421        14.250           0.531
  20865424.926      411221.569 6    320426.65921        16.000           1.313
  20464717.090   -20246050.248 7 -15578592.19222        20.500           1.750
 91  5 23 20  2 29.9960000  0  4G 2G11G19G 6
  19579377.285   -26321794.461 8 -20264019.48723        28.750           2.688
  22584894.340   -10180937.268 6  -7933194.89021        14.000           0.656
  20869041.645      430218.585 6    335229.49521        15.250           1.344
  20457259.106   -20285244.370 7 -15609133.06222        20.500           1.781
 91  5 23 20  2 44.9960000  0  4G 2G11G19G 6
  19574675.457   -26346505.880 8 -20283275.13523        28.500           2.719
  22589230.481   -10158149.263 6  -7915438.03021        13.750           0.594
  20872673.543      449312.496 6    350107.84121        16.250           1.406
  20449813.473   -20324367.138 7 -15639618.32822        20.500           1.813
 91  5 23 20  2 59.9960000  0  4G 2G11G19G 6
  19569994.387   -26371105.168 8 -20302443.40423        28.750           2.688
  22593595.215   -10135212.843 6  -7897565.53921        13.750           0.563
  20876325.246      468501.136 6    365059.98921        15.750           1.281
  20442382.762   -20363420.599 7 -15670049.58922        20.500           1.781
 91  5 23 20  3 14.9960000  0  4G 2G11G19G 6
  19565335.793   -26395590.582 8 -20321522.94923        28.750           2.688
  22597989.543   -10112126.556 6  -7879576.27721        14.000           0.625
  20879995.082      487786.468 6    380087.48821        16.000           1.375
  20434964.035   -20402402.891 7 -15700425.38422        20.500           1.781
 91  5 23 20  3 29.9960000  0  4G 2G11G19G 6
  19560698.027   -26419958.621 8 -20340511.02223        28.750           2.688
  22602412.137   -10088887.247 6  -7861467.76821        14.250           0.594
  20883688.262      507171.998 6    395193.06021        14.750           1.250
  20427560.348   -20441310.242 7 -15730742.79322        20.500           1.688
 91  5 23 20  3 44.9960000  0  4G 2G11G19G 6
  19556083.363   -26444213.153 8 -20359410.65123        28.750           2.531
  22606862.379   -10065498.885 6  -7843243.09721        14.000           0.594
  20887392.098      526653.964 6    410373.78021        16.250           1.250
  20420169.566   -20480146.308 7 -15761004.66222        20.250           1.750
 91  5 23 20  3 59.9960000  0  4G 2G11G19G 6
  19551489.254   -26468353.001 8 -20378220.91523        28.750           2.500
  22611340.793   -10041960.854 6  -7824901.82021        14.000           0.594
  20891118.770      546233.307 6    425630.37921        15.750           1.344
  20412793.098   -20518909.894 7 -15791210.04522        20.500           1.750
 91  5 23 20  4 14.9960000  0  4G 2G11G19G 6
  19546917.035   -26492379.660 8 -20396942.98523        28.750           2.531
  22615847.137   -10018274.759 6  -7806445.16621        14.000           0.625
  20894862.402      565908.724 6    440961.83021        16.000           1.313
  20405430.293   -20557602.256 7 -15821359.93322        20.500           1.750
 91  5 23 20  4 29.9960000  0  4G 2G11G19G 6
  19542366.332   -26516292.949 8 -20415576.71323        29.000           2.594
  22620385.277    -9994440.739 6  -7787873.24321        14.000           0.594
  20898624.809      585680.456 6    456368.34521        15.750           1.188
  20398081.559   -20596222.982 7 -15851453.99822        21.000           1.719
 91  5 23 20  4 44.9960000  0  4G 2G11G19G 6
  19537836.707   -26540098.562 8 -20434126.54523        28.750           2.594
  22624946.746    -9970464.666 6  -7769190.62421        13.750           0.625
  20902404.231      605542.929 6    471845.56121        16.000           1.313
  20390744.637   -20634777.553 7 -15881496.51622        20.500           1.656
 91  5 23 20  4 59.9960000  0  4G 2G11G19G 6
  19533325.699   -26563800.209 8 -20452595.35823        29.000           2.656
  22629534.981    -9946350.716 6  -7750400.57121        13.750           0.469
  20906202.074      625492.063 6    487390.31421        15.250           1.313
  20383421.004   -20673269.678 7 -15911490.37122        20.750           1.688
 91  5 23 20  5 14.9960000  0  4G 2G11G19G 6
  19528836.395   -26587394.958 8 -20470980.87523        29.000           2.594
  22634151.379    -9922096.163 6  -7731500.96421        13.500           0.531
  20910012.520      645531.002 6    503005.03421        15.750           1.375
  20376107.660   -20711696.115 7 -15941433.04122        21.000           1.688
 91  5 23 20  5 29.9960000  0  4G 2G11G19G 6
  19524366.332   -26610881.677 8 -20489282.21523        29.000           2.625
  22638794.129    -9897699.977 6  -7712490.99121        13.750           0.500
  20913846.707      665660.952 6    518690.67421        15.000           1.250
  20368809.543   -20750055.569 7 -15971323.51222        21.000           1.719
 91  5 23 20  5 44.9960000  0  4G 2G11G19G 6
  19519917.566   -26634260.533 8 -20507499.50423        29.000           2.625
  22643462.809    -9873162.710 6  -7693371.08221        14.250           0.531
  20917691.762      685881.805 6    534447.14421        15.500           1.281
  20361522.113   -20788348.039 7 -16001161.79022        21.000           1.656
 91  5 23 20  5 59.9960000  0  4G 2G11G19G 6
  19515485.871   -26657546.113 8 -20525644.11323        29.000           2.656
  22648155.238    -9848499.177 6  -7674152.76721        14.250           0.531
  20921556.699      706179.030 6    550263.12421        14.750           1.250
  20354245.481   -20826588.016 7 -16030959.16222        21.250           1.719
 91  5 23 20  6 14.9960000  0  4G 2G11G19G 6
  19511071.527   -26680745.449 8 -20543721.52023        28.750           2.656
  22652871.676    -9823716.705 6  -7654841.79021        14.000           0.594
  20925429.543      726545.662 6    566133.19421        15.500           1.219
  20346976.957   -20864782.223 7 -16060720.87422        21.250           1.813
 91  5 23 20  6 29.9960000  0  4G 2G11G19G 6
  19506671.340   -26703867.503 8 -20561738.70623        29.000           2.594
  22657608.676    -9798824.695 6  -7635445.47421        13.500           0.594
  20929318.473      746972.641 6    582050.28121        15.250           1.313
  20339715.973   -20902939.602 7 -16090453.88422        21.500           1.750
 91  5 23 20  6 44.9960000  0  4G 2G11G19G 6
  19502285.387   -26726916.489 8 -20579698.95523        29.000           2.594
  22662365.145    -9773827.500 6  -7615967.20021        13.500           0.594
  20933215.059      767455.755 6    598011.10921        15.500           1.250
  20332461.606   -20941064.081 7 -16120161.25822        21.500           1.781
 91  5 23 20  6 59.9960000  0  4G 2G11G19G 6
  19497912.996   -26749894.621 8 -20597603.98523        29.500           2.688
  22667143.066    -9748727.756 6  -7596409.01721        13.000           0.500
  20937124.832      787992.689 6    614013.87421        15.000           1.188
  20325210.824   -20979157.782 7 -16149844.65322        21.500           1.750
 91  5 23 20  7 14.9960000  0  4G 2G11G19G 6
  19493556.004   -26772793.139 8 -20615446.98223        29.250           2.531
  22671939.879    -9723516.830 6  -7576764.18021        12.750           0.531
  20941042.785      808592.229 6    630065.43121        15.500           1.281
  20317969.340   -21017211.828 7 -16179497.14722        21.250           1.781
 91  5 23 20  7 29.9960000  0  4G 2G11G19G 6
  19489214.645   -26795605.402 8 -20633222.76523        29.250           2.688
  22676758.512    -9698188.477 6  -7557027.85621        12.500           0.594
  20944978.441      829261.155 6    646171.05121        15.250           1.188
  20310737.566   -21055219.312 7 -16209113.36022        21.500           1.656
 91  5 23 20  7 44.9960000  0  4G 2G11G19G 6
  19484890.426   -26818327.891 8 -20650928.60123        29.000           2.625
  22681602.254    -9672739.319 6  -7537197.38021        12.250           0.625
  20948924.324      850003.048 6    662333.53221        15.750           1.219
  20303514.613   -21093176.481 7 -16238690.36422        21.500           1.719
 91  5 23 20  7 59.9960000  0  4G 2G11G19G 6
  19480582.340   -26840966.828 8 -20668569.32623        29.500           2.656
  22686465.863    -9647175.882 6  -7517277.88021        12.500           0.469
  20952886.168      870811.591 6    678547.94021        14.750           1.281
  20296299.660   -21131089.328 7 -16268232.82922        21.500           1.813
 91  5 23 20  8 14.9960000  0  4G 2G11G19G 6
  19476290.106   -26863524.821 8 -20686146.98723        29.250           2.656
  22691351.957    -9621501.134 6  -7497271.63521        12.500           0.688
  20956854.918      891684.191 6    694812.26121        15.250           1.156
  20289093.566   -21168960.347 7 -16297742.69622        21.750           1.875
 91  5 23 20  8 29.9960000  0  4G 2G11G19G 6
  19472010.434   -26886012.279 8 -20703669.67923        29.250           2.750
  22696256.738    -9595725.646 6  -7477186.89621        13.000           0.531
  20960841.316      912610.486 6    711118.42721        14.250           1.281
  20281892.770   -21206799.764 7 -16327227.94522        21.500           1.844
 91  5 23 20  8 44.9960000  0  4G 2G11G19G 6
  19467744.652   -26908426.620 8 -20721135.40723        29.000           2.594
  22701182.777    -9569847.155 6  -7457021.88821        13.500           0.656
  20964830.223      933593.098 6    727468.47921        15.250           1.281
  20274698.910   -21244604.850 7 -16356686.45122        21.750           1.813
 91  5 23 20  8 59.9960000  0  4G 2G11G19G 6
  19463494.051   -26930767.783 8 -20738544.10523        29.000           2.656
  22706127.715    -9543865.954 6  -7436776.83121        13.750           0.531
  20968832.621      954632.093 6    743862.46521        15.000           1.281
  20267510.762   -21282375.292 7 -16386117.95822        21.750           1.938
 91  5 23 20  9 14.9960000  0  4G 2G11G19G 6
  19459256.887   -26953033.736 8 -20755894.19923        29.250           2.625
  22711090.590    -9517780.389 6  -7416450.47221        13.500           0.594
  20972848.121      975729.470 6    760301.93921        15.250           1.281
  20260330.535   -21320108.990 7 -16415520.82822        21.750           1.875
 91  5 23 20  9 29.9960000  0  4G 2G11G19G 6
  19455031.809   -26975235.416 8 -20773194.21023        29.000           2.594
  22716071.504    -9491601.633 6  -7396051.50521        13.000           0.469
  20976874.863      996874.358 6    776778.43421        14.250           1.250
  20253154.996   -21357816.761 7 -16444903.50122        21.750           1.875
 91  5 23 20  9 44.9960000  0  4G 2G11G19G 6
  19450819.434   -26997374.046 8 -20790445.09323        29.250           2.688
  22721071.152    -9465331.335 6  -7375581.18421        12.750           0.531
  20980903.785     1018065.483 6    793290.96421        15.250           1.375
  20245983.402   -21395499.579 7 -16474266.72322        21.500           1.875
 91  5 23 20  9 59.9960000  0  4G 2G11G19G 6
  19446620.223   -27019440.654 8 -20807639.85723        29.250           2.719
  22726088.926    -9438960.835 6  -7355032.79521        12.750           0.531
  20984948.660     1039311.680 6    809846.40221        14.750           1.219
  20238818.918   -21433148.427 7 -16503603.48422        21.500           1.875
 91  5 23 20 10 14.9960000  0  4G 2G11G19G 6
  19442433.324   -27041443.054 8 -20824784.58723        29.500           2.531
  22731123.551    -9412498.084 6  -7334412.51821        12.250           0.469
  20988999.957     1060605.384 6    826438.86321        15.000           1.188
  20231659.949   -21470770.714 7 -16532919.54222        22.000           1.969
 91  5 23 20 10 29.9960000  0  4G 2G11G19G 6
  19438257.223   -27063383.537 8 -20841881.06423        30.250           2.656
  22736177.574    -9385945.593 6  -7313722.31621        12.500           0.438
  20993061.238     1081944.382 6    843066.62221        14.500           1.156
  20224505.629   -21508368.497 7 -16562216.50722        21.750           1.969
 91  5 23 20 10 44.9960000  0  4G 2G11G19G 6
  19434093.387   -27085266.555 8 -20858932.77123        30.250           2.719
  22741246.090    -9359307.873 6  -7292965.68521        12.250           0.531
  20997128.707     1103324.220 6    859726.20621        15.000           1.250
  20217355.207   -21545945.922 7 -16591497.61422        21.250           1.938
 91  5 23 20 10 59.9960000  0  4G 2G11G19G 6
  19429942.387   -27107077.310 8 -20875928.16723        29.750           2.750
  22746334.043    -9332570.558 6  -7272131.46521        12.500           0.531
  21001208.840     1124759.613 6    876429.06921        14.750           1.188
  20210211.410   -21583488.160 7 -16620751.30222        21.250           2.031
 91  5 23 20 11 14.9960000  0  4G 2G11G19G 6
  19425805.793   -27128819.867 8 -20892870.42023        30.000           2.625
  22751439.856    -9305738.125 6  -7251223.11921        12.750           0.531
  21005296.027     1146246.358 6    893171.94921        15.000           1.281
  20203071.043   -21620999.236 7 -16649980.70122        21.250           2.031
 91  5 23 20 11 29.9960000  0  4G 2G11G19G 6
  19421683.152   -27150484.232 8 -20909751.74423        30.500           2.688
  22756566.715    -9278800.858 6  -7230233.09421        12.750           0.531
  21009401.746     1167794.638 6    909962.78121        13.750           1.156
  20195942.191   -21658468.809 7 -16679177.76622        22.000           2.031
 91  5 23 20 11 44.9960000  0  4G 2G11G19G 6
  19417578.621   -27172054.556 8 -20926559.79123        30.000           2.688
  22761715.613    -9251743.293 6  -7209149.31121        13.000           0.500
  21013513.207     1189420.212 6    926813.84421        14.750           1.219
  20188823.824   -21695880.975 7 -16708330.09422        22.000           2.031
 91  5 23 20 11 59.9960000  0  4G 2G11G19G 6
  19413491.363   -27193533.694 8 -20943296.78223        29.750           2.719
  22766886.996    -9224568.523 6  -7187974.22021        12.750           0.531
  21017641.762     1211120.351 6    943723.00321        14.750           1.156
  20181714.504   -21733238.216 7 -16737439.62322        22.000           2.031
 91  5 23 20 12 14.9960000  0  4G 2G11G19G 6
  19409421.207   -27214919.867 8 -20959961.33823        30.000           2.750
  22772079.988    -9197275.105 6  -7166706.68021        13.250           0.500
  21021785.652     1232896.823 6    960691.64321        14.750           1.031
  20174616.402   -21770538.722 7 -16766504.94622        21.750           1.906
 91  5 23 20 12 29.9960000  0  4G 2G11G19G 6
  19405368.848   -27236216.756 8 -20976556.32123        30.000           2.719
  22777296.754    -9169866.866 6  -7145349.65421        13.500           0.563
  21025946.012     1254745.969 6    977716.91321        14.000           1.156
  20167529.254   -21807785.831 7 -16795528.66122        21.500           1.938
 91  5 23 20 12 44.9960000  0  4G 2G11G19G 6
  19401332.231   -27257428.792 8 -20993085.17723        29.250           2.781
  22782532.856    -9142348.557 6  -7123906.87321        13.750           0.469
  21030114.754     1276663.385 6    994795.38621        14.500           1.094
  20160448.910   -21844983.848 7 -16824514.12522        21.750           2.094
 91  5 23 20 12 59.9960000  0  4G 2G11G19G 6
  19397311.590   -27278558.855 8 -21009550.15923        29.250           2.750
  22787789.934    -9114723.351 6  -7102380.77921        13.500           0.563
  21034299.012     1298646.199 6   1011924.81621        14.250           1.094
  20153380.207   -21882135.450 7 -16853463.41922        22.000           2.031
 91  5 23 20 13 14.9960000  0  4G 2G11G19G 6
  19393304.348   -27299613.875 8 -21025956.66723        29.250           2.750
  22793065.449    -9086998.327 6  -7080776.92421        13.000           0.500
  21038490.715     1320687.584 6   1029099.88221        14.500           1.219
  20146318.098   -21919247.324 7 -16882381.75222        21.750           2.031
 91  5 23 20 13 29.9960000  0  4G 2G11G19G 6
  19389311.895   -27320599.145 8 -21042308.82823        29.250           2.719
  22798359.691    -9059179.203 6  -7059099.75121        13.000           0.406
  21042696.606     1342782.225 6   1046316.45121        13.500           1.188
  20139262.184   -21956324.623 7 -16911273.15022        22.750           1.969
 91  5 23 20 13 44.9960000  0  4G 2G11G19G 6
  19385330.106   -27341517.113 8 -21058608.54423        29.750           2.750
  22803670.926    -9031268.921 6  -7037351.54621        13.250           0.438
  21046911.004     1364927.592 6   1063572.54021        14.250           1.094
  20132212.965   -21993369.719 7 -16940139.45622        22.250           1.938
 91  5 23 20 13 59.9960000  0  4G 2G11G19G 6
  19381362.777   -27362371.862 8 -21074858.99523        30.000           2.750
  22808998.434    -9003271.735 6  -7015535.59521        13.250           0.438
  21051135.895     1387119.684 6   1080865.04421        13.250           1.219
  20125169.176   -22030386.399 7 -16968983.60922        22.250           1.938
 91  5 23 20 14 14.9960000  0  4G 2G11G19G 6
  19377406.176   -27383159.590 8 -21091057.22023        29.500           2.688
  22814342.754    -8975184.000 6  -6993649.11721        13.250           0.375
  21055365.785     1409362.376 6   1098196.98221        14.000           1.094
  20118131.645   -22067370.581 7 -16997802.44622        22.500           1.969
 91  5 23 20 14 29.9960000  0  4G 2G11G19G 6
  19373463.551   -27403880.541 8 -21107203.41423        29.500           2.656
  22819706.207    -8947006.169 6  -6971692.43321        13.000           0.375
  21059609.152     1431655.449 6   1115568.16921        13.250           1.250
  20111098.668   -22104322.190 7 -17026595.89722        22.500           1.938
 91  5 23 20 14 44.9950000  0  4G 2G11G19G 6
  19369532.265   -27424538.250 8 -21123300.32723        29.500           2.719
  22825083.241    -8918745.443 6  -6949671.12921        12.750           0.406
  21063857.874     1453992.383 6   1132973.53721        13.500           1.063
  20104073.116   -22141243.616 7 -17055365.82322        22.500           1.938
 91  5 23 20 14 59.9950000  0  4G 2G11G19G 6
  19365613.054   -27445133.702 8 -21139348.72423        30.000           2.656
  22830476.710    -8890396.648 6  -6927581.20621        12.500           0.438
  21068120.999     1476377.940 6   1150416.79021        13.250           1.094
  20097052.687   -22178137.933 7 -17084114.62722        22.500           1.938
 91  5 23 20 15 14.9950000  0  4G 2G11G19G 6
  19361707.679   -27465659.942 8 -21155343.19523        30.000           2.688
  22835889.374    -8861956.288 6  -6905419.93121        12.000           0.469
  21072389.171     1498816.337 6   1167901.21921        14.000           1.094
  20090037.780   -22214996.785 7 -17112835.79722        22.500           1.906
 91  5 23 20 15 29.9950000  0  4G 2G11G19G 6
  19357812.921   -27486122.299 8 -21171287.88823        29.500           2.719
  22841318.015    -8833430.288 6  -6883191.93221        12.000           0.438
  21076668.452     1521302.010 6   1185422.49221        13.500           1.031
  20083030.640   -22251825.458 7 -17141533.45122        22.500           1.969
 91  5 23 20 15 44.9950000  0  4G 2G11G19G 6
  19353931.624   -27506518.730 8 -21187181.21123        29.250           2.719
  22846763.171    -8804816.796 6  -6860895.77021        12.000           0.438
  21080955.710     1543837.072 6   1202982.24521        14.250           1.156
  20076027.913   -22288621.615 7 -17170205.77322        22.750           1.875
